Date StartTime U_cm/s V_cm/s W_cm/s Ustd_cm/s Vstd_cm/s Wstd_cm/s Uvar_(cm/s)^2 Vvar_(cm/s)^2 Wvar_(cm/s)^2 KE_(m/s)^2 TurbulentKE_(m/s)^2 HorizWindSpeed_cm/s FrictionSpeec_cm/s DragCoef SpeedOfSound_m/s SonicTemperature_C Pressure_mb 
06/11/2013  00:00:00     -187.345      -58.854      -21.250      108.318       58.154       36.066    11732.719     3381.922     1300.722        2.771        0.821      196.372       43.580        0.049      342.524       17.989      858.360
06/11/2013  00:01:00      -70.169      -21.507       -6.554       97.113       89.495       58.790     9430.951     8009.330     3456.272        1.316        1.045       73.391       70.042        0.911      342.476       17.912      858.319
06/11/2013  00:02:00     -287.759      -17.126      -27.838      191.160      121.162       69.600    36541.956    14680.217     4844.190        6.996        2.803      288.268       95.047        0.109      342.610       18.139      858.268
06/11/2013  00:03:00     -144.536       19.199        3.721      113.990       72.575       47.070    12993.662     5267.135     2215.599        2.087        1.024      145.806       59.569        0.167      342.507       17.962      858.256
06/11/2013  00:04:00     -157.992      -59.505      -11.888       42.629       43.861       27.227     1817.234     1923.798      741.303        1.656        0.224      168.826       22.337        0.018      342.519       17.985      858.258
06/11/2013  00:05:00     -249.594       44.644       -8.709      106.171      105.657       57.723    11272.251    11163.473     3331.900        4.506        1.288      253.556       47.907        0.036      342.541       18.020      858.256
06/11/2013  00:06:00     -130.934      -37.292       -1.445       67.491       66.887       37.128     4554.989     4473.877     1378.519        1.447        0.520      136.141       33.398        0.060      342.547       18.032      858.278
06/11/2013  00:07:00     -218.162      -26.781      -19.406       95.411       88.282       48.096     9103.306     7793.684     2313.228        3.395        0.961      219.800       45.167        0.042      342.620       18.154      858.236
06/11/2013  00:08:00     -231.150      -15.543      -22.180      117.428       97.310       55.847    13789.297     9469.254     3118.868        4.027        1.319      231.672       62.569        0.073      342.717       18.319      858.206
06/11/2013  00:09:00     -209.002       -4.044       -4.092       79.430       76.946       46.512     6309.080     5920.742     2163.369        2.905        0.720      209.041       23.801        0.013      342.697       18.283      858.179
06/11/2013  00:10:00     -129.607      -68.896        2.286      125.205       94.386       52.386    15676.230     8908.721     2744.334        2.443        1.366      146.781       47.156        0.103      342.681       18.259      858.172
06/11/2013  00:11:00     -234.869     -100.503       -6.025       73.652       75.453       44.863     5424.595     5693.209     2012.694        3.921        0.657      255.469       22.293        0.008      342.720       18.324      858.185
06/11/2013  00:12:00     -263.146      -16.893      -21.510      101.388       90.900       53.780    10279.487     8262.831     2892.317        4.571        1.072      263.687       51.823        0.039      342.744       18.363      858.201
06/11/2013  00:13:00     -418.171       49.336      -31.195      155.727      127.125       68.782    24250.909    16160.723     4730.968       11.170        2.257      421.071       66.309        0.025      342.805       18.468      858.208
06/11/2013  00:14:00     -174.208      -21.498       -2.577      117.106       91.407       56.036    13713.822     8355.331     3140.009        2.801        1.260      175.529       60.577        0.119      342.700       18.291      858.189
06/11/2013  00:15:00     -322.274       -8.179      -31.291      126.508       81.976       64.292    16004.294     6719.993     4133.518        6.588        1.343      322.378       59.385        0.034      342.781       18.427      858.170
06/11/2013  00:16:00     -173.673      -35.555      -18.356       80.159       89.254       39.504     6425.452     7966.348     1560.572        2.385        0.798      177.275       40.443        0.052      342.691       18.275      858.165
06/11/2013  00:17:00     -104.025      -61.810       11.203       92.389       69.383       38.829     8535.679     4814.004     1507.667        1.481        0.743      121.002       39.396        0.106      342.639       18.188      858.182
06/11/2013  00:18:00     -197.439      -16.576      -10.732      120.000       59.037       35.299    14399.967     3485.392     1246.020        2.925        0.957      198.134       49.885        0.063      342.696       18.285      858.169
06/11/2013  00:19:00     -182.664      -62.980      -11.465      116.026       76.748       47.170    13462.128     5890.192     2225.055        2.952        1.079      193.217       55.492        0.082      342.737       18.354      858.151
06/11/2013  00:20:00     -210.579        7.064       -3.689      103.671      118.162       43.682    10747.612    13962.347     1908.097        3.551        1.331      210.698       40.315        0.037      342.735       18.349      858.153
06/11/2013  00:21:00      -98.729      -83.003        2.564       86.987       78.042       46.711     7566.717     6090.628     2181.899        1.624        0.792      128.984       41.376        0.103      342.766       18.402      858.138
06/11/2013  00:22:00      -70.992      -34.998       14.689       85.059       70.311       45.854     7234.965     4943.655     2102.551        1.038        0.714       79.150       48.691        0.378      342.702       18.296      858.143
06/11/2013  00:23:00     -299.741      -66.598      -11.647      209.313      144.056       67.086    43811.973    20752.135     4500.492        8.173        3.453      307.051       85.801        0.078      342.747       18.370      858.137
06/11/2013  00:24:00     -397.073      -75.009      -26.150      169.144      144.381       71.735    28609.752    20845.765     5145.841       10.928        2.730      404.095       79.427        0.039      342.872       18.584      858.117
06/11/2013  00:25:00     -272.739      -82.455        2.608      160.721      130.817       73.624    25831.241    17113.185     5420.557        6.477        2.418      284.930       78.753        0.076      342.879       18.594      858.120
06/11/2013  00:26:00     -208.226      -63.024        3.540      113.914       90.414       53.594    12976.403     8174.691     2872.363        3.568        1.201      217.554       52.061        0.057      342.807       18.474      858.140
06/11/2013  00:27:00     -247.142      -15.481      -13.597      122.656       90.008       50.332    15044.591     8101.384     2533.303        4.359        1.284      247.627       51.368        0.043      342.857       18.558      858.133
06/11/2013  00:28:00     -257.588     -103.394      -11.188       88.020       90.486       44.207     7747.487     8187.716     1954.295        4.752        0.894      277.564       42.425        0.023      342.837       18.523      858.103
06/11/2013  00:29:00     -236.715      -52.070       -2.156      107.922       91.269       56.587    11647.104     8330.116     3202.136        4.096        1.159      242.375       57.601        0.056      342.817       18.489      858.118
06/11/2013  00:30:00     -282.413      -42.569       -9.128      114.263       99.548       47.635    13056.131     9909.775     2269.058        5.344        1.262      285.603       54.676        0.037      342.861       18.564      858.094
06/11/2013  00:31:00     -268.913        6.067      -11.920      128.593       94.519       60.271    16536.077     8933.790     3632.651        5.079        1.455      268.981       64.292        0.057      342.781       18.427      858.108
06/11/2013  00:32:00     -374.267      -58.896      -28.797      132.893       95.963       60.602    17660.669     9208.965     3672.605        8.745        1.527      378.873       66.925        0.031      342.836       18.521      858.103
06/11/2013  00:33:00     -262.193     -132.923       -6.735      120.121       94.671       50.655    14428.961     8962.584     2565.944        5.620        1.298      293.962       55.347        0.035      342.810       18.477      858.074
06/11/2013  00:34:00     -264.272     -112.228       -4.089      112.454       75.316       52.303    12645.987     5672.495     2735.574        5.175        1.053      287.114       51.254        0.032      342.787       18.436      858.079
06/11/2013  00:35:00     -280.158      -54.373       -3.667      124.506      131.290       60.903    15501.719    17237.100     3709.138        5.895        1.822      285.385       58.973        0.043      342.816       18.486      858.052
06/11/2013  00:36:00     -335.858      -84.486      -21.243       89.269       83.303       50.334     7968.912     6939.383     2533.553        6.891        0.872      346.321       43.831        0.016      342.811       18.479      858.045
06/11/2013  00:37:00     -358.489     -108.841       -8.631       88.763       83.626       55.685     7878.868     6993.245     3100.792        7.920        0.899      374.647       49.135        0.017      342.825       18.503      858.060
06/11/2013  00:38:00     -301.367      -79.501      -14.692       81.018       88.575       47.283     6563.866     7845.561     2235.673        5.700        0.832      311.676       45.289        0.021      342.767       18.402      858.069
06/11/2013  00:39:00     -269.983      -79.158       -0.640      155.557       90.805       65.789    24197.973     8245.631     4328.195        5.796        1.839      281.349       59.372        0.045      342.831       18.514      858.063
06/11/2013  00:40:00     -265.593      -56.980        6.476      118.820       95.060       63.516    14118.222     9036.448     4034.312        5.050        1.359      271.637       58.249        0.046      342.911       18.649      858.069
06/11/2013  00:41:00     -179.593      -64.057       -4.659       66.943       68.181       38.935     4481.342     4648.685     1515.917        2.351        0.532      190.675       36.517        0.037      342.822       18.499      858.076
06/11/2013  00:42:00     -238.636     -104.049       -6.980      105.368       98.412       51.936    11102.499     9684.874     2697.367        4.565        1.174      260.334       55.205        0.045      342.800       18.460      858.069
06/11/2013  00:43:00     -247.550      -60.004      -14.690       88.147       93.882       47.560     7769.818     8813.767     2261.977        4.197        0.942      254.718       33.483        0.017      342.820       18.493      858.069
06/11/2013  00:44:00     -216.601      -66.054      -10.987       65.875       55.193       40.567     4339.573     3046.288     1645.699        3.021        0.452      226.449       24.879        0.012      342.778       18.421      858.086
06/11/2013  00:45:00     -266.522      -67.646       -9.367       93.799       80.571       46.410     8798.311     6491.696     2153.895        4.657        0.872      274.972       44.819        0.027      342.810       18.476      858.107
06/11/2013  00:46:00     -380.195      -56.612      -12.650      151.966      129.607       62.494    23093.572    16797.866     3905.447        9.585        2.190      384.387       72.604        0.036      342.878       18.592      858.091
06/11/2013  00:47:00     -393.685      -43.518      -26.745      140.273      115.662       62.356    19676.494    13377.749     3888.225        9.726        1.847      396.083       60.967        0.024      342.862       18.566      858.093
06/11/2013  00:48:00     -312.037      -97.317       -8.214      141.151      104.450       63.419    19923.703    10909.765     4021.979        7.087        1.743      326.861       66.742        0.042      342.844       18.534      858.083
06/11/2013  00:49:00     -299.901      -76.798        1.881      155.117      118.375       64.692    24061.234    14012.676     4185.095        6.904        2.113      309.578       63.770        0.042      342.908       18.645      858.113
06/11/2013  00:50:00      -72.880     -133.360       26.947      113.816      111.989       60.525    12954.103    12541.610     3663.250        2.648        1.458      151.975       52.660        0.120      342.845       18.537      858.163
06/11/2013  00:51:00     -109.245     -225.976       -9.368       99.376       90.859       48.633     9875.561     8255.375     2365.196        4.179        1.025      250.997       46.527        0.034      342.890       18.613      858.215
06/11/2013  00:52:00       73.214     -176.187       -9.598       93.360      107.944       55.124     8716.107    11651.919     3038.614        2.995        1.170      190.793       49.184        0.066      342.181       17.409      858.261
06/11/2013  00:53:00       64.119      -46.374       41.660       69.106       86.351       52.936     4775.593     7456.462     2802.202        1.151        0.752       79.131       50.320        0.404      341.871       16.885      858.314
06/11/2013  00:54:00       59.677      -90.918       -0.062       52.564       75.230       48.211     2762.939     5659.627     2324.327        1.128        0.537      108.754       45.737        0.177      341.911       16.953      858.288
06/11/2013  00:55:00       43.603      -80.843       11.500       64.296       79.626       55.163     4134.038     6340.303     3042.943        1.104        0.676       91.853       52.788        0.330      341.910       16.951      858.290
06/11/2013  00:56:00       99.496     -130.965        9.559       78.588       99.732       59.804     6176.055     9946.570     3576.519        2.342        0.985      164.473       67.328        0.168      341.728       16.641      858.285
06/11/2013  00:57:00       93.420     -106.751       12.114       93.341      117.529       61.599     8712.530    13812.972     3794.439        2.329        1.316      141.856       80.318        0.321      341.660       16.525      858.230
06/11/2013  00:58:00        1.900      -16.828       28.726       31.991       62.606       39.686     1023.446     3919.460     1574.997        0.381        0.326       16.935       39.643        5.480      341.705       16.602      858.238
06/11/2013  00:59:00        1.014       -3.307       11.983       31.734       36.116       26.167     1007.058     1304.375      684.692        0.158        0.150        3.459       26.925       60.584      341.741       16.664      858.253
06/11/2013  01:00:00      -21.739        4.777       19.927       23.890       20.220       17.936      570.730      408.850      321.710        0.110        0.065       22.258       19.131        0.739      341.674       16.550      858.252
06/11/2013  01:01:00     -111.531      -20.356      -13.019       20.578       28.804       14.755      423.466      829.655      217.706        0.725        0.074      113.374        5.805        0.003      341.736       16.656      858.284
06/11/2013  01:02:00     -121.854       -6.931       -2.215       49.666       33.676       22.400     2466.675     1134.086      501.757        0.950        0.205      122.051       23.803        0.038      341.680       16.561      858.319
06/11/2013  01:03:00      -27.631      -41.240        0.156       33.510       19.290       21.294     1122.901      372.093      453.427        0.221        0.097       49.641       18.784        0.143      341.690       16.578      858.284
06/11/2013  01:04:00      -60.029      -33.003       -6.053       27.704       24.676       17.936      767.535      608.913      321.708        0.321        0.085       68.503       13.427        0.038      341.719       16.629      858.306
06/11/2013  01:05:00     -109.561      -38.498        6.479       50.982       42.263       27.026     2599.164     1786.132      730.431        0.932        0.256      116.128       27.872        0.058      341.714       16.619      858.359
06/11/2013  01:06:00       11.224      -23.952        0.441       35.619       19.145       19.327     1268.724      366.514      373.522        0.135        0.100       26.452       14.174        0.287      341.753       16.684      858.309
06/11/2013  01:07:00      -67.164      -39.020        6.855       39.974       23.492       20.491     1597.925      551.874      419.882        0.432        0.128       77.676        9.846        0.016      341.772       16.715      858.312
06/11/2013  01:08:00      -83.993      -71.217        5.796       56.145       37.550       29.011     3152.206     1410.011      841.636        0.878        0.270      110.121       30.759        0.078      341.728       16.643      858.345
06/11/2013  01:09:00      -88.549      -15.078        1.294       26.551       26.296       17.431      704.957      691.472      303.855        0.488        0.085       89.823       11.788        0.017      341.643       16.499      858.324
06/11/2013  01:10:00     -101.860      -43.498       -7.747       39.045       41.436       20.903     1524.476     1716.906      436.917        0.800        0.184      110.758        9.191        0.007      341.662       16.530      858.304
06/11/2013  01:11:00      -69.984      -60.387        4.038       42.961       40.311       27.326     1845.632     1625.009      746.684        0.639        0.211       92.435       20.148        0.048      341.617       16.453      858.329
06/11/2013  01:12:00      -58.487      -73.193        6.224       40.658       20.765       23.301     1653.101      431.166      542.914        0.572        0.131       93.691       23.856        0.065      341.616       16.452      858.326
06/11/2013  01:13:00     -107.084      -46.771       -1.339       59.921       36.269       22.869     3590.577     1315.460      523.000        0.954        0.271      116.853       19.227        0.027      341.562       16.359      858.325
06/11/2013  01:14:00     -128.648      -18.925       -3.648       54.096       30.599       17.350     2926.394      936.324      301.034        1.054        0.208      130.033       14.984        0.013      341.485       16.231      858.321
06/11/2013  01:15:00     -103.246      -14.183       -5.749       48.638       29.606       22.179     2365.659      876.503      491.887        0.731        0.187      104.216       23.334        0.050      341.444       16.160      858.300
06/11/2013  01:16:00     -128.043      -33.591       -4.782       43.518       23.928       22.292     1893.785      572.564      496.919        1.025        0.148      132.376       15.890        0.014      341.444       16.159      858.276
06/11/2013  01:17:00     -160.762      -60.749       -7.658       48.185       43.370       21.744     2321.758     1880.918      472.798        1.713        0.234      171.857       14.528        0.007      341.379       16.050      858.284
06/11/2013  01:18:00     -143.748      -76.889       -3.203       55.139       34.533       24.549     3040.306     1192.509      602.646        1.571        0.242      163.020       23.745        0.021      341.363       16.024      858.305
06/11/2013  01:19:00      -47.599      -98.293       -3.233       32.905       22.589       18.823     1082.770      510.276      354.295        0.694        0.097      109.211       13.510        0.015      341.476       16.213      858.261
06/11/2013  01:20:00      -64.445     -114.265        3.759       38.255       51.868       25.792     1463.416     2690.309      665.208        1.102        0.241      131.185       29.759        0.051      341.530       16.305      858.230
06/11/2013  01:21:00      -80.449      -91.169       -6.016       39.825       51.172       21.561     1586.012     2618.541      464.856        0.974        0.233      121.589       23.122        0.036      341.541       16.322      858.226
06/11/2013  01:22:00      -78.824      -33.633       11.152       53.385       31.438       19.043     2849.937      988.329      362.627        0.583        0.210       85.699       23.097        0.073      341.421       16.121      858.239
06/11/2013  01:23:00      -66.797      -28.551        2.855       27.316       21.395       15.575      746.178      457.764      242.580        0.337        0.072       72.643       14.278        0.039      341.405       16.095      858.231
06/11/2013  01:24:00      -34.214      -20.608        6.913       35.796       23.292       15.491     1281.383      542.537      239.984        0.185        0.103       39.941       16.215        0.165      341.402       16.090      858.225
06/11/2013  01:25:00      -61.002      -40.117       -3.374       37.039       22.891       13.781     1371.855      523.980      189.910        0.371        0.104       73.011       14.774        0.041      341.492       16.241      858.215
06/11/2013  01:26:00      -98.420      -62.669       -3.836       21.974       26.876       15.857      482.877      722.304      251.457        0.754        0.073      116.678        9.191        0.006      341.525       16.297      858.225
06/11/2013  01:27:00      -56.647      -54.905       -5.672       31.920       27.833       17.228     1018.907      774.700      296.791        0.417        0.105       78.889       16.944        0.046      341.486       16.231      858.236
06/11/2013  01:28:00      -61.632      -50.533       -2.969       40.826       26.268       17.133     1666.736      689.998      293.539        0.451        0.133       79.700       18.752        0.055      341.472       16.207      858.254
06/11/2013  01:29:00      -52.273      -12.699        5.331       32.388       23.927       17.263     1049.013      572.494      298.015        0.242        0.096       53.794       17.963        0.112      341.397       16.081      858.279
06/11/2013  01:30:00      -73.714      -33.779        0.017       24.549       19.964       11.937      602.667      398.563      142.492        0.386        0.057       81.085        9.039        0.012      341.441       16.155      858.271
06/11/2013  01:31:00       -3.851       -0.287       12.130       37.224       24.032       14.418     1385.642      577.559      207.891        0.117        0.109        3.862       17.508       20.552      341.363       16.024      858.258
06/11/2013  01:32:00       20.105       34.726       30.648       34.023       18.311       23.158     1157.561      335.279      536.311        0.229        0.101       40.126       19.838        0.244      341.325       15.959      858.246
06/11/2013  01:33:00       -3.596        6.700       28.654        9.875       19.713       14.475       97.516      388.600      209.540        0.079        0.035        7.604       14.117        3.447      341.347       15.996      858.265
06/11/2013  01:34:00       24.280       50.098       44.267       36.172       14.349       15.022     1308.435      205.897      225.656        0.340        0.087       55.672       14.007        0.063      341.290       15.900      858.283
06/11/2013  01:35:00       83.672       32.992       20.780       17.189       22.874       17.615      295.477      523.209      310.293        0.482        0.056       89.942       10.917        0.015      341.323       15.958      858.282
06/11/2013  01:36:00       47.157       25.753        6.376       25.930       13.953       14.537      672.389      194.690      211.339        0.200        0.054       53.730        7.709        0.021      341.228       15.796      858.267
06/11/2013  01:37:00       32.775       18.954        7.757       14.853        8.276        8.392      220.605       68.498       70.420        0.093        0.018       37.861        7.583        0.040      341.207       15.759      858.262
06/11/2013  01:38:00       91.100       51.993       14.387       19.130        7.769        7.028      365.958       60.358       49.398        0.584        0.024      104.893        5.944        0.003      341.323       15.956      858.274
06/11/2013  01:39:00      125.514       64.529       19.810       18.791       24.863       26.794      353.106      618.179      717.911        1.100        0.084      141.130       12.718        0.008      341.248       15.829      858.268
06/11/2013  01:40:00      137.067       74.492       35.664       22.761       21.871       24.464      518.044      478.338      598.511        1.360        0.080      156.001       12.444        0.006      341.146       15.656      858.260
06/11/2013  01:41:00      120.003       62.914       33.580       37.644       27.120       27.938     1417.041      735.469      780.523        1.121        0.147      135.495       18.632        0.019      341.127       15.624      858.287
06/11/2013  01:42:00      125.707       71.448       22.595       40.818       31.863       30.487     1666.133     1015.231      929.434        1.251        0.181      144.593       21.212        0.022      341.095       15.571      858.283
06/11/2013  01:43:00      131.071       67.257       12.036       25.278       25.660       21.210      638.964      658.432      449.860        1.180        0.087      147.319       11.959        0.007      341.099       15.577      858.302
06/11/2013  01:44:00      101.364       77.533        8.429       46.000       25.128       27.466     2116.023      631.392      754.365        0.993        0.175      127.617       22.341        0.031      341.095       15.571      858.329
06/11/2013  01:45:00       93.434       66.423       23.579       28.718       25.063       23.654      824.705      628.147      559.501        0.785        0.101      114.638       18.715        0.027      341.097       15.574      858.340
06/11/2013  01:46:00       82.514       51.388       12.247       21.213       21.516       14.151      450.004      462.935      200.243        0.536        0.056       97.207        8.196        0.007      341.045       15.485      858.323
06/11/2013  01:47:00      108.091       76.945       11.001       30.893       19.148       19.386      954.391      366.638      375.822        0.971        0.085      132.681       11.939        0.008      341.064       15.516      858.293
06/11/2013  01:48:00      103.263       41.995        6.557       34.959       24.725       21.095     1222.102      611.329      445.011        0.737        0.114      111.475        9.727        0.008      341.061       15.515      858.292
06/11/2013  01:49:00       73.611       54.836       55.788       35.982       30.744       33.114     1294.704      945.165     1096.537        0.744        0.167       91.791       21.369        0.054      340.986       15.386      858.289
06/11/2013  01:50:00       62.452       47.125       36.666       36.233       21.793       25.166     1312.798      474.934      633.345        0.494        0.121       78.237       21.865        0.078      340.985       15.382      858.273
06/11/2013  01:51:00      120.773       53.300       18.454       36.959       29.317       29.234     1365.953      859.472      854.639        1.042        0.154      132.011       22.827        0.030      341.054       15.500      858.246
06/11/2013  01:52:00       96.529       56.810       52.291       51.192       44.518       45.954     2620.572     1981.811     2111.729        1.100        0.336      112.005       34.808        0.097      341.089       15.560      858.234
06/11/2013  01:53:00       15.099       97.827      110.770       30.965       55.482       29.876      958.806     3078.225      892.555        1.350        0.246       98.985       35.290        0.127      341.104       15.585      858.248
06/11/2013  01:54:00       45.146      -38.802       36.358       34.393       46.653       30.799     1182.861     2176.522      948.575        0.459        0.215       59.530       34.384        0.334      341.105       15.587      858.301
06/11/2013  01:55:00       47.686       -3.856       31.472       35.329       39.442       29.909     1248.168     1555.680      894.546        0.349        0.185       47.841       30.292        0.401      341.148       15.660      858.296
06/11/2013  01:56:00       54.846       30.793       54.056       32.079       70.733       34.214     1029.047     5003.167     1170.605        0.704        0.360       62.899       44.281        0.496      341.200       15.749      858.294
06/11/2013  01:57:00       62.460       41.109       38.226       39.048       22.992       24.093     1524.739      528.636      580.451        0.484        0.132       74.774       22.728        0.092      341.206       15.759      858.302
06/11/2013  01:58:00       34.767       41.121       42.053       33.967       21.549       11.858     1153.741      464.338      140.617        0.321        0.088       53.849        9.781        0.033      341.161       15.682      858.313
06/11/2013  01:59:00       31.147       44.121       51.042       22.585       22.484       20.000      510.069      505.544      399.994        0.347        0.071       54.007       11.648        0.047      341.130       15.630      858.310
06/11/2013  02:00:00       21.273       31.672       47.619       23.516       20.962       12.819      553.011      439.400      164.329        0.244        0.058       38.153       13.639        0.128      341.178       15.711      858.332
06/11/2013  02:01:00       32.191       16.682       32.583       30.017       39.546       22.641      901.031     1563.924      512.600        0.268        0.149       36.257       27.044        0.556      341.161       15.681      858.362
06/11/2013  02:02:00       79.369       50.770       22.987       21.827       15.377       18.084      476.401      236.465      327.033        0.522        0.052       94.218       10.693        0.013      341.042       15.483      858.335
06/11/2013  02:03:00       26.596       24.244       18.159       13.672       12.241        8.685      186.919      149.831       75.431        0.102        0.021       35.988        7.599        0.045      341.018       15.438      858.366
06/11/2013  02:04:00       58.440       32.194       13.700       16.201       12.553        9.915      262.488      157.568       98.310        0.258        0.026       66.721        6.383        0.009      341.008       15.425      858.362
06/11/2013  02:05:00       35.372       41.949       -2.890       30.464       14.977       12.677      928.078      224.300      160.718        0.217        0.066       54.872       13.289        0.059      341.078       15.540      858.362
06/11/2013  02:06:00       23.100        9.760       10.857       15.457       14.421       10.240      238.909      207.962      104.855        0.065        0.028       25.077        4.668        0.035      340.963       15.345      858.371
06/11/2013  02:07:00       19.850       -6.184        7.070       10.574       13.149       10.496      111.800      172.896      110.172        0.044        0.020       20.791        5.958        0.082      341.078       15.541      858.381
06/11/2013  02:08:00       29.336       19.290       26.191       11.773       11.346       13.617      138.610      128.726      185.416        0.119        0.023       35.110        8.474        0.058      341.089       15.561      858.373
06/11/2013  02:09:00       33.976      -32.138       15.755       20.165       47.864       27.564      406.634     2290.950      759.766        0.295        0.173       46.768       31.520        0.454      341.203       15.753      858.364
06/11/2013  02:10:00       13.895      -94.368       -2.719       37.885       36.709       20.560     1435.251     1347.568      422.732        0.616        0.160       95.386       16.972        0.032      341.316       15.943      858.381
06/11/2013  02:11:00       32.587      -97.318      -25.194       29.423       36.803       25.072      865.705     1354.485      628.612        0.701        0.142      102.629        7.264        0.005      341.347       15.997      858.386
06/11/2013  02:12:00       30.292     -114.376       -4.700       33.303       31.556       21.670     1109.104      995.760      469.596        0.830        0.129      118.319       11.279        0.009      341.391       16.071      858.370
06/11/2013  02:13:00       82.795      -85.891       -9.512       52.380       46.592       31.435     2743.644     2170.808      988.136        1.011        0.295      119.299       32.250        0.073      341.343       15.990      858.335
06/11/2013  02:14:00       38.525      -55.415        7.729       44.973       42.979       38.280     2022.540     1847.191     1465.371        0.497        0.267       67.490       33.699        0.249      341.252       15.836      858.296
06/11/2013  02:15:00        8.472      -35.125        2.781       25.271       45.976       25.310      638.603     2113.753      640.581        0.235        0.170       36.132       30.607        0.718      341.227       15.794      858.281
06/11/2013  02:16:00      -10.405       24.657       35.347        9.453       15.127       12.261       89.365      228.824      150.340        0.122        0.023       26.762       10.400        0.151      341.143       15.651      858.279
06/11/2013  02:17:00      -53.159       42.764        1.200       36.930       23.241       18.625     1363.860      540.150      346.876        0.345        0.113       68.224       20.235        0.088      341.134       15.637      858.300
06/11/2013  02:18:00      -76.905        6.524       -5.396       31.032       21.054       11.102      962.999      443.261      123.251        0.376        0.076       77.181        9.719        0.016      341.026       15.453      858.315
06/11/2013  02:19:00      -10.791       -0.253       -1.086       27.077       13.217       14.295      733.140      174.697      204.338        0.061        0.056       10.794       12.801        1.406      341.038       15.474      858.302
06/11/2013  02:20:00       32.637       20.723       21.716       14.672       16.360       20.380      215.267      267.653      415.349        0.143        0.045       38.660       14.768        0.146      341.033       15.467      858.285
06/11/2013  02:21:00       33.965       27.021       33.880       31.304       25.761       25.100      979.954      663.641      630.014        0.265        0.114       43.403       22.780        0.275      341.189       15.729      858.276
06/11/2013  02:22:00        5.076       63.878       66.144       19.569       25.444       12.621      382.957      647.410      159.302        0.484        0.059       64.079       11.265        0.031      341.047       15.490      858.274
06/11/2013  02:23:00       21.147       20.820       21.824       21.089       17.441       15.229      444.729      304.204      231.929        0.117        0.049       29.676       12.567        0.179      340.993       15.397      858.288
06/11/2013  02:24:00        7.964       40.318       -2.264       21.167       16.836       11.466      448.031      283.448      131.460        0.128        0.043       41.097       15.212        0.137      341.099       15.576      858.304
06/11/2013  02:25:00      -50.210       64.105      -16.159       17.220       15.223        6.809      296.514      231.742       46.368        0.373        0.029       81.428        5.296        0.004      341.075       15.537      858.325
06/11/2013  02:26:00      -31.405       63.693       -5.119       17.185       17.451       12.906      295.331      304.551      166.565        0.292        0.038       71.014        9.344        0.017      341.052       15.497      858.330
06/11/2013  02:27:00      -26.665       45.689      -11.837       31.188       26.290       11.939      972.722      691.175      142.531        0.237        0.090       52.901        4.209        0.006      341.057       15.505      858.327
06/11/2013  02:28:00      -48.542      -15.541       -8.978       23.106       30.645       19.120      533.902      939.128      365.591        0.226        0.092       50.969       10.896        0.046      341.037       15.473      858.349
06/11/2013  02:29:00      -79.640       16.605      -16.217       36.346       18.256       11.290     1321.022      333.287      127.468        0.433        0.089       81.353        4.086        0.003      340.933       15.296      858.353
06/11/2013  02:30:00     -100.394       36.738      -13.285       42.485       28.272       20.932     1804.980      799.316      438.142        0.732        0.152      106.904       17.794        0.028      340.934       15.297      858.358
06/11/2013  02:31:00      -85.050       14.462       -9.991       45.040       30.338       16.138     2028.573      920.381      260.445        0.538        0.160       86.271       18.735        0.047      340.912       15.260      858.362
06/11/2013  02:32:00      -33.521       -0.453        1.597       19.909       10.867        9.624      396.364      118.092       92.613        0.087        0.030       33.524        8.614        0.066      340.939       15.304      858.328
06/11/2013  02:33:00       -7.723       -7.389       -2.966       11.233       10.760        5.383      126.187      115.770       28.977        0.020        0.014       10.688        4.245        0.158      340.929       15.291      858.304
06/11/2013  02:34:00       -8.039      -38.062      -12.783       14.810       20.619       11.210      219.343      425.133      125.661        0.122        0.039       38.902        6.534        0.028      341.015       15.435      858.346
06/11/2013  02:35:00        7.080      -14.079        6.543       16.425       29.824       28.257      269.779      889.460      798.486        0.112        0.098       15.759       25.296        2.576      341.002       15.414      858.357
06/11/2013  02:36:00        3.061       53.174       64.189       20.926       25.356       15.423      437.903      642.943      237.881        0.414        0.066       53.262       13.396        0.063      340.918       15.270      858.310
06/11/2013  02:37:00       36.029       37.617       30.614       23.221       24.474       22.472      539.220      598.995      504.978        0.265        0.082       52.087       15.078        0.084      340.952       15.327      858.313
06/11/2013  02:38:00       46.729       44.744       36.314       30.605       20.699       27.956      936.666      428.432      781.521        0.383        0.107       64.697       23.154        0.128      341.008       15.422      858.317
06/11/2013  02:39:00        3.005       -3.145       32.542       20.467       35.150       16.428      418.912     1235.505      269.888        0.150        0.096        4.350       18.077       17.271      341.012       15.430      858.363
06/11/2013  02:40:00      -14.586        3.050        8.667       17.691       18.893       14.400      312.973      356.937      207.356        0.059        0.044       14.902       15.639        1.101      340.992       15.394      858.386
06/11/2013  02:41:00      -44.149       -0.925       -6.539       10.433       15.958        9.353      108.848      254.657       87.482        0.122        0.023       44.159        6.854        0.024      340.956       15.334      858.365
06/11/2013  02:42:00      -33.191      -22.269       -2.025       24.033       14.889       17.274      577.566      221.676      298.388        0.135        0.055       39.970       13.170        0.109      340.921       15.275      858.370
06/11/2013  02:43:00      -30.622      -44.911        9.613       38.178       18.974       18.819     1457.567      360.028      354.170        0.261        0.109       54.357       20.223        0.138      340.924       15.280      858.406
06/11/2013  02:44:00      -26.137      -60.248       -3.162       16.410       21.987       10.515      269.295      483.406      110.568        0.259        0.043       65.673        9.941        0.023      341.087       15.556      858.378
06/11/2013  02:45:00       -8.237       -9.853       11.249       21.329       35.708       13.076      454.946     1275.054      170.969        0.110        0.095       12.843       18.731        2.127      341.041       15.477      858.340
06/11/2013  02:46:00        0.828       16.496       -2.403        7.894        9.115        7.021       62.315       83.083       49.288        0.024        0.010       16.517        5.557        0.113      341.028       15.459      858.331
06/11/2013  02:47:00      -29.342       -8.478       -2.012       22.350       16.291        6.839      499.525      265.386       46.774        0.087        0.041       30.543        3.674        0.014      341.080       15.546      858.338
06/11/2013  02:48:00      -93.981      -34.389       -0.067       25.853       21.063       14.628      668.398      443.670      213.987        0.567        0.066      100.075       13.798        0.019      340.977       15.368      858.355
06/11/2013  02:49:00      -59.897       -7.442        4.643       28.392       27.974       13.408      806.078      782.570      179.771        0.272        0.088       60.357       14.313        0.056      340.784       15.044      858.356
06/11/2013  02:50:00      -66.558       21.925       -1.102       31.415       18.817       17.163      986.900      354.087      294.558        0.327        0.082       70.076       11.964        0.029      340.736       14.961      858.323
06/11/2013  02:51:00      -77.386       18.169        0.884       28.874       20.762       16.367      833.695      431.053      267.863        0.393        0.077       79.490       13.866        0.030      340.785       15.044      858.320
06/11/2013  02:52:00      -81.208      -33.139       -9.388       20.597       21.142       12.876      424.241      446.984      165.797        0.441        0.052       87.709        7.936        0.008      340.877       15.200      858.334
06/11/2013  02:53:00      -65.739      -27.329       -6.182       12.528        9.349        8.201      156.940       87.408       67.254        0.271        0.016       71.193        5.561        0.006      340.800       15.071      858.319
06/11/2013  02:54:00      -80.129      -29.933       -5.460       17.553       16.947       12.328      308.118      287.194      151.990        0.405        0.037       85.538       11.348        0.018      340.847       15.151      858.307
06/11/2013  02:55:00      -51.115      -28.804        7.345       28.257       19.038       15.705      798.464      362.460      246.654        0.245        0.070       58.672       14.250        0.059      340.800       15.071      858.286
06/11/2013  02:56:00      -52.762      -12.148       -2.955       24.846       15.950       15.292      617.301      254.395      233.838        0.202        0.055       54.142       13.085        0.058      340.705       14.909      858.272
06/11/2013  02:57:00      -64.076      -29.798       -8.328       18.038       23.057       12.385      325.357      531.633      153.397        0.304        0.051       70.666        6.471        0.008      340.636       14.795      858.257
06/11/2013  02:58:00      -44.483      -37.903       -6.613       30.617       15.380        8.908      937.384      236.548       79.351        0.236        0.063       58.441        7.753        0.018      340.772       15.023      858.257
06/11/2013  02:59:00      -14.044      -36.455        2.334       25.249       28.573       14.428      637.494      816.419      208.176        0.160        0.083       39.067       14.955        0.147      340.868       15.186      858.249
06/11/2013  03:00:00      -12.228      -14.199        8.736       23.676       17.332       13.597      560.541      300.409      184.880        0.074        0.052       18.739       12.692        0.459      340.865       15.179      858.244
06/11/2013  03:01:00        2.507      -22.592       15.424       15.956       19.142       10.996      254.589      366.431      120.908        0.075        0.037       22.731        7.175        0.100      340.926       15.285      858.255
06/11/2013  03:02:00      -14.519      -34.850        7.239       36.798       31.226       21.662     1354.117      975.074      469.256        0.214        0.140       37.753       19.567        0.269      340.921       15.277      858.271
06/11/2013  03:03:00      -26.489      -21.353        9.048       34.506       28.931       15.919     1190.692      836.990      253.407        0.176        0.114       34.024       17.356        0.260      340.863       15.177      858.282
06/11/2013  03:04:00      -55.166      -35.617        5.881       46.665       29.982       20.043     2177.587      898.947      401.720        0.391        0.174       65.665       15.591        0.056      340.833       15.126      858.299
06/11/2013  03:05:00      -74.992      -59.322        4.965       35.205       34.877       23.209     1239.412     1216.401      538.675        0.608        0.150       95.619       16.812        0.031      340.824       15.111      858.317
06/11/2013  03:06:00      -84.364      -72.835        4.667       37.025       30.663       18.668     1370.847      940.228      348.489        0.755        0.133      111.455       19.730        0.031      340.780       15.036      858.336
06/11/2013  03:07:00      -76.471      -50.710        3.689       42.953       36.707       19.883     1844.957     1347.421      395.334        0.601        0.179       91.757       20.898        0.052      340.786       15.047      858.353
06/11/2013  03:08:00      -76.368      -30.014        7.464       36.494       25.091       18.108     1331.797      629.576      327.898        0.454        0.114       82.054       18.651        0.052      340.748       14.982      858.365
06/11/2013  03:09:00      -82.549      -23.966       -6.017       22.425       19.955       13.074      502.858      398.214      170.921        0.425        0.054       85.958       12.234        0.020      340.775       15.029      858.361
06/11/2013  03:10:00      -88.755      -11.847        0.323       40.829       34.300       21.969     1667.002     1176.503      482.658        0.567        0.166       89.542       22.532        0.063      340.602       14.737      858.384
06/11/2013  03:11:00     -101.234       -0.697        3.237       59.541       43.427       28.652     3545.097     1885.947      820.940        0.825        0.313      101.236       35.770        0.125      340.511       14.580      858.404
06/11/2013  03:12:00      -86.867       40.002       -6.084       53.049       35.572       26.211     2814.181     1265.368      687.015        0.697        0.238       95.635       25.520        0.071      340.442       14.467      858.396
06/11/2013  03:13:00      -84.877        2.669        2.527       54.152       46.077       24.543     2932.485     2123.065      602.336        0.644        0.283       84.919       27.109        0.102      340.419       14.426      858.416
06/11/2013  03:14:00     -166.938       20.148      -22.165       25.067       25.720       17.845      628.346      661.538      318.439        1.519        0.080      168.149       13.914        0.007      340.312       14.245      858.440
06/11/2013  03:15:00      -81.264      -21.072       -5.725       29.855       31.189       18.165      891.314      972.740      329.970        0.464        0.110       83.952       17.476        0.043      340.304       14.230      858.454
06/11/2013  03:16:00      -92.726      -35.727       -5.072       30.819       23.115       13.493      949.816      534.287      182.070        0.578        0.083       99.370       10.971        0.012      340.363       14.333      858.476
06/11/2013  03:17:00      -19.789      -46.063       -1.479       20.739       12.415       11.749      430.113      154.142      138.041        0.162        0.036       50.134        3.627        0.005      340.468       14.510      858.472
06/11/2013  03:18:00      -23.124      -64.555       -8.870       26.473       19.110       11.091      700.808      365.190      123.020        0.298        0.059       68.572       12.428        0.033      340.607       14.744      858.493
06/11/2013  03:19:00      -43.245      -51.063       -1.586       31.174       33.817       21.852      971.837     1143.583      477.512        0.354        0.130       66.915       23.572        0.124      340.620       14.764      858.505
06/11/2013  03:20:00       -9.421      -29.600        8.229       25.337       26.871       13.988      641.972      722.029      195.669        0.130        0.078       31.063       15.992        0.265      340.648       14.815      858.501
06/11/2013  03:21:00        0.324       -4.482       10.672       10.659       12.692        9.104      113.617      161.093       82.883        0.025        0.018        4.494        4.953        1.215      340.644       14.809      858.481
06/11/2013  03:22:00        0.608       -3.591        3.558        9.797        9.060        7.834       95.977       82.081       61.367        0.013        0.012        3.642        4.719        1.678      340.637       14.797      858.465
06/11/2013  03:23:00       -7.653       -6.146       -0.159       10.934       12.299        7.925      119.549      151.263       62.813        0.021        0.017        9.815        6.134        0.391      340.644       14.807      858.469
06/11/2013  03:24:00      -14.875        4.678        2.206       11.582        9.912        6.715      134.153       98.245       45.089        0.026        0.014       15.593        5.704        0.134      340.654       14.823      858.475
06/11/2013  03:25:00       -6.168       19.834       11.515        9.106       10.775        9.425       82.912      116.110       88.834        0.043        0.014       20.770        5.825        0.079      340.616       14.759      858.458
06/11/2013  03:26:00      -32.548       20.067        5.765       22.074       16.481       12.183      487.281      271.618      148.428        0.120        0.045       38.237       12.100        0.100      340.524       14.605      858.420
06/11/2013  03:27:00      -92.298       12.360       -7.954       45.013       18.773       13.315     2026.198      352.431      177.284        0.564        0.128       93.122       17.026        0.033      340.493       14.551      858.396
06/11/2013  03:28:00      -97.554      -27.823       -7.296       26.372       21.717       10.616      695.505      471.644      112.706        0.581        0.064      101.444        6.172        0.004      340.514       14.586      858.371
06/11/2013  03:29:00      -85.045      -10.854       -0.015       30.192       18.920       14.444      911.554      357.958      208.635        0.441        0.074       85.734       14.849        0.030      340.474       14.520      858.348
06/11/2013  03:30:00      -44.600      -19.640       -2.615       25.396       13.374       10.951      644.959      178.870      119.930        0.166        0.047       48.733        8.056        0.027      340.494       14.553      858.325
06/11/2013  03:31:00      -87.018      -43.971       -0.579       29.338       27.067       13.247      860.731      732.606      175.496        0.564        0.088       97.497       11.339        0.014      340.566       14.675      858.333
06/11/2013  03:32:00      -77.058      -37.747       -0.894       23.444       19.099       14.844      549.622      364.779      220.348        0.425        0.057       85.806       10.227        0.014      340.545       14.640      858.333
06/11/2013  03:33:00      -41.002       -3.882       -3.823       16.847       21.735        9.406      283.836      472.396       88.477        0.128        0.042       41.185        7.975        0.037      340.496       14.557      858.319
06/11/2013  03:34:00      -74.231       -6.977       -9.975       20.600       16.500       11.219      424.346      272.244      125.869        0.324        0.041       74.558        7.898        0.011      340.558       14.661      858.322
06/11/2013  03:35:00     -129.399      -58.873       -9.175       14.940       15.232       11.050      223.200      232.027      122.099        1.044        0.029      142.162        4.773        0.001      340.575       14.692      858.336
06/11/2013  03:36:00     -115.590      -64.189       -5.456       23.863       20.532       14.455      569.425      421.573      208.952        0.936        0.060      132.217        6.043        0.002      340.535       14.624      858.363
06/11/2013  03:37:00     -141.752      -55.995       -4.140       23.484       18.756       15.025      551.494      351.805      225.744        1.219        0.056      152.411       12.388        0.007      340.547       14.642      858.371
06/11/2013  03:38:00     -107.160      -31.968        0.164       38.463       36.961       18.959     1479.415     1366.109      359.453        0.785        0.160      111.827       18.936        0.029      340.578       14.694      858.370
06/11/2013  03:39:00      -74.972      -16.971       -9.249       29.738       29.332       15.280      884.357      860.385      233.466        0.399        0.099       76.868        9.523        0.015      340.489       14.544      858.355
06/11/2013  03:40:00      -65.174       16.468       -6.294       31.783       18.606       19.419     1010.154      346.186      377.108        0.315        0.087       67.222       14.398        0.046      340.312       14.246      858.343
06/11/2013  03:41:00     -105.975       -5.080       -6.424       39.297       30.789       15.820     1544.247      947.973      250.259        0.702        0.137      106.097       14.785        0.019      340.450       14.479      858.345
06/11/2013  03:42:00      -98.921      -33.824       -0.938       31.713       29.473       18.867     1005.688      868.655      355.976        0.658        0.112      104.544       18.801        0.032      340.415       14.420      858.338
06/11/2013  03:43:00      -95.175      -44.364       -3.377       34.052       32.703       14.714     1159.550     1069.468      216.501        0.674        0.122      105.007       17.486        0.028      340.401       14.397      858.328
06/11/2013  03:44:00      -84.197      -29.097       -3.988       13.483       17.249        9.024      181.803      297.519       81.427        0.426        0.028       89.083        7.780        0.008      340.448       14.475      858.312
06/11/2013  03:45:00      -62.907      -36.705       -1.065       20.839       21.466       11.989      434.283      460.800      143.731        0.317        0.052       72.833        9.141        0.016      340.521       14.599      858.297
06/11/2013  03:46:00      -84.996       11.144       -8.487       22.244       19.216       12.147      494.800      369.244      147.558        0.422        0.051       85.724        9.063        0.011      340.478       14.525      858.297
06/11/2013  03:47:00      -75.805       29.445       -5.601       37.538       22.574       16.689     1409.133      509.587      278.518        0.442        0.110       81.322       16.683        0.042      340.434       14.453      858.268
06/11/2013  03:48:00      -72.163       69.334       -8.037       25.496       34.749       21.737      650.057     1207.499      472.502        0.620        0.117      100.074       20.624        0.042      340.536       14.623      858.225
06/11/2013  03:49:00      -63.127       22.036       -3.876       28.228       19.058       16.838      796.793      363.221      283.509        0.296        0.072       66.863       11.793        0.031      340.629       14.782      858.197
06/11/2013  03:50:00      -70.748       20.483       -4.246       36.583       35.527       19.980     1338.296     1262.150      399.190        0.422        0.150       73.653       13.684        0.035      340.527       14.610      858.196
06/11/2013  03:51:00     -117.374       20.212      -14.548       44.189       28.835       20.538     1952.642      831.482      421.802        0.880        0.160      119.102       23.041        0.037      340.520       14.597      858.216
06/11/2013  03:52:00     -130.188      -27.958      -11.015       27.282       46.360       15.858      744.296     2149.268      251.492        1.050        0.157      133.156       19.672        0.022      340.519       14.595      858.238
06/11/2013  03:53:00      -95.485      -16.764      -12.735       18.644       17.017       13.362      347.597      289.575      178.546        0.519        0.041       96.945        9.488        0.010      340.433       14.449      858.244
06/11/2013  03:54:00      -63.353      -20.159       -1.157       23.640       17.167       13.289      558.850      294.696      176.586        0.273        0.052       66.482       13.999        0.044      340.507       14.576      858.239
06/11/2013  03:55:00      -59.724      -23.869       -9.800       28.249       17.444       10.888      798.007      304.302      118.551        0.273        0.061       64.317        9.593        0.022      340.603       14.738      858.267
06/11/2013  03:56:00     -108.361      -52.985      -11.121       28.845       19.607       13.534      832.041      384.426      183.170        0.804        0.070      120.621        5.947        0.002      340.571       14.684      858.293
06/11/2013  03:57:00     -167.329      -72.503      -14.105       28.264       32.989       17.911      798.841     1088.306      320.791        1.783        0.110      182.361        9.362        0.003      340.493       14.552      858.329
06/11/2013  03:58:00     -210.104        3.551      -21.828       44.440       37.182       28.928     1974.916     1382.492      836.839        2.441        0.210      210.134       22.548        0.012      340.399       14.390      858.368
06/11/2013  03:59:00     -206.078       -5.292      -12.945       45.197       29.139       24.154     2042.749      849.082      583.432        2.307        0.174      206.146       22.701        0.012      340.403       14.398      858.388
06/11/2013  04:00:00     -124.540      -25.575       -3.233       67.480       29.785       28.260     4553.593      887.125      798.631        1.121        0.312      127.139       35.136        0.076      340.435       14.454      858.422
06/11/2013  04:01:00      -48.964      -38.306        2.526       43.701       34.017       21.787     1909.807     1157.135      474.672        0.371        0.177       62.168       18.222        0.086      340.437       14.455      858.452
06/11/2013  04:02:00      -50.972      -28.757        3.798       35.070       22.820       21.195     1229.902      520.743      449.245        0.282        0.110       58.525       21.578        0.136      340.513       14.586      858.470
06/11/2013  04:03:00      -98.806      -60.675        0.587       53.238       35.426       30.864     2834.324     1254.994      952.580        0.924        0.252      115.949       27.625        0.057      340.578       14.694      858.472
06/11/2013  04:04:00      -95.866      -51.460        4.789       56.468       36.271       29.746     3188.591     1315.565      884.825        0.862        0.269      108.804       33.560        0.095      340.527       14.610      858.477
06/11/2013  04:05:00      -92.145      -64.566        6.204       37.951       32.052       20.831     1440.288     1027.308      433.936        0.780        0.145      112.514       19.159        0.029      340.532       14.616      858.484
06/11/2013  04:06:00      -52.623      -52.821       -1.297       36.329       26.336       23.761     1319.784      693.575      564.566        0.407        0.129       74.560       20.631        0.077      340.595       14.725      858.494
06/11/2013  04:07:00      -73.040      -55.378        7.205       47.439       31.746       22.639     2250.412     1007.806      512.511        0.611        0.189       91.660       23.920        0.068      340.594       14.722      858.497
06/11/2013  04:08:00      -72.555      -44.883        9.007       47.516       32.103       21.374     2257.792     1030.607      456.842        0.555        0.187       85.315       23.964        0.079      340.588       14.713      858.498
06/11/2013  04:09:00     -105.456      -56.545       -4.964       25.999       31.607       18.842      675.946      999.011      355.030        0.819        0.101      119.659       17.163        0.021      340.603       14.738      858.496
06/11/2013  04:10:00     -100.865      -50.967       -5.213       19.496       20.010       11.135      380.083      400.396      123.984        0.685        0.045      113.011        6.341        0.003      340.641       14.802      858.466
06/11/2013  04:11:00      -72.470      -21.259       -4.846       25.529       23.912       14.063      651.729      571.762      197.776        0.357        0.071       75.524       14.372        0.036      340.622       14.770      858.427
06/11/2013  04:12:00      -69.449      -60.961       -8.010       16.244       17.127       14.057      263.863      293.332      197.603        0.468        0.038       92.409        9.131        0.010      340.774       15.027      858.420
06/11/2013  04:13:00      -88.898      -54.190        0.101       38.379       23.876       20.344     1472.962      570.056      413.882        0.665        0.123      104.113       22.725        0.048      340.634       14.790      858.433
06/11/2013  04:14:00      -73.920      -48.329        5.416       40.343       30.160       22.039     1627.586      909.618      485.718        0.543        0.151       88.317       20.985        0.056      340.567       14.678      858.448
06/11/2013  04:15:00      -70.909      -48.849        4.802       26.658       23.086       17.337      710.631      532.956      300.569        0.449        0.077       86.107       15.926        0.034      340.556       14.658      858.450
06/11/2013  04:16:00      -39.231      -51.970       -6.005       51.338       27.512       17.930     2635.619      756.912      321.499        0.399        0.186       65.114       21.023        0.104      340.653       14.822      858.453
06/11/2013  04:17:00      -37.164      -64.727       -2.850       31.510       25.991       13.903      992.889      675.535      193.281        0.372        0.093       74.637       12.323        0.027      340.638       14.797      858.462
06/11/2013  04:18:00      -50.336      -44.351        1.326       24.653       18.432       13.479      607.790      339.750      181.681        0.282        0.056       67.088       11.523        0.029      340.638       14.795      858.470
06/11/2013  04:19:00      -29.143      -51.185       -5.836       23.883       30.995       15.587      570.413      960.708      242.969        0.264        0.089       58.901        8.146        0.019      340.679       14.866      858.482
06/11/2013  04:20:00      -19.388      -26.403        2.353       22.882       15.555       16.515      523.581      241.971      272.751        0.106        0.052       32.757        8.969        0.075      340.651       14.820      858.517
06/11/2013  04:21:00      -44.841      -41.353        6.963       33.464       22.855       17.838     1119.825      522.357      318.205        0.286        0.098       60.998       15.577        0.065      340.610       14.750      858.552
06/11/2013  04:22:00      -83.378      -69.643        4.697       57.429       42.441       27.690     3298.146     1801.216      766.717        0.884        0.293      108.637       32.422        0.089      340.437       14.457      858.571
06/11/2013  04:23:00     -140.213     -114.634      -11.044       45.002       47.369       32.004     2025.140     2243.817     1024.239        1.911        0.265      181.109       29.282        0.026      340.449       14.475      858.555
06/11/2013  04:24:00     -119.602      -75.903       -2.799       28.381       29.687       19.208      805.499      881.298      368.965        1.106        0.103      141.655       14.403        0.010      340.493       14.553      858.529
06/11/2013  04:25:00      -82.175      -28.919        4.267       45.163       20.479       19.505     2039.699      419.382      380.448        0.522        0.142       87.115       21.566        0.061      340.424       14.433      858.502
06/11/2013  04:26:00      -21.784      -32.383       11.424       29.956       25.958       15.290      897.381      673.796      233.788        0.173        0.090       39.028       14.829        0.144      340.591       14.719      858.485
06/11/2013  04:27:00      -72.875      -61.374       -5.669       18.021       20.848       15.904      324.772      434.622      252.952        0.506        0.051       95.276       11.255        0.014      340.627       14.778      858.482
06/11/2013  04:28:00      -94.895      -53.478        1.681       36.035       24.219       17.065     1298.533      586.567      291.216        0.702        0.109      108.926        8.016        0.005      340.509       14.578      858.509
06/11/2013  04:29:00      -74.592      -41.040        4.926       36.418       26.245       21.720     1326.306      688.820      471.769        0.488        0.124       85.137       20.669        0.059      340.428       14.441      858.548
06/11/2013  04:30:00      -45.917      -25.858        5.955       28.187       23.707       15.667      794.481      562.035      245.465        0.221        0.080       52.698       14.777        0.079      340.394       14.383      858.572
06/11/2013  04:31:00      -57.693      -22.129       -4.836       37.890       17.424       16.648     1435.688      303.578      277.142        0.293        0.101       61.791       18.919        0.094      340.377       14.356      858.592
06/11/2013  04:32:00      -91.764      -34.679       -6.406       16.703       16.592       12.614      278.996      275.304      159.123        0.519        0.036       98.098        8.613        0.008      340.357       14.323      858.604
06/11/2013  04:33:00     -106.042      -37.872       -3.960       27.511       23.901       13.736      756.859      571.270      188.664        0.711        0.076      112.602       12.729        0.013      340.376       14.355      858.600
06/11/2013  04:34:00      -78.888      -23.386       -1.596       29.180       19.654       18.144      851.501      386.273      329.188        0.417        0.078       82.282       17.173        0.044      340.275       14.182      858.583
06/11/2013  04:35:00      -70.829      -28.990        3.471       36.296       31.454       19.405     1317.385      989.373      376.556        0.428        0.134       76.532       19.027        0.062      340.324       14.264      858.571
06/11/2013  04:36:00      -30.611      -26.143        4.587       24.264       19.031       15.597      588.750      362.170      243.270        0.142        0.060       40.255        9.090        0.051      340.519       14.597      858.565
06/11/2013  04:37:00      -63.308      -31.356        2.828       25.967       20.001       11.630      674.298      400.031      135.248        0.310        0.060       70.648       11.883        0.028      340.431       14.445      858.577
06/11/2013  04:38:00      -80.691      -23.180        2.293       16.682       17.755       15.258      278.304      315.244      232.810        0.394        0.041       83.954       10.687        0.016      340.338       14.291      858.588
06/11/2013  04:39:00      -27.225      -14.711        6.210       23.974       19.630       11.141      574.732      385.329      124.116        0.104        0.054       30.945        9.793        0.100      340.266       14.168      858.575
06/11/2013  04:40:00      -27.106       17.846       -2.846       12.081       14.191        7.847      145.952      201.395       61.571        0.074        0.020       32.453        7.738        0.057      340.307       14.237      858.560
06/11/2013  04:41:00      -41.822       37.236       -7.590       11.446       15.314        9.995      131.011      234.517       99.908        0.183        0.023       55.997        5.942        0.011      340.303       14.230      858.563
06/11/2013  04:42:00      -36.228       33.564       -2.908       10.199       14.320        8.279      104.026      205.063       68.544        0.141        0.019       49.386        4.348        0.008      340.336       14.286      858.577
06/11/2013  04:43:00      -30.315       24.719       -2.913       17.939       15.147        9.123      321.823      229.425       83.227        0.109        0.032       39.116        9.678        0.061      340.218       14.086      858.588
06/11/2013  04:44:00      -42.498       -6.622       -2.326        8.183       12.759        5.974       66.962      162.804       35.688        0.106        0.013       43.011        5.239        0.015      340.252       14.144      858.621
06/11/2013  04:45:00      -55.780      -10.143       -2.819       10.841        9.390        7.560      117.518       88.172       57.154        0.174        0.013       56.694        3.210        0.003      340.211       14.072      858.644
06/11/2013  04:46:00      -89.377        1.757      -10.061       15.980        8.746        8.306      255.367       76.501       68.988        0.425        0.020       89.394        8.824        0.010      340.179       14.019      858.643
06/11/2013  04:47:00      -98.702      -11.816       -7.839       29.997       23.249       14.457      899.850      540.512      208.997        0.580        0.082       99.407       15.232        0.023      340.073       13.841      858.655
06/11/2013  04:48:00      -72.259      -23.661       -4.704       24.385       20.672       12.664      594.616      427.328      160.389        0.349        0.059       76.034       10.274        0.018      339.962       13.654      858.671
06/11/2013  04:49:00     -101.522      -60.089       -3.817       19.928       25.653       13.384      397.133      658.092      179.123        0.758        0.062      117.972       10.317        0.008      339.890       13.534      858.686
06/11/2013  04:50:00      -98.499      -12.408       -7.582       27.869       28.279       17.705      776.695      799.717      313.472        0.590        0.094       99.278       13.498        0.018      339.848       13.464      858.705
06/11/2013  04:51:00     -123.370        6.632      -18.074       25.981       29.025       17.628      675.038      842.423      310.735        0.871        0.091      123.548       15.003        0.015      340.026       13.763      858.729
06/11/2013  04:52:00     -107.946       16.487       -6.516       27.217       20.455       16.043      740.785      418.398      257.383        0.669        0.071      109.197       11.693        0.011      340.064       13.827      858.738
06/11/2013  04:53:00      -83.407        4.609       -9.629       24.499       21.234       13.134      600.192      450.896      172.512        0.415        0.061       83.534        8.864        0.011      340.016       13.747      858.745
06/11/2013  04:54:00      -46.914      -24.488       -5.107       53.405       26.056       22.834     2852.065      678.932      521.408        0.344        0.203       52.920       24.787        0.219      339.968       13.664      858.756
06/11/2013  04:55:00      -39.619      -34.287       -4.936       43.867       28.807       18.539     1924.312      829.850      343.713        0.293        0.155       52.395       17.699        0.114      339.882       13.521      858.770
06/11/2013  04:56:00      -45.586      -33.383       -1.320       23.726       30.495       11.140      562.910      929.919      124.108        0.241        0.081       56.502       11.215        0.039      339.836       13.442      858.765
06/11/2013  04:57:00      -51.582      -11.273        2.971       20.576       16.091       12.044      423.366      258.929      145.050        0.181        0.041       52.799        9.737        0.034      339.810       13.399      858.745
06/11/2013  04:58:00      -46.075      -31.164       -6.295       15.625        9.749        7.172      244.131       95.039       51.431        0.176        0.020       55.625        7.573        0.019      339.982       13.690      858.747
06/11/2013  04:59:00      -45.744      -32.026       -1.157       15.161       13.601        7.752      229.845      184.986       60.101        0.180        0.024       55.841        6.809        0.015      340.093       13.875      858.768
06/11/2013  05:00:00      -58.929      -13.757       -5.027       11.575       13.129        9.596      133.970      172.383       92.081        0.204        0.020       60.513        6.792        0.013      340.061       13.822      858.768
06/11/2013  05:01:00      -81.538      -17.204       -9.723       13.578       17.465       14.463      184.357      305.042      209.192        0.387        0.035       83.333       10.405        0.016      339.936       13.611      858.757
06/11/2013  05:02:00      -71.332      -49.307      -15.057       31.773       22.876       16.654     1009.532      523.307      277.362        0.478        0.091       86.715       12.716        0.022      339.873       13.507      858.780
06/11/2013  05:03:00      -52.994      -37.934      -13.257       23.285       19.568       12.697      542.195      382.890      161.201        0.275        0.054       65.172        8.791        0.018      339.818       13.413      858.803
06/11/2013  05:04:00      -71.767      -23.923       -9.135       19.801       14.721       11.295      392.061      216.708      127.575        0.327        0.037       75.650        7.617        0.010      339.754       13.305      858.786
06/11/2013  05:05:00      -83.427      -45.151      -11.053       18.937       20.802       17.026      358.604      432.731      289.889        0.510        0.054       94.861        8.064        0.007      339.763       13.320      858.752
06/11/2013  05:06:00     -117.704      -17.297       -5.903       61.103       44.169       29.286     3733.541     1950.885      857.680        1.036        0.327      118.968       31.688        0.071      339.752       13.302      858.750
06/11/2013  05:07:00     -138.782        7.607       -7.241       58.894       36.571       27.933     3468.470     1337.470      780.242        1.248        0.279      138.990       27.519        0.039      339.730       13.264      858.769
06/11/2013  05:08:00     -149.294      -13.468       -6.405       62.859       55.350       38.542     3951.240     3063.657     1485.473        1.550        0.425      149.900       35.680        0.057      339.762       13.318      858.779
06/11/2013  05:09:00      -95.282       -2.525      -18.168       44.776       26.335       23.556     2004.888      693.522      554.891        0.633        0.163       95.315       18.818        0.039      339.694       13.205      858.779
06/11/2013  05:10:00      -54.046        1.471       -6.889       23.688       24.617       16.403      561.124      605.985      269.064        0.220        0.072       54.066       13.550        0.063      339.748       13.294      858.774
06/11/2013  05:11:00      -87.098       -5.768       -8.710       33.573       17.695       17.136     1127.144      313.121      293.653        0.471        0.087       87.289       19.123        0.048      339.717       13.241      858.768
06/11/2013  05:12:00     -107.737      -34.287      -10.845       34.577       44.846       21.158     1195.545     2011.171      447.668        0.828        0.183      113.061       13.342        0.014      339.741       13.283      858.765
06/11/2013  05:13:00     -106.425      -29.902       -2.842       51.011       44.789       26.602     2602.139     2006.033      707.665        0.877        0.266      110.546       27.563        0.062      339.638       13.109      858.764
06/11/2013  05:14:00     -105.964      -54.357      -10.809       26.085       32.059       21.183      680.417     1027.790      448.708        0.823        0.108      119.093       15.458        0.017      339.650       13.128      858.762
06/11/2013  05:15:00      -50.254      -16.236       -3.481       36.749       32.215       18.141     1350.457     1037.828      329.097        0.276        0.136       52.812        6.066        0.013      339.648       13.125      858.761
06/11/2013  05:16:00     -116.898      -17.909       -9.335       20.961       28.674       20.738      439.366      822.187      430.057        0.788        0.085      118.262       11.524        0.009      339.720       13.248      858.783
06/11/2013  05:17:00      -80.737        5.872       -4.158       39.636       20.437       18.919     1571.023      417.686      357.936        0.446        0.117       80.950       17.199        0.045      339.730       13.264      858.785
06/11/2013  05:18:00      -41.437      -31.498        2.092       30.496       24.543       17.878      930.027      602.383      319.639        0.228        0.093       52.050       20.292        0.152      339.794       13.373      858.794
06/11/2013  05:19:00     -118.613      -58.618       -3.709       43.997       26.692       18.844     1935.697      712.462      355.095        1.026        0.150      132.307       23.637        0.032      339.756       13.307      858.835
06/11/2013  05:20:00     -136.717      -76.110      -10.249       44.570       23.590       24.678     1986.500      556.509      608.982        1.387        0.158      156.474       25.959        0.028      339.659       13.144      858.872
06/11/2013  05:21:00     -147.288      -44.872       -5.030       56.728       51.999       26.597     3218.119     2703.846      707.416        1.518        0.331      153.972       29.765        0.037      339.618       13.074      858.877
06/11/2013  05:22:00     -175.499        1.649      -24.798       38.417       28.056       23.647     1475.851      787.136      559.195        1.712        0.141      175.507       21.220        0.015      339.578       13.006      858.872
06/11/2013  05:23:00     -161.057      -20.137      -21.592       48.994       31.626       24.529     2400.368     1000.224      601.656        1.541        0.200      162.311       22.236        0.019      339.550       12.959      858.863
06/11/2013  05:24:00     -123.009      -29.573      -13.975       43.080       39.134       22.657     1855.897     1531.487      513.332        1.005        0.195      126.514       21.565        0.029      339.540       12.944      858.901
06/11/2013  05:25:00     -167.532       -4.388      -13.905       53.178       43.105       27.939     2827.921     1858.056      780.573        1.687        0.273      167.590       32.620        0.038      339.640       13.112      858.943
06/11/2013  05:26:00     -133.557       18.019      -14.417       41.754       37.786       24.251     1743.382     1427.747      588.123        1.106        0.188      134.767       15.539        0.013      339.707       13.224      858.956
06/11/2013  05:27:00     -103.903       28.271      -11.765       35.267       26.644       21.269     1243.777      709.908      452.354        0.707        0.120      107.680       15.866        0.022      339.718       13.243      858.945
06/11/2013  05:28:00     -124.681      -15.463      -14.247       27.660       29.952       17.359      765.056      897.152      301.335        0.898        0.098      125.636       13.882        0.012      339.787       13.359      858.939
06/11/2013  05:29:00     -109.204       -9.435       -2.958       28.366       25.661       23.510      804.617      658.476      552.698        0.702        0.101      109.611       18.437        0.028      339.718       13.244      858.933
06/11/2013  05:30:00     -124.215       20.488      -12.571       51.003       35.394       21.291     2601.326     1252.723      453.290        1.016        0.215      125.893       16.852        0.018      339.757       13.311      858.913
06/11/2013  05:31:00     -161.504       27.652      -16.242       46.109       31.368       20.492     2126.066      983.934      419.908        1.532        0.176      163.855       19.439        0.014      339.840       13.447      858.897
06/11/2013  05:32:00     -131.256        1.545      -10.672       28.943       32.832       20.131      837.679     1077.912      405.270        0.983        0.116      131.265       11.199        0.007      339.766       13.325      858.887
06/11/2013  05:33:00     -147.652      -55.744      -18.597       27.947       32.477       24.756      781.027     1054.759      612.835        1.385        0.122      157.824        6.896        0.002      339.740       13.282      858.884
06/11/2013  05:34:00     -154.580      -12.268      -21.245       47.830       56.166       34.145     2287.671     3154.637     1165.869        1.555        0.330      155.066       29.959        0.037      339.738       13.277      858.900
06/11/2013  05:35:00     -182.923      -75.896      -18.748       56.525       42.498       22.554     3195.033     1806.078      508.662        2.254        0.275      198.043       16.883        0.007      339.712       13.233      858.933
06/11/2013  05:36:00     -121.643      -54.893      -17.730       65.631       42.810       32.737     4307.380     1832.700     1071.702        1.267        0.361      133.455       24.933        0.035      339.782       13.352      858.974
06/11/2013  05:37:00     -113.556      -28.703       -0.965       58.122       49.212       30.950     3378.156     2421.825      957.931        1.024        0.338      117.127       32.060        0.075      339.732       13.267      859.012
06/11/2013  05:38:00      -90.235      -37.697       -3.416       51.863       33.251       23.297     2689.783     1105.638      542.736        0.696        0.217       97.792       25.339        0.067      339.721       13.249      859.038
06/11/2013  05:39:00      -91.707      -16.468       -1.451       47.432       28.168       27.354     2249.761      793.412      748.228        0.624        0.190       93.174       25.733        0.076      339.927       13.597      859.027
06/11/2013  05:40:00     -107.982       -3.502       -3.691       50.080       40.259       26.827     2508.025     1620.806      719.661        0.827        0.242      108.039       26.707        0.061      339.967       13.663      859.033
06/11/2013  05:41:00     -128.040      -16.445      -13.426       64.279       57.456       28.185     4131.728     3301.202      794.408        1.253        0.411      129.092       31.150        0.058      339.933       13.606      859.056
06/11/2013  05:42:00     -136.683      -15.505       -6.072       37.687       48.233       31.173     1420.328     2326.467      971.732        1.184        0.236      137.560       19.689        0.020      339.947       13.630      859.073
06/11/2013  05:43:00     -106.754      -28.323       -3.072       53.808       55.981       28.980     2895.342     3133.875      839.842        0.954        0.343      110.447       28.834        0.068      339.747       13.293      859.073
06/11/2013  05:44:00     -116.220       18.220       -6.454       32.232       41.619       25.760     1038.890     1732.110      663.561        0.866        0.172      117.640       14.992        0.016      339.959       13.649      859.056
06/11/2013  05:45:00      -89.135       26.041      -11.697       34.633       40.993       22.969     1199.418     1680.418      527.588        0.608        0.170       92.861       15.162        0.027      340.076       13.846      859.041
06/11/2013  05:46:00     -131.801       62.253      -18.590       31.154       55.372       24.426      970.601     3066.074      596.629        1.311        0.232      145.763       18.940        0.017      340.102       13.892      859.018
06/11/2013  05:47:00     -157.319       37.317      -16.961       47.824       37.664       28.363     2287.160     1418.596      804.482        1.547        0.226      161.684       20.823        0.017      340.357       14.320      859.007
06/11/2013  05:48:00     -129.012      -31.321       -9.094       45.071       35.371       29.698     2031.426     1251.075      881.962        1.094        0.208      132.759       26.855        0.041      340.094       13.877      859.019
06/11/2013  05:49:00     -132.310      -17.912      -12.071       44.058       34.309       24.772     1941.089     1177.074      613.630        1.085        0.187      133.517       19.922        0.022      339.982       13.686      859.051
06/11/2013  05:50:00     -137.087      -27.461       -7.713       45.975       42.789       26.891     2113.682     1830.890      723.125        1.214        0.233      139.811       24.062        0.030      339.799       13.381      859.049
06/11/2013  05:51:00     -130.768        3.213       -8.656       55.382       36.055       28.575     3067.184     1299.975      816.516        1.118        0.259      130.807       27.760        0.045      340.052       13.808      859.033
06/11/2013  05:52:00      -89.561        4.016       -0.556       47.787       36.426       29.466     2283.605     1326.848      868.240        0.626        0.224       89.651       24.043        0.072      340.033       13.774      859.034
06/11/2013  05:53:00      -92.547      -21.131       -7.118       54.067       34.525       25.058     2923.239     1191.991      627.879        0.690        0.237       94.929       22.725        0.057      339.999       13.718      859.056
06/11/2013  05:54:00      -84.136      -16.711       -9.621       44.386       33.254       20.661     1970.098     1105.857      426.861        0.548        0.175       85.779       10.042        0.014      340.094       13.877      859.041
06/11/2013  05:55:00      -50.884       12.801        0.063       31.188       36.939       23.197      972.688     1364.498      538.117        0.281        0.144       52.469       10.483        0.040      340.192       14.044      859.016
06/11/2013  05:56:00     -101.257        9.492       -2.450       35.314       34.868       24.611     1247.097     1215.754      605.686        0.671        0.153      101.701       20.894        0.042      340.440       14.463      859.007
06/11/2013  05:57:00     -108.757      -12.247       -1.237       34.571       36.865       27.866     1195.126     1359.023      776.494        0.765        0.167      109.445       21.897        0.040      340.131       13.940      859.006
06/11/2013  05:58:00     -101.255      -21.919       -7.491       44.065       33.062       24.955     1941.730     1093.126      622.733        0.722        0.183      103.600       23.288        0.051      340.130       13.939      859.014
06/11/2013  05:59:00      -68.060      -58.595        8.678       38.790       42.739       28.716     1504.672     1826.648      824.588        0.615        0.208       89.808       23.251        0.067      339.893       13.538      859.034
06/11/2013  06:00:00     -130.852      -40.671       -4.449       40.898       38.828       18.679     1672.613     1507.587      348.909        1.116        0.176      137.027       15.462        0.013      339.869       13.497      859.058
06/11/2013  06:01:00     -132.283      -47.279       -7.533       40.354       30.170       25.289     1628.407      910.227      639.520        1.148        0.159      140.478       19.696        0.020      339.809       13.398      859.074
06/11/2013  06:02:00      -72.425        0.102        4.120       52.184       40.362       28.245     2723.120     1629.061      797.780        0.521        0.257       72.425       24.438        0.114      340.027       13.764      859.073
06/11/2013  06:03:00     -110.743       50.324      -27.220       43.400       40.588       26.785     1883.538     1647.378      717.429        0.989        0.212      121.641       16.159        0.018      340.141       13.956      859.062
06/11/2013  06:04:00      -63.283       24.815       -1.396       41.931       34.537       22.216     1758.180     1192.838      493.559        0.403        0.172       67.974       19.018        0.078      340.227       14.101      859.048
06/11/2013  06:05:00      -48.235       46.878      -10.781       31.880       31.995       21.678     1016.338     1023.708      469.919        0.357        0.125       67.262       17.481        0.068      340.392       14.380      859.043
06/11/2013  06:06:00        4.467      -15.586       -5.492       24.513       29.713       16.947      600.894      882.834      287.216        0.103        0.089       16.213       16.099        0.986      340.356       14.321      859.059
06/11/2013  06:07:00       17.784      -20.712       17.035       28.638       21.688       24.243      820.131      470.380      587.744        0.146        0.094       27.300       11.153        0.167      340.129       13.937      859.087
06/11/2013  06:08:00      -49.540      -35.526        3.414       24.510       18.771       12.812      600.721      352.353      164.138        0.242        0.056       60.961       11.672        0.037      340.025       13.761      859.106
06/11/2013  06:09:00      -26.872       -5.209       11.261       19.729       22.534       11.263      389.228      507.804      126.862        0.095        0.051       27.373       15.891        0.337      340.154       13.979      859.118
06/11/2013  06:10:00       52.866       26.635        7.814       33.336       14.410       18.101     1111.315      207.638      327.631        0.261        0.082       59.196       16.125        0.074      340.241       14.125      859.111
06/11/2013  06:11:00      100.844       65.478       -1.076       24.841       26.009       24.635      617.081      676.477      606.867        0.818        0.095      120.237       10.779        0.008      340.211       14.074      859.113
06/11/2013  06:12:00      118.142       73.870        1.913       29.919       28.832       30.173      895.131      831.295      910.397        1.103        0.132      139.335       12.475        0.008      339.981       13.687      859.114
06/11/2013  06:13:00       84.033       54.494        3.307       23.331       24.519       22.068      544.355      601.171      486.986        0.584        0.082      100.155       13.400        0.018      339.929       13.599      859.109
06/11/2013  06:14:00       48.387       41.600        4.950       33.432       25.937       16.137     1117.687      672.720      260.404        0.307        0.103       63.811       10.526        0.027      339.983       13.691      859.076
06/11/2013  06:15:00       70.292       49.402       10.810       35.585       31.041       31.046     1266.288      963.535      963.835        0.535        0.160       85.915       18.412        0.046      340.158       13.986      859.032
06/11/2013  06:16:00       76.192       60.536       14.648       47.634       30.675       24.570     2268.987      940.967      603.678        0.675        0.191       97.313       13.153        0.018      340.212       14.075      859.009
06/11/2013  06:17:00       48.659       30.868        9.571       36.909       21.151       16.568     1362.299      447.349      274.503        0.275        0.104       57.624       12.417        0.046      340.223       14.094      859.027
06/11/2013  06:18:00       14.204        8.209        6.011       24.663       17.538       14.613      608.277      307.596      213.551        0.072        0.056       16.405       15.837        0.932      340.246       14.134      859.062
06/11/2013  06:19:00        3.828      -14.115        5.326       30.212       41.828       20.518      912.776     1749.623      420.993        0.166        0.154       14.625       21.235        2.108      340.244       14.130      859.089
06/11/2013  06:20:00       33.438      -93.414       -6.423       52.166       36.872       28.477     2721.338     1359.549      810.930        0.739        0.245       99.219       19.496        0.039      340.384       14.365      859.106
06/11/2013  06:21:00       82.790     -117.468      -11.954       57.221       62.956       36.067     3274.250     3963.485     1300.861        1.467        0.427      143.711       26.077        0.033      340.403       14.399      859.092
06/11/2013  06:22:00       80.077     -108.433      -17.170       39.605       41.782       23.782     1568.568     1745.746      565.589        1.117        0.194      134.796       19.553        0.021      340.345       14.301      859.088
06/11/2013  06:23:00       54.660      -77.115       10.733       36.666       46.469       33.678     1344.368     2159.351     1134.189        0.684        0.232       94.522       29.602        0.098      340.332       14.280      859.079
06/11/2013  06:24:00        1.723      -14.627        9.958       31.580       21.764       28.271      997.284      473.663      799.241        0.129        0.114       14.728       10.696        0.527      340.319       14.257      859.071
06/11/2013  06:25:00       24.978       15.244       16.980       27.761       29.330       20.077      770.689      860.228      403.100        0.159        0.102       29.262       18.982        0.421      340.326       14.268      859.075
06/11/2013  06:26:00       19.809       33.332        0.671       19.476       14.637       12.567      379.320      214.241      157.937        0.113        0.038       38.774        9.173        0.056      340.354       14.317      859.061
06/11/2013  06:27:00      -13.402        2.907       -2.851       18.673       29.059       11.240      348.676      844.422      126.343        0.076        0.066       13.713        8.682        0.401      340.401       14.397      859.062
06/11/2013  06:28:00      -15.654      -16.207        1.607       26.841       29.285       22.798      720.458      857.599      519.746        0.130        0.105       22.532        7.512        0.111      340.426       14.439      859.077
06/11/2013  06:29:00      -43.419      -23.091       11.563       30.688       23.484       22.306      941.763      551.491      497.542        0.227        0.100       49.177       12.626        0.066      340.392       14.382      859.104
06/11/2013  06:30:00      -19.653      -21.499        9.390       34.417       20.408       17.467     1184.563      416.481      305.081        0.142        0.095       29.128       18.580        0.407      340.411       14.412      859.113
06/11/2013  06:31:00        6.921      -35.583        9.153       12.146       20.336       15.775      147.528      413.564      248.854        0.110        0.040       36.250       10.786        0.089      340.468       14.510      859.128
06/11/2013  06:32:00        6.635      -43.047      -18.508        9.329        9.924       12.586       87.036       98.480      158.415        0.129        0.017       43.555        6.721        0.024      340.504       14.572      859.139
06/11/2013  06:33:00       -7.658      -38.416       -3.777       16.827        6.329       11.224      283.136       40.062      125.979        0.100        0.022       39.172        9.864        0.063      340.568       14.677      859.153
06/11/2013  06:34:00        5.441      -39.468       -2.636       15.109       17.625       12.892      228.277      310.649      166.204        0.115        0.035       39.841       10.175        0.065      340.725       14.944      859.154
06/11/2013  06:35:00      -15.921      -15.627        1.877       15.652       15.282        9.804      244.982      233.528       96.116        0.054        0.029       22.309       10.400        0.217      340.653       14.824      859.152
06/11/2013  06:36:00      -49.416      -25.251       -8.425       23.192       15.751       13.917      537.849      248.091      193.690        0.206        0.049       55.493       10.971        0.039      340.611       14.750      859.159
06/11/2013  06:37:00      -43.736      -35.329        0.330       32.270       21.838       15.061     1041.378      476.904      226.831        0.245        0.087       56.222       15.707        0.078      340.509       14.575      859.156
06/11/2013  06:38:00      -80.207      -30.304       -3.905       16.288       13.088       12.530      265.314      171.295      157.010        0.398        0.030       85.741        8.868        0.011      340.513       14.584      859.164
06/11/2013  06:39:00      -70.532      -40.702      -11.086       12.214       13.614       11.368      149.181      185.344      129.233        0.361        0.023       81.433        8.904        0.012      340.650       14.817      859.179
06/11/2013  06:40:00      -72.120      -40.477      -12.040       10.487        7.851        6.750      109.981       61.633       45.563        0.360        0.011       82.703        3.624        0.002      340.629       14.782      859.198
06/11/2013  06:41:00      -68.999      -31.422       -7.903       20.784       27.779       14.919      431.976      771.660      222.583        0.362        0.071       75.817        5.843        0.006      340.603       14.738      859.210
06/11/2013  06:42:00      -39.732       20.904       -5.618       47.081       42.017       24.901     2216.591     1765.396      620.069        0.332        0.230       44.895       30.345        0.457      340.694       14.891      859.204
06/11/2013  06:43:00      -53.609      -12.070      -10.751       35.161       39.224       22.917     1236.296     1538.503      525.198        0.322        0.165       54.951       17.055        0.096      340.581       14.700      859.190
06/11/2013  06:44:00      -23.391      -16.091       10.608       21.517       24.717       16.516      462.982      610.909      272.777        0.113        0.067       28.391       10.924        0.148      340.512       14.584      859.174
06/11/2013  06:45:00      -54.389      -32.163       -1.605       30.700       16.601       13.459      942.485      275.592      181.155        0.270        0.070       63.187        8.824        0.020      340.376       14.353      859.176
06/11/2013  06:46:00      -12.383      -18.557        2.963       23.651       21.024       16.839      559.373      442.019      283.551        0.090        0.064       22.309       13.415        0.362      340.447       14.473      859.172
06/11/2013  06:47:00      -40.141      -34.539        4.502       36.509       21.251       17.054     1332.896      451.619      290.853        0.245        0.104       52.955       12.599        0.057      340.503       14.569      859.164
06/11/2013  06:48:00      -25.972      -21.066        6.132       31.473       23.754       17.311      990.571      564.238      299.671        0.150        0.093       33.441       18.577        0.309      340.599       14.730      859.144
06/11/2013  06:49:00      -50.625      -22.358        1.802       23.940       29.312       20.969      573.103      859.206      439.682        0.247        0.094       55.343       11.308        0.042      340.682       14.872      859.144
06/11/2013  06:50:00      -29.213      -13.805       -2.800       35.172       25.892       11.375     1237.038      670.376      129.398        0.154        0.102       32.310        8.940        0.077      340.661       14.835      859.141
06/11/2013  06:51:00      -37.419      -20.878        7.107       17.038       11.881        9.888      290.301      141.153       97.782        0.121        0.026       42.850        8.861        0.043      340.700       14.902      859.154
06/11/2013  06:52:00      -23.028      -15.236       -7.277       11.903       15.297       12.505      141.678      233.989      156.373        0.067        0.027       27.612        8.089        0.086      340.797       15.066      859.158
06/11/2013  06:53:00      -11.403      -24.547       -2.526       13.168       11.121       11.228      173.401      123.684      126.076        0.058        0.021       27.066        8.645        0.102      340.838       15.136      859.187
06/11/2013  06:54:00       -5.004       -3.368       10.575       21.371       17.061       20.877      456.713      291.093      435.833        0.067        0.059        6.032       18.178        9.082      340.899       15.239      859.204
06/11/2013  06:55:00        4.116        4.839       23.548       12.773        7.770        8.496      163.142       60.366       72.187        0.045        0.015        6.352        3.777        0.354      341.117       15.607      859.238
06/11/2013  06:56:00        1.800       -0.657       15.122       20.386       11.643       11.314      415.588      135.562      128.014        0.046        0.034        1.916       13.373       48.697      340.961       15.344      859.262
06/11/2013  06:57:00      -15.103       21.062       -4.829       10.441       10.475       10.375      109.011      109.720      107.635        0.051        0.016       25.917        5.488        0.045      340.927       15.285      859.281
06/11/2013  06:58:00       -1.210        4.776        0.228       12.157       18.695       12.815      147.802      349.511      164.222        0.034        0.033        4.927       10.449        4.498      341.117       15.607      859.307
06/11/2013  06:59:00      -87.070      -38.158       -3.729       26.483       22.897       13.745      701.327      524.285      188.934        0.523        0.071       95.064        8.199        0.007      340.688       14.880      859.333
06/11/2013  07:00:00      -78.784      -24.479       -1.363       42.769       25.139       20.570     1829.217      631.984      423.130        0.485        0.144       82.499       21.734        0.069      340.797       15.067      859.365
06/11/2013  07:01:00      -84.326      -21.227       -2.650       41.734       21.565       17.367     1741.763      465.047      301.611        0.504        0.125       86.957       21.013        0.058      340.846       15.147      859.368
06/11/2013  07:02:00      -13.366       25.367        4.420       25.879       23.589       20.719      669.730      556.442      429.277        0.125        0.083       28.673       18.483        0.416      340.910       15.258      859.329
06/11/2013  07:03:00      -24.985       43.778       -7.498       15.137       14.125       10.427      229.137      199.524      108.725        0.157        0.027       50.407        6.331        0.016      340.811       15.089      859.275
06/11/2013  07:04:00        0.717       42.795       -7.954       12.772       15.764        9.649      163.127      248.498       93.100        0.120        0.025       42.801        8.278        0.037      340.906       15.250      859.248
06/11/2013  07:05:00        5.261       45.431       -7.517       12.971       14.513        7.697      168.257      210.640       59.241        0.129        0.022       45.735        7.621        0.028      340.886       15.216      859.271
06/11/2013  07:06:00       -1.944       10.155       -3.682        3.865        8.114        3.706       14.942       65.843       13.734        0.011        0.005       10.339        3.821        0.137      340.983       15.381      859.306
06/11/2013  07:07:00      -39.654      -20.097       -1.188       24.925       19.967       12.294      621.250      398.699      151.154        0.157        0.059       44.456        5.721        0.017      340.866       15.183      859.334
06/11/2013  07:08:00      -38.280      -17.589        9.489       28.231       34.694       17.364      796.970     1203.708      301.522        0.208        0.115       42.128       14.583        0.120      340.844       15.144      859.315
06/11/2013  07:09:00      -46.598       17.576      -12.771       39.871       32.380       23.861     1589.723     1048.484      569.337        0.292        0.160       49.802       13.687        0.076      340.956       15.334      859.295
06/11/2013  07:10:00      -83.152        3.767       -5.533       39.960       37.096       23.281     1596.764     1376.128      541.993        0.524        0.176       83.237       14.078        0.029      341.078       15.541      859.322
06/11/2013  07:11:00     -123.054      -30.617      -11.709       42.073       28.988       21.978     1770.167      840.315      483.032        0.965        0.155      126.806       24.649        0.038      340.942       15.310      859.375
06/11/2013  07:12:00      -72.627       -8.620       -1.410       50.906       36.161       23.357     2591.417     1307.600      545.566        0.490        0.222       73.137       25.865        0.125      340.944       15.312      859.418
06/11/2013  07:13:00      -56.995      -19.774       -2.384       43.101       25.364       23.816     1857.693      643.334      567.179        0.336        0.153       60.328       28.425        0.222      340.955       15.333      859.419
06/11/2013  07:14:00      -29.606        6.164        2.410       31.364       37.921       22.214      983.673     1437.999      493.468        0.192        0.146       30.241       23.688        0.614      341.012       15.429      859.413
06/11/2013  07:15:00      -64.882      -12.991       -1.361       32.360       30.805       16.573     1047.146      948.972      274.650        0.333        0.114       66.169       16.945        0.066      341.147       15.658      859.400
06/11/2013  07:16:00      -79.349      -33.533      -14.667       20.394       21.327       11.959      415.913      454.853      143.009        0.432        0.051       86.144        8.144        0.009      340.994       15.399      859.388
06/11/2013  07:17:00      -53.922      -17.252        1.540       40.952       22.685       17.417     1677.053      514.608      303.353        0.285        0.125       56.615       20.860        0.136      341.058       15.508      859.380
06/11/2013  07:18:00      -10.394       -2.955        4.751       34.199       16.328       11.542     1169.541      266.613      133.219        0.085        0.078       10.806       11.477        1.128      341.046       15.488      859.383
06/11/2013  07:19:00       -3.622        6.722       -7.628       22.785       16.860       13.501      519.154      284.258      182.271        0.055        0.049        7.636        8.873        1.350      341.153       15.669      859.373
06/11/2013  07:20:00      -32.402      -24.752       -4.411       32.984       24.198       16.104     1087.969      585.559      259.351        0.181        0.097       40.774       17.739        0.189      341.002       15.412      859.394
06/11/2013  07:21:00      -42.889      -31.532       -7.855       18.652       13.449       12.789      347.908      180.864      163.563        0.179        0.035       53.233       10.530        0.039      341.018       15.439      859.411
06/11/2013  07:22:00       -1.706      -31.333       -3.982       25.023       24.720       16.070      626.139      611.090      258.236        0.125        0.075       31.380        6.274        0.040      341.063       15.515      859.428
06/11/2013  07:23:00      -20.932       15.414        6.284       33.112       29.382       20.777     1096.412      863.279      431.691        0.155        0.120       25.995       20.238        0.606      341.122       15.616      859.439
06/11/2013  07:24:00      -59.784       53.444       -9.771       19.668       21.117       16.542      386.834      445.919      273.638        0.382        0.055       80.189        9.932        0.015      341.184       15.721      859.421
06/11/2013  07:25:00      -42.121        6.563       -1.377       27.803       37.504       15.453      773.006     1406.573      238.796        0.212        0.121       42.629       10.247        0.058      341.174       15.704      859.425
06/11/2013  07:26:00      -34.761      -18.482       -3.717       34.014       39.231       16.188     1156.948     1539.036      262.047        0.226        0.148       39.369       15.338        0.152      341.030       15.460      859.454
06/11/2013  07:27:00        5.810       -4.787       10.471       26.642       23.391       13.425      709.794      547.150      180.241        0.080        0.072        7.528       13.587        3.257      341.065       15.519      859.469
06/11/2013  07:28:00      -48.258       36.367      -12.196       27.334       21.072       16.942      747.123      444.017      287.036        0.264        0.074       60.427       20.575        0.116      341.148       15.658      859.457
06/11/2013  07:29:00      -39.764       40.931      -14.684       21.791       19.059        9.363      474.865      363.247       87.668        0.220        0.046       57.065        9.577        0.028      341.109       15.594      859.446
06/11/2013  07:30:00      -15.293       43.516       -4.545       18.984       22.873       13.151      360.378      523.165      172.947        0.160        0.053       46.125       11.865        0.066      341.243       15.822      859.450
06/11/2013  07:31:00      -59.470       69.075      -16.717       16.725       16.884       15.302      279.713      285.064      234.154        0.469        0.040       91.148       12.050        0.017      341.253       15.839      859.464
06/11/2013  07:32:00      -56.824       39.617      -13.762       19.535       22.108       16.869      381.625      488.747      284.575        0.307        0.058       69.271       15.741        0.052      341.434       16.143      859.462
06/11/2013  07:33:00      -63.952      -23.787       -9.567       24.838       29.260       14.400      616.944      856.132      207.371        0.321        0.084       68.232       12.418        0.033      341.116       15.605      859.454
06/11/2013  07:34:00      -52.923      -31.954       -2.889       25.499       25.537       15.179      650.192      652.156      230.400        0.268        0.077       61.822       10.102        0.027      341.169       15.695      859.439
06/11/2013  07:35:00        7.675        1.105       19.654       10.037        4.908        7.137      100.739       24.092       50.943        0.031        0.009        7.754        3.443        0.197      341.364       16.025      859.419
06/11/2013  07:36:00       25.275       27.153        3.855       17.635       11.630       17.154      310.992      135.258      294.260        0.107        0.037       37.096       13.152        0.126      341.245       15.823      859.420
06/11/2013  07:37:00       24.258       10.949        9.996       20.061       14.618       14.734      402.463      213.692      217.084        0.082        0.042       26.615       13.091        0.242      341.288       15.896      859.435
06/11/2013  07:38:00        1.259       10.274       19.094       20.239       25.735       12.348      409.619      662.293      152.472        0.085        0.061       10.351        8.977        0.752      341.271       15.867      859.479
06/11/2013  07:39:00        8.243      -23.854        7.118       13.107       16.810       18.902      171.792      282.570      357.276        0.075        0.041       25.238        9.708        0.148      341.303       15.921      859.510
06/11/2013  07:40:00        5.832      -31.762       -4.967       18.752       14.439       11.318      351.625      208.480      128.092        0.088        0.034       32.293       10.090        0.098      341.231       15.800      859.540
06/11/2013  07:41:00      -31.509      -25.578       -7.564       17.765        8.925       10.674      315.601       79.654      113.943        0.111        0.025       40.584        4.605        0.013      341.183       15.719      859.576
06/11/2013  07:42:00      -51.445      -21.199       -3.950        9.183       11.351        9.738       84.322      128.855       94.822        0.171        0.015       55.642        3.294        0.004      341.193       15.738      859.617
06/11/2013  07:43:00      -41.068      -28.085       -4.403       25.576       12.644       13.780      654.111      159.878      189.876        0.175        0.050       49.752        7.090        0.020      341.252       15.837      859.663
06/11/2013  07:44:00      -44.958      -24.411        6.535       31.937       18.144       16.557     1019.954      329.201      274.151        0.214        0.081       51.157       11.150        0.048      341.236       15.808      859.706
06/11/2013  07:45:00      -50.915      -30.341        1.642       41.844       24.020       18.905     1750.891      576.944      357.400        0.310        0.134       59.270       17.744        0.090      341.245       15.825      859.736
06/11/2013  07:46:00      -52.544      -20.585        0.393       26.894       12.429       13.861      723.261      154.482      192.125        0.213        0.053       56.432       13.635        0.058      341.330       15.965      859.737
06/11/2013  07:47:00        2.431       14.274        5.846        9.788       15.365        9.744       95.797      236.090       94.949        0.034        0.021       14.480        6.792        0.220      341.342       15.988      859.695
06/11/2013  07:48:00      -32.909      -29.230        0.176       42.555       28.802       15.968     1810.909      829.550      254.980        0.242        0.145       44.016       19.872        0.204      341.433       16.143      859.680
06/11/2013  07:49:00     -124.123      -45.966      -11.431       23.563       21.262       13.975      555.227      452.066      195.294        0.943        0.060      132.360        8.067        0.004      341.250       15.833      859.718
06/11/2013  07:50:00     -154.186      -69.038      -15.504       26.825       30.504       20.142      719.596      930.522      405.717        1.542        0.103      168.937       17.087        0.010      341.115       15.604      859.753
06/11/2013  07:51:00     -116.246      -37.218      -12.632       29.400       25.763       16.480      864.353      663.719      271.586        0.843        0.090      122.059       12.007        0.010      341.151       15.664      859.758
06/11/2013  07:52:00      -10.027      -30.104        3.010       30.056       11.403       12.197      903.389      130.025      148.774        0.110        0.059       31.730       11.186        0.124      341.280       15.882      859.744
06/11/2013  07:53:00      -24.706      -28.183       -1.372       14.897       11.668       13.603      221.913      136.132      185.039        0.097        0.027       37.479        9.486        0.064      341.297       15.912      859.707
06/11/2013  07:54:00      -49.968      -27.008       -5.185       30.254       19.351       13.084      915.313      374.478      171.182        0.236        0.073       56.800       12.418        0.048      341.337       15.980      859.672
06/11/2013  07:55:00      -15.230        0.862        9.660       35.200       20.190       22.370     1239.008      407.631      500.414        0.124        0.107       15.254       24.728        2.628      341.563       16.363      859.640
06/11/2013  07:56:00      -49.011      -29.280        4.014       37.714       30.015       19.331     1422.326      900.919      373.671        0.299        0.135       57.091       22.044        0.149      341.309       15.932      859.621
06/11/2013  07:57:00      -17.541        6.025       -1.968       29.620       29.872       21.147      877.357      892.349      447.203        0.128        0.111       18.547       13.294        0.514      341.277       15.879      859.613
06/11/2013  07:58:00        7.697        6.648       25.337       18.594       34.980       21.773      345.735     1223.584      474.049        0.139        0.102       10.170       21.657        4.535      341.380       16.052      859.595
06/11/2013  07:59:00      -10.957      -34.656        3.228       24.918       19.596       20.551      620.922      383.998      422.336        0.138        0.071       36.347       13.874        0.146      341.327       15.962      859.608
06/11/2013  08:00:00      -57.244      -41.773       -4.727       24.735       16.488       16.924      611.816      271.844      286.420        0.311        0.059       70.865        6.783        0.009      341.316       15.944      859.621
06/11/2013  08:01:00      -62.652      -44.693       -4.393       20.113       11.198       10.194      404.546      125.388      103.922        0.329        0.032       76.959        5.580        0.005      341.349       16.001      859.615
06/11/2013  08:02:00      -20.737      -27.593       -3.396       28.848       12.148       12.123      832.209      147.573      146.961        0.116        0.056       34.517       15.475        0.201      341.444       16.160      859.601
06/11/2013  08:03:00      -35.711      -24.316       -2.033       12.118       11.275       10.177      146.849      127.134      103.572        0.112        0.019       43.204        3.877        0.008      341.338       15.979      859.598
06/11/2013  08:04:00       -2.868        1.075       11.275        9.100        8.579       10.265       82.812       73.596      105.372        0.020        0.013        3.063        9.235        9.093      341.654       16.518      859.596
06/11/2013  08:05:00        3.620      -11.647       12.595       20.596       24.365       12.280      424.204      593.671      150.791        0.074        0.058       12.197       11.205        0.844      341.682       16.563      859.588
06/11/2013  08:06:00       26.850      -56.160       -3.278       27.169       21.948       20.086      738.146      481.711      403.450        0.275        0.081       62.248        9.198        0.022      341.323       15.956      859.595
06/11/2013  08:07:00       10.921      -58.776       -9.159       17.579       17.228       14.040      309.022      296.807      197.118        0.223        0.040       59.782        6.947        0.014      341.294       15.906      859.627
06/11/2013  08:08:00        2.727      -53.497       -2.727       30.030       36.250       18.229      901.805     1314.071      332.294        0.271        0.127       53.566       12.020        0.050      341.548       16.337      859.656
06/11/2013  08:09:00      -56.870      -12.038        5.479       42.180       22.369       18.997     1779.171      500.367      360.883        0.302        0.132       58.131       13.389        0.053      341.558       16.353      859.650
06/11/2013  08:10:00      -58.488      -40.217       -1.544       22.976       19.577       16.539      527.908      383.274      273.544        0.311        0.059       70.981        6.570        0.009      341.449       16.169      859.615
06/11/2013  08:11:00       -5.724      -11.980       10.904       41.859       18.116       17.092     1752.199      328.192      292.152        0.133        0.119       13.278       12.758        0.923      341.529       16.304      859.553
06/11/2013  08:12:00       70.969       40.082        6.960       18.293       20.408       18.145      334.616      416.499      329.251        0.389        0.054       81.506       11.009        0.018      341.535       16.313      859.493
06/11/2013  08:13:00       21.720       13.944       -1.555       25.297       15.224       18.409      639.961      231.767      338.874        0.094        0.061       25.811       10.223        0.157      341.613       16.447      859.469
06/11/2013  08:14:00       -7.596        9.991       17.761       26.413       26.574       20.323      697.671      706.176      413.031        0.114        0.091       12.551       19.004        2.293      341.626       16.469      859.514
06/11/2013  08:15:00      -13.292      -50.357        2.519       23.864       26.223       17.096      569.508      687.633      292.290        0.213        0.077       52.082       11.634        0.050      341.409       16.102      859.584
06/11/2013  08:16:00      -35.409      -22.809        0.575       29.230       23.924       12.042      854.385      572.369      145.015        0.167        0.079       42.119       15.609        0.137      341.587       16.403      859.645
06/11/2013  08:17:00       -7.412      -13.911        7.680       19.764       16.818       17.560      390.625      282.857      308.342        0.064        0.049       15.763       10.126        0.413      341.728       16.641      859.688
06/11/2013  08:18:00       26.367      -10.658       26.812       28.808       40.541       29.723      829.890     1643.588      883.467        0.244        0.168       28.440       28.016        0.970      341.654       16.517      859.686
06/11/2013  08:19:00       -2.082       23.568       46.158       16.538       32.312       22.716      273.505     1044.087      516.034        0.226        0.092       23.660       22.784        0.927      341.781       16.733      859.648
06/11/2013  08:20:00       49.764       70.975       63.793       56.858       39.704       43.427     3232.863     1576.419     1885.911        0.914        0.335       86.683       23.155        0.071      341.674       16.551      859.630
06/11/2013  08:21:00       86.364       70.673       67.241       55.874       32.721       33.170     3121.919     1070.666     1100.233        1.113        0.265      111.595       29.579        0.070      341.594       16.416      859.652
06/11/2013  08:22:00       33.237       27.237       39.406       58.512       35.326       21.413     3423.600     1247.912      458.517        0.426        0.257       42.971       14.345        0.111      341.656       16.521      859.665
06/11/2013  08:23:00       48.949       39.696       32.271       33.312       27.753       28.549     1109.702      770.204      815.052        0.385        0.135       63.022       19.116        0.092      341.615       16.451      859.694
06/11/2013  08:24:00       74.303       58.703       24.451       33.624       25.346       35.590     1130.580      642.439     1266.648        0.630        0.152       94.694       16.568        0.031      341.623       16.463      859.705
06/11/2013  08:25:00       90.061       67.423       50.262       35.594       27.286       28.734     1266.942      744.548      825.669        0.901        0.142      112.503       17.411        0.024      341.681       16.564      859.692
06/11/2013  08:26:00       97.861       61.836       12.698       25.804       21.974       27.927      665.829      482.846      779.926        0.774        0.096      115.761        7.758        0.004      341.714       16.618      859.680
06/11/2013  08:27:00       92.857       49.818        5.161       34.601       29.130       23.005     1197.253      848.578      529.219        0.685        0.129      105.377       13.213        0.016      341.712       16.616      859.672
06/11/2013  08:28:00       83.370       43.702       -1.628       29.407       33.247       26.165      864.771     1105.372      684.619        0.576        0.133       94.130       15.970        0.029      341.683       16.566      859.657
06/11/2013  08:29:00       40.929       40.012       12.218       27.635       21.364       22.787      763.697      456.408      519.246        0.258        0.087       57.238        6.859        0.014      341.661       16.528      859.660
06/11/2013  08:30:00       65.786       42.627       15.357       35.478       18.345       22.461     1258.693      336.522      504.493        0.424        0.105       78.390        7.677        0.010      341.573       16.379      859.675
06/11/2013  08:31:00       38.268       36.822       11.085       20.686       14.460       18.777      427.905      209.089      352.583        0.197        0.049       53.106       10.667        0.040      341.612       16.445      859.701
06/11/2013  08:32:00       41.069       43.533       -0.992       24.441       21.735       18.304      597.385      472.401      335.040        0.249        0.070       59.848       14.675        0.060      341.557       16.352      859.705
06/11/2013  08:33:00       32.221       21.683        3.965       25.100       14.723       17.244      630.001      216.759      297.362        0.133        0.057       38.838        8.274        0.045      341.608       16.439      859.684
06/11/2013  08:34:00       52.742       33.420        4.230       28.404       21.273       19.960      806.803      452.551      398.385        0.279        0.083       62.439       12.029        0.037      341.666       16.539      859.650
06/11/2013  08:35:00       29.651       31.290       28.991       35.167       19.439       18.297     1236.686      377.892      334.772        0.232        0.097       43.108       14.879        0.119      341.746       16.674      859.657
06/11/2013  08:36:00        4.323        1.700       27.372       11.670       17.071       12.852      136.194      291.410      165.182        0.068        0.030        4.646       11.610        6.246      341.823       16.803      859.698
06/11/2013  08:37:00       -5.288      -30.408       -0.220       12.253       15.295       12.963      150.125      233.932      168.035        0.075        0.028       30.864        8.008        0.067      341.542       16.327      859.731
06/11/2013  08:38:00       -1.429      -22.730        4.759       16.367       19.615        9.834      267.866      384.744       96.710        0.065        0.037       22.775        9.558        0.176      341.677       16.557      859.755
06/11/2013  08:39:00      -23.576      -29.322       -4.337       11.168       14.418        9.578      124.720      207.886       91.737        0.093        0.021       37.625        4.615        0.015      341.632       16.480      859.751
06/11/2013  08:40:00      -39.067      -30.726      -11.403       16.904       11.365       11.263      285.729      129.171      126.865        0.157        0.027       49.703        5.358        0.012      341.737       16.659      859.726
06/11/2013  08:41:00      -31.817      -32.258       -4.121       15.032       17.287       11.888      225.957      298.856      141.313        0.137        0.033       45.309       10.589        0.055      341.695       16.588      859.718
06/11/2013  08:42:00       -1.965      -26.007        0.902       15.003       19.036       15.514      225.101      362.383      240.671        0.075        0.041       26.081       12.784        0.240      341.848       16.846      859.691
06/11/2013  08:43:00        5.633       -4.264       35.292       16.902       32.111       19.992      285.669     1031.148      399.674        0.151        0.086        7.065       18.779        7.065      341.968       17.050      859.646
06/11/2013  08:44:00       18.510      -15.562       19.368       35.377       32.834       26.203     1251.509     1078.049      686.623        0.199        0.151       24.183       18.809        0.605      341.795       16.757      859.626
06/11/2013  08:45:00       12.026        6.647       21.088       20.889       19.833       21.621      436.356      393.366      467.480        0.097        0.065       13.740        8.373        0.371      341.948       17.017      859.633
06/11/2013  08:46:00       13.101       -9.190       18.490       22.579       14.388       12.285      509.789      207.016      150.931        0.073        0.043       16.003        9.407        0.346      342.130       17.324      859.654
06/11/2013  08:47:00      -23.260       -3.838       -5.655       17.878       18.068       14.734      319.613      326.447      217.097        0.073        0.043       23.575       13.555        0.331      341.959       17.034      859.658
06/11/2013  08:48:00       -0.843        0.195        7.524       17.268       19.924       10.393      298.185      396.962      108.022        0.043        0.040        0.865       10.079      135.765      342.157       17.370      859.633
06/11/2013  08:49:00      -21.282      -42.401       -0.856       13.460       14.474        9.275      181.181      209.493       86.026        0.136        0.024       47.442        5.167        0.012      341.916       16.960      859.639
06/11/2013  08:50:00      -25.654      -24.235        6.456       18.352       23.626       14.582      336.797      558.187      212.625        0.120        0.055       35.291       19.249        0.297      342.101       17.273      859.667
06/11/2013  08:51:00      -28.194      -12.827        3.487       37.694       16.026       12.813     1420.844      256.836      164.179        0.141        0.092       30.975       11.215        0.131      342.052       17.192      859.691
06/11/2013  08:52:00      -18.799      -24.116        1.098       15.246       14.212        9.332      232.442      201.992       87.085        0.073        0.026       30.578        8.070        0.070      342.045       17.179      859.689
06/11/2013  08:53:00      -27.658      -52.697       -2.426       13.330       13.101       10.058      177.692      171.648      101.173        0.200        0.023       59.514        7.145        0.014      341.927       16.981      859.675
06/11/2013  08:54:00      -26.781      -50.535       -0.268       20.935       23.977       14.934      438.259      574.899      223.020        0.225        0.062       57.193       17.773        0.097      341.991       17.087      859.660
06/11/2013  08:55:00      -31.361      -44.694       -8.026       20.387       25.582       16.551      415.636      654.458      273.948        0.219        0.067       54.599       11.097        0.041      341.977       17.065      859.644
06/11/2013  08:56:00       16.754      -38.331        0.637       19.878       18.254       18.566      395.133      333.207      344.683        0.141        0.054       41.832       11.980        0.082      341.936       16.994      859.637
06/11/2013  08:57:00       21.380       -6.300       13.260       22.191       16.679       19.050      492.448      278.200      362.912        0.090        0.057       22.289       16.277        0.533      342.249       17.527      859.630
06/11/2013  08:58:00       52.684       28.946        9.344       26.737       21.816       20.805      714.856      475.953      432.831        0.266        0.081       60.112        9.222        0.024      341.899       16.931      859.626
06/11/2013  08:59:00       29.600       24.407        9.949       22.536       21.426       17.811      507.890      459.056      317.218        0.143        0.064       38.365       14.749        0.148      341.956       17.030      859.613
06/11/2013  09:00:00        9.434      -23.147        4.135       15.772       27.829       19.742      248.768      774.470      389.733        0.103        0.071       24.996       17.869        0.511      342.170       17.392      859.649
06/11/2013  09:01:00      -24.366        4.621       -0.704       16.396       23.850       20.958      268.845      568.813      439.226        0.095        0.064       24.800       14.572        0.345      341.975       17.062      859.698
06/11/2013  09:02:00      -16.344      -16.939       -0.929       12.030       18.960       16.826      144.718      359.500      283.127        0.067        0.039       23.538       14.305        0.369      342.130       17.325      859.730
06/11/2013  09:03:00       27.262       54.459        5.798       29.959       17.340       16.934      897.513      300.689      286.755        0.261        0.074       60.902       10.765        0.031      342.121       17.309      859.698
06/11/2013  09:04:00       28.936       47.504        0.342       34.729       36.642       28.932     1206.100     1342.666      837.036        0.324        0.169       55.623       22.675        0.166      342.259       17.545      859.641
06/11/2013  09:05:00       26.989       43.181        2.128       39.239       31.801       28.109     1539.723     1011.329      790.107        0.297        0.167       50.922       21.227        0.174      342.289       17.594      859.633
06/11/2013  09:06:00      -51.331        3.036       -0.015       50.199       47.266       21.175     2519.948     2234.112      448.385        0.392        0.260       51.421       20.043        0.152      342.409       17.799      859.730
06/11/2013  09:07:00      -69.996      -53.213      -12.242       40.477       30.787       22.463     1638.369      947.845      504.599        0.549        0.155       87.927       15.734        0.032      342.291       17.597      859.832
06/11/2013  09:08:00      -22.763       -6.458       11.200       39.281       20.778       15.264     1543.011      431.746      232.983        0.145        0.110       23.661       18.339        0.601      342.504       17.960      859.865
06/11/2013  09:09:00       19.722       17.089       29.954       15.146       13.574       11.393      229.391      184.254      129.807        0.106        0.027       26.096        7.224        0.077      342.440       17.850      859.829
06/11/2013  09:10:00       46.871       36.749       14.996       47.478       24.053       20.171     2254.181      578.539      406.855        0.351        0.162       59.560       16.729        0.079      342.326       17.656      859.799
06/11/2013  09:11:00       43.677       15.377       -8.024       33.192       27.686       13.881     1101.685      766.509      192.686        0.213        0.103       46.305       17.848        0.149      342.274       17.569      859.788
06/11/2013  09:12:00       -8.749      -10.664       -2.261       11.164       12.094       13.756      124.630      146.270      189.224        0.033        0.023       13.794        8.079        0.343      342.413       17.805      859.796
06/11/2013  09:13:00       -9.868      -20.359       -5.457       13.329       14.297        9.878      177.659      204.417       97.565        0.051        0.024       22.624        7.768        0.118      342.352       17.702      859.810
06/11/2013  09:14:00        1.493      -39.225       -1.007       20.100       13.329        9.406      404.008      177.665       88.466        0.111        0.034       39.253        2.161        0.003      342.196       17.436      859.816
06/11/2013  09:15:00      -10.282      -26.277        4.616       20.717       23.673       19.512      429.206      560.416      380.736        0.109        0.069       28.217       19.504        0.478      342.468       17.897      859.812
06/11/2013  09:16:00       -8.059       -5.901       15.884       10.728       13.393        9.583      115.080      179.361       91.832        0.037        0.019        9.988        1.213        0.015      342.707       18.305      859.797
06/11/2013  09:17:00        1.819      -35.325        2.253       37.868       43.753       33.750     1433.977     1914.359     1139.038        0.287        0.224       35.372       14.782        0.175      342.397       17.778      859.796
06/11/2013  09:18:00        5.031      -23.666       20.733       23.545       33.876       20.302      554.363     1147.617      412.159        0.156        0.106       24.195       15.558        0.413      342.737       18.356      859.794
06/11/2013  09:19:00      -12.028       -6.451       15.108       16.655       17.630       15.250      277.384      310.826      232.574        0.062        0.041       13.649        7.384        0.293      342.715       18.318      859.773
06/11/2013  09:20:00       22.581        2.379       12.454       32.485       30.335       20.342     1055.299      920.215      413.788        0.153        0.119       22.706       19.050        0.704      342.494       17.943      859.740
06/11/2013  09:21:00       34.347        1.495       17.327       23.835       16.894       25.749      568.124      285.414      663.009        0.150        0.076       34.379        6.046        0.031      342.380       17.748      859.699
06/11/2013  09:22:00       41.107      -19.546        6.932       31.959       23.163       24.823     1021.359      536.503      616.193        0.215        0.109       45.517       18.982        0.174      342.352       17.702      859.699
06/11/2013  09:23:00       14.690       -1.907       34.486       32.808       43.108       26.016     1076.366     1858.270      676.813        0.251        0.181       14.813       29.477        3.960      342.822       18.502      859.713
06/11/2013  09:24:00       20.145      -19.064       24.846       32.432       53.475       39.100     1051.834     2859.528     1528.842        0.341        0.272       27.736       34.017        1.504      342.988       18.784      859.714
06/11/2013  09:25:00       42.915      -27.993       16.453       38.490       36.612       33.602     1481.507     1340.448     1129.126        0.342        0.198       51.237       25.935        0.256      342.784       18.437      859.689
06/11/2013  09:26:00       69.020      -86.080       -7.576       30.262       34.032       24.791      915.798     1158.202      614.581        0.746        0.134      110.334       23.454        0.045      342.558       18.052      859.681
06/11/2013  09:27:00       21.807      -22.224       18.932       27.591       47.799       23.582      761.289     2284.698      556.095        0.246        0.180       31.136       24.553        0.622      342.996       18.798      859.681
06/11/2013  09:28:00       17.728      -42.455      -10.788       24.985       22.735       19.709      624.264      516.880      388.427        0.188        0.076       46.008       12.677        0.076      342.410       17.800      859.723
06/11/2013  09:29:00       15.573      -46.095       14.505       24.553       27.163       24.765      602.834      737.834      613.311        0.227        0.098       48.655       17.426        0.128      342.920       18.668      859.769
06/11/2013  09:30:00       30.034      -49.415        2.349       27.773       37.996       26.297      771.351     1443.661      691.514        0.313        0.145       57.826       24.842        0.185      343.170       19.092      859.805
06/11/2013  09:31:00       29.954      -22.094       31.349       40.499       49.654       29.610     1640.198     2465.519      876.754        0.367        0.249       37.221       29.380        0.623      343.121       19.010      859.789
06/11/2013  09:32:00       -6.185        5.769       51.269       29.840       39.911       26.703      890.398     1592.923      713.066        0.295        0.160        8.458       16.304        3.716      343.241       19.214      859.746
06/11/2013  09:33:00       41.856       40.804       69.319       48.008       72.466       42.876     2304.794     5251.279     1838.380        0.881        0.470       58.454       27.713        0.225      343.025       18.846      859.715
06/11/2013  09:34:00       29.312      -27.410        5.784       47.394       45.770       30.779     2246.171     2094.850      947.349        0.347        0.264       40.131       30.273        0.569      342.750       18.377      859.719
06/11/2013  09:35:00       37.041      -33.949       15.006       72.296       73.392       36.486     5226.739     5386.441     1331.240        0.734        0.597       50.245       47.426        0.891      342.964       18.742      859.748
06/11/2013  09:36:00       52.369      -21.192       11.566       52.146       47.310       34.606     2719.172     2238.250     1197.575        0.474        0.308       56.494       26.423        0.219      342.989       18.785      859.801
06/11/2013  09:37:00       22.352       -9.817       16.098       29.620       43.905       34.638      877.337     1927.674     1199.769        0.243        0.200       24.413       27.148        1.237      342.993       18.793      859.836
06/11/2013  09:38:00       50.966       51.926       26.308       48.155       44.278       42.269     2318.924     1960.524     1786.628        0.602        0.303       72.759       37.141        0.261      342.734       18.351      859.839
06/11/2013  09:39:00       22.427       11.622       32.758       37.209       43.050       25.658     1384.543     1853.316      658.321        0.280        0.195       25.260       22.547        0.797      343.105       18.982      859.854
06/11/2013  09:40:00       91.735       78.736       52.694       45.185       33.211       32.394     2041.714     1102.969     1049.401        1.079        0.210      120.891       10.461        0.007      342.738       18.358      859.846
06/11/2013  09:41:00       81.101       62.120       36.158       34.495       42.309       31.459     1189.911     1790.049      989.672        0.786        0.198      102.158       21.599        0.045      342.856       18.559      859.826
06/11/2013  09:42:00       36.303       27.676        5.648       37.113       28.403       22.735     1377.394      806.754      516.883        0.241        0.135       45.649       15.220        0.111      342.980       18.769      859.801
06/11/2013  09:43:00        9.800      -25.613        9.897       26.123       44.448       26.061      682.410     1975.589      679.151        0.209        0.167       27.424       14.554        0.282      343.355       19.407      859.783
06/11/2013  09:44:00       65.928      -86.283      -14.293       36.422       44.015       30.368     1326.571     1937.345      922.195        0.809        0.209      108.587       15.210        0.020      342.937       18.696      859.804
06/11/2013  09:45:00       25.024      -54.922       11.970       20.722       38.728       32.156      429.410     1499.885     1034.035        0.337        0.148       60.354       26.233        0.189      343.095       18.966      859.817
06/11/2013  09:46:00       70.649      -70.265      -11.043       41.419       43.549       27.286     1715.550     1896.476      744.522        0.720        0.218       99.641       21.947        0.049      342.980       18.770      859.824
06/11/2013  09:47:00       12.600      -26.048       16.315       28.790       49.668       25.518      828.881     2466.908      651.157        0.252        0.197       28.935       20.733        0.513      343.090       18.957      859.821
06/11/2013  09:48:00        6.770       19.425       27.626       29.819       34.214       20.317      889.172     1170.620      412.771        0.183        0.124       20.571       12.200        0.352      343.155       19.068      859.789
06/11/2013  09:49:00       40.105      -33.172       18.311       52.911       76.552       38.729     2799.552     5860.274     1499.951        0.660        0.508       52.046       29.509        0.321      343.046       18.882      859.744
06/11/2013  09:50:00       28.702      -12.775       24.664       51.159       63.956       42.688     2617.233     4090.333     1822.224        0.506        0.426       31.416       29.068        0.856      343.158       19.074      859.694
06/11/2013  09:51:00       53.939      -88.304       18.254       39.124       49.460       33.072     1530.680     2446.263     1093.775        0.805        0.254      103.475       32.900        0.101      342.991       18.788      859.666
06/11/2013  09:52:00       35.201      -26.897       21.302       38.476       61.029       35.495     1480.400     3724.514     1259.893        0.444        0.323       44.301       39.761        0.806      343.238       19.209      859.664
06/11/2013  09:53:00       36.665       62.850       70.441       53.750       52.369       65.074     2889.019     2742.493     4234.679        1.006        0.493       72.763       56.253        0.598      343.136       19.035      859.666
06/11/2013  09:54:00       82.414       77.565       53.321       43.148       47.221       42.964     1861.758     2229.830     1845.869        1.079        0.297      113.174       30.752        0.074      342.904       18.641      859.689
06/11/2013  09:55:00       59.192       51.217       11.689       36.452       26.086       22.877     1328.733      680.488      523.378        0.440        0.127       78.274        6.935        0.008      343.004       18.811      859.717
06/11/2013  09:56:00       79.232       76.253       33.657       57.982       36.740       35.585     3361.951     1349.802     1266.302        0.960        0.299      109.964       22.035        0.040      342.842       18.535      859.754
06/11/2013  09:57:00       -4.233        7.531       29.072       24.451       27.628       21.379      597.835      763.299      457.074        0.137        0.091        8.639       11.398        1.741      343.197       19.140      859.764
06/11/2013  09:58:00       42.131       26.667       27.894       47.839       43.260       36.924     2288.563     1871.465     1363.412        0.439        0.276       49.862       28.751        0.332      342.979       18.768      859.793
06/11/2013  09:59:00       82.089       59.650       46.827       34.766       22.749       35.926     1208.671      517.510     1290.695        0.775        0.151      101.473       12.244        0.015      342.874       18.589      859.792
06/11/2013  10:00:00       65.807       61.853       15.797       43.917       26.080       36.194     1928.663      680.186     1310.013        0.616        0.196       90.312       13.429        0.022      343.041       18.874      859.769
06/11/2013  10:01:00       73.716       64.931        2.901       36.905       27.001       26.550     1361.945      729.034      704.926        0.623        0.140       98.235       10.850        0.012      343.107       18.986      859.725
06/11/2013  10:02:00       96.138       77.084        3.965       52.785       29.118       31.775     2786.267      847.878     1009.681        0.992        0.232      123.225       18.065        0.021      343.182       19.113      859.708
06/11/2013  10:03:00      118.333       89.094        8.320       42.308       46.231       33.635     1789.951     2137.342     1131.288        1.353        0.253      148.123       21.272        0.021      343.156       19.069      859.673
06/11/2013  10:04:00      154.363      109.635       22.465       62.120       34.688       39.880     3858.949     1203.288     1590.446        2.150        0.333      189.335       29.527        0.024      343.211       19.161      859.669
06/11/2013  10:05:00       82.386       59.171        3.757       56.576       44.774       37.163     3200.882     2004.739     1381.096        0.844        0.329      101.433       29.932        0.087      343.373       19.438      859.688
06/11/2013  10:06:00       66.883       15.212       35.418       46.895       50.169       34.346     2199.145     2516.908     1179.614        0.593        0.295       68.591       29.724        0.188      343.623       19.865      859.689
06/11/2013  10:07:00       41.900       37.214       54.083       52.485       46.046       39.480     2754.625     2120.257     1558.655        0.625        0.322       56.040       35.245        0.396      343.770       20.115      859.688
06/11/2013  10:08:00       52.606       39.367       41.034       50.409       44.193       45.333     2541.088     1953.035     2055.036        0.627        0.327       65.705       36.100        0.302      343.843       20.241      859.669
06/11/2013  10:09:00       22.840        7.868       65.206       31.025       45.512       28.744      962.537     2071.357      826.219        0.435        0.193       24.157       28.360        1.378      343.756       20.093      859.678
06/11/2013  10:10:00       57.600      -14.040       34.501       39.085       81.572       47.004     1527.641     6654.011     2209.341        0.755        0.520       59.286       50.522        0.726      343.764       20.105      859.655
06/11/2013  10:11:00       46.793       52.387       71.049       53.962       43.931       33.786     2911.884     1929.931     1141.494        0.798        0.299       70.242       26.416        0.141      344.285       20.995      859.630
06/11/2013  10:12:00       99.022      -61.921       27.195       61.182       83.205       56.599     3743.253     6923.058     3203.424        1.412        0.693      116.788       55.828        0.229      343.858       20.264      859.615
06/11/2013  10:13:00       28.326       -7.420       44.096       59.336       79.662       47.874     3520.798     6345.997     2291.886        0.748        0.608       29.281       23.805        0.661      344.245       20.927      859.583
06/11/2013  10:14:00       42.789       61.674       64.596       53.898       45.544       37.826     2904.993     2074.257     1430.789        0.811        0.321       75.063       20.906        0.078      344.052       20.597      859.598
06/11/2013  10:15:00       52.310       49.362       18.739       50.167       63.911       37.296     2516.774     4084.596     1390.985        0.676        0.400       71.923       33.034        0.211      344.044       20.584      859.623
06/11/2013  10:16:00       21.229       57.117       12.272       39.184       37.374       34.887     1535.414     1396.841     1217.069        0.401        0.207       60.935       26.332        0.187      343.985       20.483      859.635
06/11/2013  10:17:00       -7.488      -61.142       17.165       43.956       64.362       41.206     1932.101     4142.449     1697.909        0.593        0.389       61.598        6.001        0.009      343.888       20.318      859.601
06/11/2013  10:18:00       46.038        4.121       22.267       48.936       35.846       31.576     2394.728     1284.913      997.075        0.365        0.234       46.222       21.399        0.214      344.441       21.262      859.584
06/11/2013  10:19:00       77.410       52.635        9.370       54.286       42.535       35.054     2947.002     1809.188     1228.774        0.742        0.299       93.610       11.327        0.015      344.093       20.667      859.576
06/11/2013  10:20:00       99.193       56.402       26.835       82.319       75.908       39.703     6776.470     5762.046     1576.338        1.392        0.706      114.107       17.987        0.025      344.117       20.709      859.569
06/11/2013  10:21:00      207.700       85.115       14.137       62.501       52.996       44.374     3906.326     2808.609     1969.050        2.963        0.434      224.463       30.414        0.018      343.728       20.040      859.536
06/11/2013  10:22:00      143.933       92.353       34.426      101.663       64.746       49.750    10335.439     4192.059     2475.039        2.371        0.850      171.014       44.094        0.066      344.112       20.699      859.495
06/11/2013  10:23:00      121.777       84.938       30.753       57.968       40.834       49.058     3360.266     1667.415     2406.694        1.521        0.372      148.473       12.597        0.007      343.956       20.433      859.480
06/11/2013  10:24:00       10.701       45.226       74.309       47.530       48.493       50.082     2259.066     2351.591     2508.213        0.740        0.356       46.474       40.101        0.745      344.212       20.871      859.475
06/11/2013  10:25:00       26.428       15.604       54.636       36.653       37.803       21.505     1343.463     1429.090      462.448        0.358        0.162       30.690       20.088        0.428      344.192       20.838      859.471
06/11/2013  10:26:00       27.629        8.356       39.888       34.615       38.455       27.105     1198.225     1478.811      734.707        0.292        0.171       28.865       22.912        0.630      344.413       21.214      859.469
06/11/2013  10:27:00       36.936       24.565       13.324       43.145       38.677       29.988     1861.526     1495.915      899.283        0.320        0.213       44.359       22.778        0.264      344.513       21.385      859.475
06/11/2013  10:28:00       -6.952      -25.479       33.069       40.871       65.100       34.194     1670.416     4237.980     1169.250        0.443        0.354       26.410       20.381        0.596      344.644       21.608      859.454
06/11/2013  10:29:00       26.822      -29.735       40.762       37.598       65.139       39.762     1413.633     4243.117     1581.037        0.525        0.362       40.044       18.246        0.208      344.755       21.800      859.417
06/11/2013  10:30:00       59.104       34.609       46.911       68.625       40.154       38.657     4709.397     1612.334     1494.350        0.735        0.391       68.492       31.815        0.216      344.909       22.062      859.404
06/11/2013  10:31:00      134.386       79.486        5.700       29.913       32.879       36.201      894.764     1081.060     1310.527        1.385        0.164      156.134       22.235        0.020      343.834       20.225      859.427
06/11/2013  10:32:00       37.274      101.377       -5.465       47.635       46.908       31.938     2269.109     2200.356     1020.038        0.859        0.274      108.013       17.178        0.025      344.178       20.813      859.447
06/11/2013  10:33:00       80.734       84.552        1.619       61.864       76.847       37.746     3827.196     5905.427     1424.736        1.241        0.558      116.907       35.513        0.092      344.120       20.713      859.455
06/11/2013  10:34:00       11.619      161.819      -19.383       75.877       82.933       35.690     5757.257     6877.912     1273.757        2.030        0.695      162.235       25.579        0.025      344.087       20.656      859.446
06/11/2013  10:35:00      -54.700      219.651      -14.285       38.701       74.456       32.133     1497.785     5543.703     1032.556        2.976        0.404      226.360       38.280        0.029      343.963       20.443      859.455
06/11/2013  10:36:00      -13.496      207.174       -5.906       34.993       74.226       37.480     1224.525     5509.491     1404.718        2.564        0.407      207.613       36.028        0.030      344.193       20.837      859.490
06/11/2013  10:37:00       -7.605      214.853      -29.099       42.454       47.192       36.235     1802.327     2227.055     1312.945        2.620        0.267      214.987       30.500        0.020      343.913       20.359      859.501
06/11/2013  10:38:00      -18.395      138.478       -6.567       33.503       60.086       30.266     1122.433     3610.275      916.036        1.260        0.282      139.694       34.035        0.059      344.227       20.897      859.504
06/11/2013  10:39:00      -13.375       99.624        7.255       37.786       52.577       29.392     1427.807     2764.376      863.865        0.761        0.253      100.518       32.274        0.103      344.665       21.646      859.492
06/11/2013  10:40:00      145.779       94.161       22.149       76.694       47.276       43.848     5882.023     2235.026     1922.688        2.032        0.502      173.544       26.159        0.023      344.196       20.841      859.489
06/11/2013  10:41:00      129.722       77.809       15.399       61.037       39.137       44.111     3725.568     1531.726     1945.742        1.516        0.360      151.268       29.390        0.038      344.253       20.940      859.474
06/11/2013  10:42:00       35.955       91.426       -5.587       50.171       66.286       31.976     2517.090     4393.849     1022.445        0.881        0.397       98.242       36.262        0.136      344.659       21.636      859.476
06/11/2013  10:43:00       10.241      124.721      -20.641       43.612       53.337       31.749     1902.039     2844.847     1007.986        1.092        0.288      125.141       33.361        0.071      344.120       20.713      859.507
06/11/2013  10:44:00      -40.609       81.410       -3.823       32.563       44.481       32.500     1060.358     1978.529     1056.271        0.619        0.205       90.976       25.399        0.078      344.546       21.444      859.502
06/11/2013  10:45:00      -48.250      182.078      -15.029       26.598       69.407       33.565      707.477     4817.339     1126.643        2.118        0.333      188.362       34.459        0.033      344.151       20.765      859.487
06/11/2013  10:46:00      -71.745       88.477       -6.220       35.305       57.724       33.722     1246.460     3332.083     1137.145        0.936        0.286      113.910       26.661        0.055      344.290       21.004      859.476
06/11/2013  10:47:00        9.843       44.903       26.897       49.020       36.880       29.302     2402.989     1360.116      858.632        0.373        0.231       45.969       22.336        0.236      345.046       22.298      859.487
06/11/2013  10:48:00       13.263        8.978       -2.719       29.327       52.764       29.290      860.101     2784.029      857.919        0.238        0.225       16.016       27.112        2.865      344.984       22.191      859.512
06/11/2013  10:49:00       14.963       19.131        2.650       28.864       30.839       19.780      833.136      951.018      391.230        0.139        0.109       24.288       16.952        0.487      344.898       22.044      859.541
06/11/2013  10:50:00      -36.711       17.592       11.247       29.450       34.387       18.967      867.305     1182.435      359.751        0.210        0.120       40.708       15.062        0.137      344.826       21.921      859.549
06/11/2013  10:51:00      -34.220       60.485      -17.626       26.448       34.121       21.389      699.484     1164.231      457.498        0.373        0.116       69.495       12.736        0.034      344.388       21.171      859.565
06/11/2013  10:52:00      -30.755       -1.210        9.180       28.436       28.349       21.390      808.590      803.640      457.532        0.155        0.103       30.778       14.139        0.211      344.884       22.020      859.574
06/11/2013  10:53:00      -23.809       19.477       37.873       38.929       30.691       27.910     1515.495      941.926      778.945        0.281        0.162       30.761       28.064        0.832      345.200       22.562      859.594
06/11/2013  10:54:00      -15.269       11.718       43.149       21.482       28.722       15.527      461.487      824.944      241.100        0.188        0.076       19.247       11.842        0.379      345.540       23.144      859.602
06/11/2013  10:55:00      -17.376       46.758       84.612       23.173       43.067       28.128      536.973     1854.746      791.167        0.641        0.159       49.882       26.278        0.278      345.528       23.122      859.595
06/11/2013  10:56:00      139.020      101.524       46.769       72.101       48.929       51.771     5198.509     2394.004     2680.287        2.104        0.514      172.144       45.829        0.071      344.529       21.412      859.572
06/11/2013  10:57:00      170.456       89.487       24.787       89.574       57.805       46.237     8023.553     3341.436     2137.867        2.559        0.675      192.518       36.660        0.036      344.695       21.694      859.565
06/11/2013  10:58:00      126.536       91.774       34.640       67.537       42.066       49.473     4561.227     1769.590     2447.564        1.720        0.439      156.313       43.378        0.077      344.858       21.974      859.573
06/11/2013  10:59:00       58.325       53.109       75.041       50.302       73.100       49.222     2530.305     5343.577     2422.790        1.107        0.515       78.882       45.805        0.337      344.871       21.998      859.568
06/11/2013  11:00:00      115.452      114.331       43.123       66.761       44.540       42.685     4457.095     1983.782     1822.011        1.826        0.413      162.483       28.139        0.030      344.523       21.400      859.554
06/11/2013  11:01:00       31.765      111.269      133.037       61.720       66.290       55.364     3809.314     4394.392     3065.152        2.118        0.563      115.715       49.946        0.186      344.869       21.993      859.528
06/11/2013  11:02:00      124.023      135.773      119.648       99.345       69.447       56.247     9869.499     4822.832     3163.698        3.299        0.893      183.891       50.888        0.077      344.742       21.774      859.510
06/11/2013  11:03:00       70.114      133.243      118.412       82.462       60.343       61.365     6799.991     3641.320     3765.699        2.545        0.710      150.565       51.832        0.119      344.851       21.960      859.520
06/11/2013  11:04:00       39.681       59.200       91.499       57.692       70.038       51.053     3328.352     4905.329     2606.382        1.214        0.542       71.269       43.075        0.365      345.294       22.722      859.523
06/11/2013  11:05:00      207.737      127.543       39.431      107.638       62.042       56.158    11586.029     3849.182     3153.702        3.978        0.929      243.766       44.599        0.033      344.884       22.015      859.526
06/11/2013  11:06:00      137.500      100.216       48.777       77.187       53.101       50.365     5957.791     2819.726     2536.635        2.132        0.566      170.145       44.165        0.067      345.111       22.408      859.536
06/11/2013  11:07:00       91.414       91.656       39.560       69.904       42.229       51.118     4886.554     1783.272     2613.046        1.380        0.464      129.450       20.794        0.026      345.184       22.533      859.559
06/11/2013  11:08:00       91.646       67.868       20.129       61.853       50.061       41.876     3825.834     2506.083     1753.585        1.075        0.404      114.040       35.625        0.098      345.436       22.964      859.569
06/11/2013  11:09:00      143.421       88.816       26.148       79.317       58.813       64.481     6291.142     3459.010     4157.744        2.152        0.695      168.694       41.499        0.061      345.209       22.573      859.572
06/11/2013  11:10:00       87.123       87.851       19.551       77.071       58.921       37.710     5939.987     3471.734     1422.075        1.326        0.542      123.726       26.401        0.046      345.055       22.309      859.571
06/11/2013  11:11:00      172.281       89.321       26.214       72.078       58.881       50.865     5195.301     3466.983     2587.280        2.480        0.562      194.059       27.342        0.020      345.135       22.446      859.566
06/11/2013  11:12:00      144.985      133.171       10.463       81.001       61.252       50.662     6561.214     3751.793     2566.595        2.587        0.644      196.863       38.938        0.039      345.177       22.518      859.556
06/11/2013  11:13:00      203.174      109.057       -2.075       63.052       50.436       49.019     3975.558     2543.813     2402.844        3.105        0.446      230.593       27.685        0.014      344.963       22.152      859.560
06/11/2013  11:14:00      177.713      107.393       21.520       59.398       46.467       49.385     3528.163     2159.164     2438.890        2.585        0.406      207.642       30.210        0.021      344.910       22.062      859.572
06/11/2013  11:15:00      104.367       74.771        5.444       42.398       32.519       29.596     1797.631     1057.491      875.910        1.012        0.187      128.386       17.511        0.019      345.082       22.359      859.610
06/11/2013  11:16:00       47.711       55.219        9.225       48.921       35.793       33.598     2393.307     1281.107     1128.853        0.511        0.240       72.976       26.247        0.129      345.342       22.805      859.638
06/11/2013  11:17:00       53.585       52.402       58.056       50.159       29.874       37.544     2515.895      892.481     1409.529        0.690        0.241       74.948       26.200        0.122      345.657       23.344      859.639
06/11/2013  11:18:00       75.391       45.498        7.279       28.571       30.035       29.249      816.294      902.110      855.524        0.519        0.129       88.056       20.006        0.052      345.130       22.441      859.635
06/11/2013  11:19:00       65.828       57.998       -5.664       29.077       38.483       23.630      845.460     1480.949      558.397        0.531        0.144       87.733       18.119        0.043      345.324       22.773      859.618
06/11/2013  11:20:00       65.854       52.517       22.212       21.752       19.779       30.792      473.135      391.220      948.166        0.470        0.091       84.230       11.976        0.020      345.418       22.935      859.611
06/11/2013  11:21:00       43.051       35.972       26.353       19.395       16.982       19.886      376.164      288.400      395.458        0.245        0.053       56.102        8.568        0.023      345.431       22.956      859.595
06/11/2013  11:22:00       14.030       39.692       20.188       28.632       31.018       24.966      819.777      962.123      623.279        0.229        0.120       42.099       21.723        0.266      345.997       23.928      859.579
06/11/2013  11:23:00      -22.561      133.850      -12.941       36.619       79.566       28.864     1340.922     6330.810      833.122        1.355        0.425      135.738       37.531        0.076      345.552       23.163      859.565
06/11/2013  11:24:00      -65.966       71.743      -17.253       46.497       41.556       27.261     2161.934     1726.896      743.156        0.721        0.232       97.461       16.946        0.030      345.484       23.048      859.564
06/11/2013  11:25:00     -116.690       36.524      -15.168       66.548       39.036       25.475     4428.701     1523.841      648.955        1.089        0.330      122.273       20.661        0.029      345.340       22.801      859.577
06/11/2013  11:26:00      -88.746      120.251       -8.677       69.999       82.710       43.833     4899.885     6840.968     1921.320        1.803        0.683      149.453       49.960        0.112      346.011       23.951      859.578
06/11/2013  11:27:00      -15.121       45.013       23.753       41.531       53.370       28.792     1724.802     2848.384      828.980        0.411        0.270       47.485       33.119        0.486      346.411       24.640      859.566
06/11/2013  11:28:00      -31.418      150.171      -11.831       30.437       56.702       32.306      926.440     3215.130     1043.702        1.443        0.259      153.423       28.749        0.035      345.930       23.813      859.534
06/11/2013  11:29:00        9.539      162.990       -9.500       65.668       84.588       47.351     4312.282     7155.070     2242.084        2.023        0.685      163.269       54.341        0.111      346.047       24.011      859.486
06/11/2013  11:30:00      -49.554      224.204      -22.769       35.649       42.380       28.220     1270.836     1796.034      796.359        2.855        0.193      229.615       16.814        0.005      345.666       23.355      859.456
06/11/2013  11:31:00      -64.527      127.047       -2.089       39.893       91.273       31.452     1591.462     8330.770      989.214        1.561        0.546      142.495       33.863        0.056      346.053       24.023      859.466
06/11/2013  11:32:00     -120.114        0.373      -25.166       43.572       84.520       25.097     1898.554     7143.650      629.841        1.236        0.484      120.115       14.381        0.014      345.578       23.209      859.485
06/11/2013  11:33:00      -62.905      -51.786        2.525       54.230       47.816       32.569     2940.878     2286.401     1060.746        0.647        0.314       81.479       29.517        0.131      346.000       23.933      859.499
06/11/2013  11:34:00      -39.395      -48.827        8.438       33.904       75.549       28.712     1149.477     5707.646      824.367        0.584        0.384       62.738       32.966        0.276      346.082       24.074      859.503
06/11/2013  11:35:00      -91.428       -3.035      -17.154       75.382       58.454       35.068     5682.443     3416.904     1229.731        0.949        0.516       91.479       40.568        0.197      346.034       23.991      859.489
06/11/2013  11:36:00     -211.592     -102.835      -35.824       44.073       62.133       26.751     1942.451     3860.509      715.638        3.157        0.326      235.257       19.957        0.007      345.770       23.534      859.473
06/11/2013  11:37:00      -82.945      -25.264        9.444       70.990       64.169       35.902     5039.647     4117.717     1288.953        0.902        0.522       86.707       44.888        0.268      346.366       24.562      859.439
06/11/2013  11:38:00       83.651       55.810       30.344       56.935       35.647       35.712     3241.547     1270.724     1275.378        0.841        0.289      100.560       28.696        0.081      346.458       24.719      859.453
06/11/2013  11:39:00       55.418       78.830       -4.799       60.901       48.099       40.469     3708.895     2313.561     1637.725        0.848        0.383       96.361       29.192        0.092      346.356       24.545      859.485
06/11/2013  11:40:00       14.079       64.047       11.415       64.918       49.916       43.183     4214.314     2491.656     1864.730        0.650        0.429       65.577       32.058        0.239      346.594       24.955      859.481
06/11/2013  11:41:00        7.309       86.081       -3.505       72.208       73.447       46.008     5213.939     5394.529     2116.713        1.010        0.636       86.391       45.081        0.272      346.480       24.757      859.419
06/11/2013  11:42:00     -268.735      123.280      -45.487       83.688      102.827       52.230     7003.670    10573.493     2727.953        5.489        1.015      295.662       51.863        0.031      346.459       24.718      859.335
06/11/2013  11:43:00     -225.369      -22.304      -26.672      102.629       95.200       48.329    10532.711     9062.996     2335.694        3.696        1.097      226.470       45.226        0.040      346.306       24.456      859.437
06/11/2013  11:44:00      -45.238      -33.168        8.421       77.023       75.158       32.419     5932.518     5648.686     1050.970        0.792        0.632       56.094       34.772        0.384      346.441       24.690      859.498
06/11/2013  11:45:00     -127.992      -94.930      -14.078       95.637       66.454       35.342     9146.355     4416.168     1249.055        2.020        0.741      159.354       30.918        0.038      346.276       24.406      859.491
06/11/2013  11:46:00      -34.284      -18.582        5.632       24.171       28.516       20.802      584.249      813.141      432.713        0.169        0.092       38.996       10.872        0.078      346.331       24.501      859.466
06/11/2013  11:47:00      -68.846      -75.570       13.322      111.450       87.543       58.208    12421.112     7663.802     3388.141        1.705        1.174      102.228       62.891        0.378      346.696       25.129      859.477
06/11/2013  11:48:00      -60.667     -111.708        2.010       75.308      102.668       47.014     5671.233    10540.661     2210.347        1.729        0.921      127.118       36.158        0.081      346.702       25.140      859.504
06/11/2013  11:49:00        5.012     -254.602      -35.024      137.901       70.537       61.487    19016.666     4975.503     3780.695        4.692        1.389      254.651       35.619        0.020      346.506       24.798      859.494
06/11/2013  11:50:00      -16.746     -116.244       16.938       93.286       90.862       66.521     8702.272     8255.819     4425.065        1.773        1.069      117.444       51.194        0.190      346.589       24.943      859.459
06/11/2013  11:51:00       57.503      -83.260       12.143       74.130      101.071       75.349     5495.315    10215.410     5677.476        1.588        1.069      101.187       57.257        0.320      346.551       24.880      859.443
06/11/2013  11:52:00     -286.716     -167.995       -0.531      166.519      110.250       67.508    27728.466    12155.016     4557.377        7.743        2.222      332.308       70.975        0.046      346.647       25.042      859.498
06/11/2013  11:53:00     -186.901     -118.035        8.454      147.980      123.704       81.203    21898.076    15302.630     6593.871        4.636        2.190      221.053       85.834        0.151      346.448       24.701      859.497
06/11/2013  11:54:00     -150.720     -143.943        2.857      199.335      129.551       62.099    39734.250    16783.485     3856.276        5.190        3.019      208.413       86.254        0.171      346.511       24.808      859.484
06/11/2013  11:55:00     -352.980     -120.661       -0.445      173.541      149.639       82.447    30116.565    22391.957     6797.475        9.922        2.965      373.033       98.570        0.070      346.523       24.829      859.481
06/11/2013  11:56:00     -247.305     -219.987       -0.184      146.370      110.301       72.019    21424.157    12166.215     5186.774        7.416        1.939      330.990       77.905        0.055      346.420       24.651      859.498
06/11/2013  11:57:00     -288.673     -245.899       10.013      210.382      120.715       87.958    44260.383    14572.041     7736.546       10.522        3.328      379.207      107.605        0.081      346.387       24.595      859.511
06/11/2013  11:58:00     -246.493     -228.599        3.824      143.073      118.031       87.769    20469.897    13931.248     7703.476        7.756        2.105      336.179       98.218        0.085      346.495       24.781      859.525
06/11/2013  11:59:00     -137.328     -148.566        2.839      152.188       96.735       74.987    23161.058     9357.694     5622.982        3.953        1.907      202.314       75.310        0.139      346.495       24.782      859.562
06/11/2013  12:00:00     -258.216     -126.554       -0.360      162.189      128.478       66.660    26305.312    16506.636     4443.539        6.496        2.363      287.562       73.721        0.066      346.328       24.491      859.546
06/11/2013  12:01:00     -212.194      -62.804        7.698      106.251       97.373       56.324    11289.318     9481.515     3172.441        3.648        1.197      221.293       59.777        0.073      346.509       24.804      859.530
06/11/2013  12:02:00     -319.705     -189.139       -8.336      208.758      139.629       79.711    43579.735    19496.263     6353.872       10.373        3.471      371.463       95.809        0.067      346.446       24.698      859.512
06/11/2013  12:03:00     -363.942     -139.834      -11.171      177.392      129.349       70.977    31468.050    16731.177     5037.729       10.267        2.662      389.881       86.078        0.049      346.285       24.419      859.519
06/11/2013  12:04:00     -162.753     -213.593       -5.386      120.323       79.813       51.744    14477.739     6370.119     2677.460        4.783        1.176      268.535       55.873        0.043      346.202       24.277      859.508
06/11/2013  12:05:00     -236.534     -182.392       -7.468       96.822      100.330       64.628     9374.547    10066.108     4176.716        5.644        1.181      298.689       57.631        0.037      346.467       24.732      859.523
06/11/2013  12:06:00     -123.425     -113.193       13.845      134.998       95.437       52.322    18224.400     9108.214     2737.565        2.915        1.504      167.471       60.867        0.132      346.588       24.943      859.492
06/11/2013  12:07:00     -286.310      -49.379        4.456      157.038      182.598       80.144    24660.921    33341.950     6422.992        7.442        3.221      290.537       76.134        0.069      346.718       25.164      859.490
06/11/2013  12:08:00     -229.809     -122.202       -0.006      168.448       94.880       60.382    28374.651     9002.252     3646.020        5.438        2.051      260.280       68.463        0.069      346.703       25.137      859.522
06/11/2013  12:09:00     -229.363     -218.242      -13.209      160.925      114.720       75.555    25896.888    13160.723     5708.584        7.258        2.238      316.602       89.116        0.079      346.555       24.883      859.534
06/11/2013  12:10:00     -140.054     -140.664       15.053      153.038       90.714       79.005    23420.753     8228.956     6241.869        3.875        1.895      198.498       88.308        0.198      346.783       25.276      859.543
06/11/2013  12:11:00      -35.550      -45.530       28.784       60.288       97.199       44.575     3634.676     9447.553     1986.962        0.961        0.753       57.765       53.624        0.862      346.963       25.591      859.539
06/11/2013  12:12:00      111.870      -89.418       21.057       76.418       92.233       79.402     5839.684     8507.015     6304.671        2.080        1.033      143.215       71.628        0.250      347.021       25.687      859.496
06/11/2013  12:13:00       43.760      -18.898       44.396       90.461       90.817       45.441     8183.167     8247.800     2064.902        1.137        0.925       47.666       56.857        1.423      346.978       25.614      859.499
06/11/2013  12:14:00       -8.073      -19.883       -3.378       84.234       34.282       25.969     7095.451     1175.246      674.402        0.471        0.447       21.459       18.534        0.746      346.858       25.407      859.484
06/11/2013  12:15:00     -137.135     -111.502        6.817       81.326       57.193       39.739     6613.912     3271.063     1579.212        2.137        0.573      176.745       31.141        0.031      346.727       25.181      859.497
06/11/2013  12:16:00      -53.248     -113.045        8.100       82.768       66.602       40.370     6850.511     4435.773     1629.752        1.430        0.646      124.958       28.761        0.053      346.734       25.194      859.510
06/11/2013  12:17:00      -70.050      -69.912        1.826       63.767       71.112       49.839     4066.260     5056.954     2483.975        1.070        0.580       98.968       37.762        0.146      346.808       25.323      859.485
06/11/2013  12:18:00      -96.727      -13.378       -7.823       43.347       60.820       35.310     1878.934     3699.047     1246.814        0.821        0.341       97.648       21.255        0.047      346.867       25.423      859.474
06/11/2013  12:19:00     -312.967     -135.625      -18.119      223.484      125.053       85.213    49944.900    15638.226     7261.303        9.474        3.642      341.090       92.088        0.073      346.764       25.243      859.488
06/11/2013  12:20:00     -402.229     -243.748       -0.660      259.549      192.553       99.743    67365.524    37076.624     9948.703       16.777        5.720      470.320      129.504        0.076      346.581       24.927      859.499
06/11/2013  12:21:00     -252.496     -123.453       -9.529      152.371      126.020       74.219    23216.860    15881.004     5508.466        6.184        2.230      281.060       77.592        0.076      346.695       25.125      859.493
06/11/2013  12:22:00     -246.925     -178.684        1.079      183.054      117.426       76.797    33508.777    13788.964     5897.755        7.304        2.660      304.795       74.306        0.059      346.965       25.590      859.499
06/11/2013  12:23:00     -425.209     -300.927      -18.549      195.009      135.623       94.777    38028.438    18393.550     8982.724       16.854        3.270      520.922       94.987        0.033      346.810       25.321      859.517
06/11/2013  12:24:00     -202.210     -197.408        3.100      184.485      130.245       83.481    34034.855    16963.636     6969.066        6.891        2.898      282.593       99.631        0.124      346.769       25.250      859.569
06/11/2013  12:25:00     -246.712     -211.544       -2.079      149.175      133.824       66.988    22253.085    17908.750     4487.423        7.513        2.232      324.988       60.565        0.035      346.530       24.841      859.562
06/11/2013  12:26:00     -215.396     -159.810       12.186      158.091      127.855       74.629    24992.869    16347.011     5569.424        5.949        2.345      268.207       73.431        0.075      346.550       24.875      859.550
06/11/2013  12:27:00     -327.864     -189.797      -23.676      137.896      156.440       70.956    19015.295    24473.624     5034.683        9.629        2.426      378.837       79.513        0.044      346.323       24.485      859.550
06/11/2013  12:28:00     -248.258     -120.174        0.846      104.300      104.009       50.453    10878.554    10817.908     2545.543        5.015        1.212      275.815       51.366        0.035      346.357       24.542      859.555
06/11/2013  12:29:00     -242.643     -159.753      -10.438       85.349       71.607       50.345     7284.385     5127.548     2534.620        4.972        0.747      290.512       48.448        0.028      346.316       24.471      859.546
06/11/2013  12:30:00     -131.377     -171.020       -2.576       88.300       95.125       45.265     7796.906     9048.684     2048.946        3.270        0.945      215.657       49.532        0.053      346.568       24.908      859.579
06/11/2013  12:31:00     -324.339     -264.342       -7.860      173.173      170.413       89.415    29988.866    29040.467     7995.025       12.107        3.351      418.417       93.868        0.050      346.452       24.706      859.591
06/11/2013  12:32:00     -436.919      -27.256      -24.322      226.338      163.837       85.695    51228.809    26842.443     7343.635       13.881        4.271      437.768      103.226        0.056      346.514       24.814      859.570
06/11/2013  12:33:00     -101.512      -76.100       28.200      132.101      125.982       70.293    17450.754    15871.457     4941.137        2.757        1.913      126.870       74.350        0.343      347.145       25.901      859.566
06/11/2013  12:34:00     -156.040      -83.344        5.819      163.366      105.465       72.342    26688.606    11122.784     5233.395        3.718        2.152      176.903       65.932        0.139      346.747       25.216      859.572
06/11/2013  12:35:00     -143.365      -82.528       -4.262       77.008       74.618       35.713     5930.260     5567.906     1275.425        2.008        0.639      165.421       36.806        0.050      346.420       24.652      859.562
06/11/2013  12:36:00      -78.586      -69.449       12.712       77.237       65.631       45.826     5965.577     4307.457     2100.029        1.176        0.619      104.876       53.027        0.256      346.790       25.292      859.550
06/11/2013  12:37:00     -121.848      -50.827       13.692       95.285      108.220       51.447     9079.299    11711.621     2646.801        2.052        1.172      132.024       53.669        0.165      347.025       25.694      859.566
06/11/2013  12:38:00     -322.588     -203.418       -9.573      119.893       96.980       61.550    14374.370     9405.161     3788.453        8.655        1.378      381.369       61.001        0.026      346.454       24.709      859.586
06/11/2013  12:39:00      -79.776      -51.151       11.270       94.046       51.666       43.927     8844.650     2669.400     1929.595        1.127        0.672       94.766       37.498        0.157      346.970       25.600      859.562
06/11/2013  12:40:00     -231.722     -196.322       -4.541      147.272      170.771       63.774    21689.047    29162.756     4067.127        7.358        2.746      303.706       56.150        0.034      346.662       25.067      859.586
06/11/2013  12:41:00     -274.849     -140.910        3.331      198.108      134.167       87.461    39246.589    18000.696     7649.367        8.014        3.245      308.865       97.977        0.101      346.815       25.330      859.574
06/11/2013  12:42:00     -470.706     -331.162       -9.733      240.026      131.745       91.512    57612.285    17356.843     8374.397       20.732        4.167      575.528      105.557        0.034      346.381       24.585      859.558
06/11/2013  12:43:00     -555.236     -226.583      -12.280      242.270      199.307       99.296    58694.589    39723.440     9859.606       23.401        5.414      599.689       97.573        0.026      346.381       24.584      859.555
06/11/2013  12:44:00     -366.597      -30.658      -15.840      209.746      120.426       75.951    43993.349    14502.349     5768.519        9.991        3.213      367.877       92.797        0.064      346.809       25.319      859.535
06/11/2013  12:45:00     -289.524     -222.529       -6.857      157.041      148.494       70.916    24662.021    22050.452     5029.083        9.256        2.587      365.162       71.839        0.039      346.633       25.017      859.557
06/11/2013  12:46:00     -348.967     -178.501      -14.674      134.442      133.384       69.099    18074.687    17791.352     4774.622        9.724        2.032      391.970       73.438        0.035      346.467       24.733      859.524
06/11/2013  12:47:00     -265.825     -117.845        1.310      137.314      110.228       61.826    18855.146    12150.276     3822.459        5.968        1.741      290.776       64.884        0.050      346.782       25.274      859.493
06/11/2013  12:48:00     -224.959      -63.430        7.177      173.500      134.722       75.043    30102.089    18149.894     5631.437        5.427        2.694      233.731       82.662        0.125      347.122       25.861      859.503
06/11/2013  12:49:00     -415.143     -103.637      -16.088      254.138      151.750       82.527    64586.232    23027.915     6810.662       13.886        4.721      427.884       94.740        0.049      346.766       25.248      859.497
06/11/2013  12:50:00     -452.216      -85.507      -18.736      193.649      160.452       83.411    37500.097    25744.711     6957.477       14.117        3.510      460.229      109.967        0.057      346.715       25.160      859.507
06/11/2013  12:51:00     -353.746     -108.632       -4.036      265.288      210.115      107.494    70377.662    44148.420    11554.928       13.149        6.304      370.050      102.177        0.076      346.702       25.135      859.433
06/11/2013  12:52:00     -469.818     -230.062       13.071      245.212      176.638      117.725    60128.699    31200.918    13859.234       18.949        5.259      523.122      126.925        0.059      346.445       24.694      859.517
06/11/2013  12:53:00     -374.482     -275.648        7.128      195.979      157.006      102.141    38407.894    24650.843    10432.696       14.487        3.675      464.993      107.532        0.053      346.484       24.762      859.526
06/11/2013  12:54:00     -325.831     -148.353       -5.940      227.479      139.835       76.465    51746.617    19553.919     5846.888       10.266        3.857      358.015       73.197        0.042      346.688       25.112      859.525
06/11/2013  12:55:00     -321.370     -233.441       -6.819      233.758      186.598      106.589    54642.851    34818.914    11361.305       12.930        5.041      397.207      121.119        0.093      346.586       24.937      859.537
06/11/2013  12:56:00     -271.580     -229.811        6.558      202.207      206.900      116.998    40887.850    42807.436    13688.596       11.198        4.869      355.765      115.235        0.105      346.627       25.008      859.523
06/11/2013  12:57:00     -381.884       -1.865       -4.436      181.287      181.111       85.382    32864.893    32801.206     7290.017       10.939        3.648      381.888       96.172        0.063      346.818       25.335      859.519
06/11/2013  12:58:00     -318.177       -5.797       -0.353      263.767      117.451       76.760    69572.959    13794.846     5892.072        9.525        4.463      318.230      117.246        0.136      346.932       25.534      859.518
06/11/2013  12:59:00     -188.916        3.142       16.586      153.738      125.168       75.843    23635.464    15667.038     5752.228        4.051        2.253      188.942       72.025        0.145      347.173       25.947      859.473
06/11/2013  13:00:00     -324.434     -290.400       18.588      252.445      175.807      118.003    63728.332    30908.019    13924.761       14.923        5.428      435.418      124.520        0.082      346.930       25.527      859.461
06/11/2013  13:01:00     -299.711      -40.898        8.606      237.612      166.370       98.052    56459.548    27678.998     9614.256        9.264        4.688      302.488      111.796        0.137      347.087       25.799      859.493
06/11/2013  13:02:00     -233.342     -227.130        5.942      170.728      143.076       83.413    29148.088    20470.837     6957.756        8.131        2.829      325.632       98.115        0.091      346.866       25.419      859.478
06/11/2013  13:03:00     -265.775     -259.231        3.537      202.662      142.459       90.977    41071.976    20294.645     8276.762       10.373        3.482      371.264      100.581        0.073      346.914       25.501      859.466
06/11/2013  13:04:00     -522.781     -363.240      -15.409      275.111      209.365      124.381    75686.170    43833.891    15470.750       27.021        6.750      636.587      146.210        0.053      346.746       25.210      859.422
06/11/2013  13:05:00     -428.753     -254.957      -15.909      235.192      209.288      126.964    55315.371    43801.423    16119.882       18.214        5.762      498.831      133.278        0.071      346.760       25.236      859.448
06/11/2013  13:06:00     -262.323     -183.805       11.339      201.706      173.650       94.942    40685.487    30154.344     9013.921        9.127        3.993      320.308      108.222        0.114      346.915       25.504      859.467
06/11/2013  13:07:00     -246.994     -156.735        2.352      234.257      131.901       79.693    54876.375    17397.889     6351.006        8.209        3.931      292.527      108.227        0.137      347.032       25.705      859.468
06/11/2013  13:08:00     -206.561     -155.238       -5.187      202.057      133.839       82.225    40827.213    17912.841     6760.921        6.613        3.275      258.392       99.708        0.149      347.132       25.877      859.450
06/11/2013  13:09:00     -289.099     -125.630      -11.614      172.380      174.640       86.421    29714.779    30499.096     7468.602        8.358        3.384      315.216       79.855        0.064      346.886       25.454      859.441
06/11/2013  13:10:00     -342.757     -137.556      -15.830      180.141      181.833       78.879    32450.922    33063.247     6221.932       10.418        3.587      369.329       77.496        0.044      347.018       25.680      859.456
06/11/2013  13:11:00     -192.027      -71.169       20.017      159.099      156.084       86.467    25312.457    24362.094     7476.500        4.973        2.858      204.791       87.474        0.182      346.895       25.470      859.488
06/11/2013  13:12:00     -375.610     -155.181      -17.955      271.786      172.458       90.376    73867.506    29741.689     8167.855       13.861        5.589      406.404      112.385        0.076      346.751       25.220      859.446
06/11/2013  13:13:00     -427.601     -154.094      -19.977      292.517      219.223      101.144    85566.202    48058.841    10230.133       17.539        7.193      454.519      127.991        0.079      346.850       25.390      859.441
06/11/2013  13:14:00     -419.972     -115.483      -13.872      140.763      137.294       64.111    19814.157    18849.590     4110.165       11.633        2.139      435.561       61.620        0.020      346.725       25.176      859.519
06/11/2013  13:15:00     -387.998      -83.560       -2.199      246.297      193.327       80.101    60662.424    37375.421     6416.109       13.097        5.223      396.893      106.302        0.072      346.760       25.238      859.561
06/11/2013  13:16:00     -367.075     -179.966       -7.660      201.327      116.804       79.985    40532.595    13643.274     6397.574       11.387        3.029      408.818       88.404        0.047      346.731       25.186      859.575
06/11/2013  13:17:00     -362.062     -290.734        4.376      260.984      209.539      116.356    68112.623    43906.559    13538.795       17.057        6.278      464.344      124.696        0.072      346.590       24.943      859.530
06/11/2013  13:18:00     -534.451     -240.412      -19.796      232.317      176.608      104.401    53971.157    31190.470    10899.603       21.992        4.803      586.034      123.567        0.044      346.563       24.898      859.465
06/11/2013  13:19:00     -289.295     -251.027       11.429      171.780      159.395       90.553    29508.425    25406.784     8199.883       10.496        3.156      383.023       90.494        0.056      346.732       25.188      859.481
06/11/2013  13:20:00     -291.260     -122.079        6.392      235.970      205.596       99.011    55681.825    42269.825     9803.181       10.374        5.388      315.809      115.631        0.134      347.043       25.723      859.472
06/11/2013  13:21:00     -274.002      -51.446        1.688      172.204      183.143       86.821    29654.378    33541.397     7537.924        7.422        3.537      278.790       85.790        0.095      347.126       25.867      859.495
06/11/2013  13:22:00     -255.610     -231.024       -4.547      260.867      198.211       99.352    68051.737    39287.751     9870.756       11.795        5.861      344.541      111.362        0.104      346.901       25.480      859.518
06/11/2013  13:23:00     -320.988     -231.657       17.121      223.382      178.870       84.586    49899.504    31994.475     7154.835       12.300        4.452      395.851       94.601        0.057      346.849       25.391      859.486
06/11/2013  13:24:00     -375.149      -61.264      -28.721      159.716      154.045       72.704    25509.199    23729.856     5285.925        9.991        2.726      380.119       62.203        0.027      347.093       25.809      859.519
06/11/2013  13:25:00     -382.293     -243.036        3.241      205.503      156.624       82.083    42231.540    24531.147     6737.559       13.935        3.675      453.006       89.560        0.039      346.819       25.336      859.542
06/11/2013  13:26:00     -385.682     -218.557      -23.775      167.403      159.837       78.697    28023.629    25547.891     6193.271       12.841        2.988      443.303       73.229        0.027      346.567       24.905      859.531
06/11/2013  13:27:00     -135.705      -98.133       19.131      145.596      136.683       68.452    21198.267    18682.321     4685.743        3.648        2.228      167.469       81.361        0.236      346.875       25.436      859.507
06/11/2013  13:28:00     -434.451      -90.177       -5.704      226.974      149.552       92.740    51517.010    22365.772     8600.652       13.968        4.124      443.711      100.176        0.051      346.981       25.616      859.489
06/11/2013  13:29:00     -514.927      -46.372       -0.089      228.653      191.991      107.268    52282.164    36860.678    11506.388       18.395        5.032      517.011      112.717        0.048      346.758       25.233      859.452
06/11/2013  13:30:00     -492.759      -48.759      -19.151      198.802      155.987       93.381    39522.424    24332.091     8719.922       15.905        3.629      495.165       90.677        0.034      347.037       25.711      859.485
06/11/2013  13:31:00     -389.684     -171.927      -26.643      184.775      185.445       86.336    34141.751    34389.708     7453.888       12.904        3.799      425.926       93.047        0.048      346.918       25.508      859.532
06/11/2013  13:32:00     -336.143     -156.081        6.178      251.198      192.848       95.331    63100.469    37190.426     9087.932       12.336        5.469      370.612      110.146        0.088      346.975       25.607      859.513
06/11/2013  13:33:00     -265.731     -191.126        1.048      165.846      124.055       77.650    27504.867    15389.762     6029.463        7.802        2.446      327.325       80.014        0.060      347.020       25.683      859.461
06/11/2013  13:34:00     -317.556      -97.426       26.817      258.678      261.543      116.346    66914.352    68404.594    13536.403       12.992        7.443      332.165      145.939        0.193      347.085       25.797      859.470
06/11/2013  13:35:00     -386.253     -197.426      -17.125      218.998      186.582      105.369    47960.190    34812.873    11102.706       14.115        4.694      433.784      108.016        0.062      346.923       25.516      859.450
06/11/2013  13:36:00     -410.286      -93.669        5.795      317.642      190.000      106.826   100896.647    36100.105    11411.772       16.275        7.420      420.842      116.175        0.076      347.006       25.660      859.504
06/11/2013  13:37:00     -740.613      -55.729      -41.635      272.409      228.018      112.964    74206.478    51992.315    12760.974       34.613        6.948      742.707      108.569        0.021      346.562       24.896      859.470
06/11/2013  13:38:00     -557.191     -206.602      -10.633      308.191      228.454      132.300    94981.882    52191.021    17503.227       25.893        8.234      594.261      164.598        0.077      346.762       25.239      859.476
06/11/2013  13:39:00     -429.691     -294.066        4.937      246.300      167.868      109.758    60663.513    28179.581    12046.758       18.599        5.044      520.682      116.321        0.050      346.610       24.979      859.515
06/11/2013  13:40:00     -405.466     -135.703      -19.238      244.183      136.965       88.222    59625.151    18759.488     7783.201       13.466        4.308      427.572      103.323        0.058      346.821       25.340      859.529
06/11/2013  13:41:00     -350.908      -39.798      -13.249      232.711      187.968       81.977    54154.475    35331.896     6720.149       11.053        4.810      353.158       86.795        0.060      346.889       25.457      859.489
06/11/2013  13:42:00     -417.059     -170.436      -14.944      194.449      153.528       73.904    37810.325    23570.853     5461.845       13.501        3.342      450.540       76.340        0.029      346.835       25.366      859.425
06/11/2013  13:43:00     -523.067     -248.924      -22.481      244.024      190.448       89.046    59547.926    36270.280     7929.270       21.989        5.187      579.278       90.074        0.024      346.995       25.641      859.417
06/11/2013  13:44:00     -454.664     -179.784      -41.012      287.910      262.090      111.536    82892.044    68691.290    12440.216       20.234        8.201      488.919      117.767        0.058      346.823       25.344      859.424
06/11/2013  13:45:00     -447.265     -176.184        2.674      248.574      210.691      111.973    61788.914    44390.675    12537.844       17.488        5.936      480.715      121.390        0.064      346.874       25.433      859.444
06/11/2013  13:46:00     -548.502     -145.007      -13.914      312.996      211.096      121.213    97966.326    44561.324    14692.486       23.962        7.861      567.346      144.897        0.065      346.737       25.196      859.451
06/11/2013  13:47:00     -313.599     -164.231       -8.389      253.481      191.948      110.515    64252.756    36843.927    12213.576       11.933        5.666      354.000      112.946        0.102      346.846       25.385      859.476
06/11/2013  13:48:00     -502.185     -270.528      -28.670      271.278      223.550      110.680    73591.726    49974.788    12249.991       23.098        6.791      570.417      116.810        0.042      346.642       25.032      859.460
06/11/2013  13:49:00     -425.085     -100.157       10.942      269.658      201.393      110.985    72715.613    40558.964    12317.583       15.820        6.280      436.725      135.133        0.096      346.922       25.514      859.439
06/11/2013  13:50:00     -202.343     -100.708        4.592      152.103      157.629       72.961    23135.410    24846.806     5323.333        5.219        2.665      226.019       64.561        0.082      347.209       26.009      859.476
06/11/2013  13:51:00     -409.283     -213.135        9.152      293.828      236.535      115.815    86334.747    55948.932    13413.141       18.433        7.785      461.453      120.466        0.068      347.029       25.698      859.467
06/11/2013  13:52:00     -494.424     -150.441      -15.164      304.610      236.076      126.160    92787.123    55731.797    15916.414       21.584        8.222      516.805      139.162        0.073      346.860       25.408      859.448
06/11/2013  13:53:00     -385.587     -218.042        5.528      315.971      219.296      125.076    99837.597    48090.953    15644.080       17.988        8.179      442.967      164.598        0.138      346.767       25.248      859.484
06/11/2013  13:54:00     -420.074     -315.406      -20.778      223.202      207.152      113.853    49819.091    42911.866    12962.596       19.101        5.285      525.304      126.450        0.058      346.681       25.101      859.440
06/11/2013  13:55:00     -416.517     -162.073       -0.596      271.247      188.823      119.315    73574.971    35654.088    14235.965       16.158        6.173      446.939      141.651        0.100      346.860       25.409      859.463
06/11/2013  13:56:00     -366.299     -115.473       -0.335      222.328      192.516       95.868    49429.691    37062.250     9190.582       12.158        4.784      384.069      107.282        0.078      346.918       25.509      859.485
06/11/2013  13:57:00     -488.537     -303.005      -19.691      235.073      196.971      100.924    55259.386    38797.598    10185.609       21.753        5.212      574.875      104.275        0.033      346.775       25.261      859.453
06/11/2013  13:58:00     -539.441     -264.256       -4.407      253.884      232.013      113.483    64457.166    53830.207    12878.377       24.598        6.558      600.690      124.445        0.043      346.894       25.466      859.434
06/11/2013  13:59:00     -670.542     -196.128      -21.206      299.307      290.319      130.129    89584.791    84285.225    16933.486       33.964        9.540      698.637      153.149        0.048      346.638       25.025      859.411
06/11/2013  14:00:00     -575.499     -259.405      -27.009      313.514      267.086      117.210    98290.976    71334.922    13738.161       29.125        9.168      631.261      126.401        0.040      346.560       24.892      859.379
06/11/2013  14:01:00     -451.715     -345.927      -11.321      264.514      202.316      117.888    69967.482    40931.709    13897.504       22.429        6.240      568.957      119.414        0.044      346.605       24.970      859.327
06/11/2013  14:02:00     -585.158     -268.093      -18.293      231.068      210.339       98.518    53392.487    44242.369     9705.889       26.096        5.367      643.648       97.627        0.023      346.772       25.257      859.406
06/11/2013  14:03:00     -304.061     -138.812      -20.541      167.800      160.171       80.752    28156.811    25654.786     6520.837        8.623        3.017      334.248       80.926        0.059      347.093       25.809      859.400
06/11/2013  14:04:00     -557.077     -271.253      -39.836      255.904      229.220      116.812    65487.081    52541.954    13645.064       25.856        6.584      619.607      107.611        0.030      346.859       25.406      859.424
06/11/2013  14:05:00     -595.333     -248.463      -18.034      315.025      280.715      140.582    99240.796    78801.059    19763.256       30.710        9.890      645.101      154.039        0.057      346.793       25.292      859.404
06/11/2013  14:06:00     -509.978     -244.555      -23.272      275.911      233.414      108.080    76126.697    54482.260    11681.229       23.133        7.115      565.584      115.878        0.042      346.662       25.067      859.437
06/11/2013  14:07:00     -366.474     -312.585       14.760      240.995      209.680      112.881    58078.417    43965.548    12742.017       17.349        5.739      481.677      120.437        0.063      346.625       25.005      859.421
06/11/2013  14:08:00     -307.955     -169.681        8.735      213.462      141.515      103.222    45565.884    20026.416    10654.805        9.996        3.812      351.608      122.035        0.120      346.978       25.611      859.472
06/11/2013  14:09:00     -295.622     -238.200       18.333      198.787      249.386      103.933    39516.191    62193.510    10802.054       12.847        5.626      379.646      110.395        0.085      346.799       25.303      859.403
06/11/2013  14:10:00     -562.418      -67.652      -30.372      351.685      195.827       92.114   123682.540    38348.222     8485.070       24.613        8.526      566.473      132.353        0.055      347.036       25.711      859.373
06/11/2013  14:11:00     -700.926     -205.678      -26.474      379.735      244.580      122.467   144198.811    59819.170    14998.096       37.662       10.951      730.480      147.855        0.041      346.926       25.521      859.358
06/11/2013  14:12:00     -630.871     -163.591       -9.734      331.344      229.003      142.632   109788.927    52442.526    20343.835       30.368        9.129      651.736      161.208        0.061      346.767       25.248      859.372
06/11/2013  14:13:00     -321.392     -119.838       24.796      280.899      223.736      114.280    78904.459    50057.950    13059.808       13.012        7.101      343.007      130.359        0.144      347.027       25.696      859.462
06/11/2013  14:14:00     -493.462      -99.299       -4.822      236.774      152.522      103.334    56061.773    23263.107    10677.974       17.168        4.500      503.353      115.102        0.052      346.909       25.491      859.498
06/11/2013  14:15:00     -262.989     -133.006        9.730      192.983      150.992       98.261    37242.320    22798.486     9655.314        7.831        3.485      294.709      105.522        0.128      346.931       25.531      859.486
06/11/2013  14:16:00     -458.243     -154.825      -33.336      264.312      149.704       98.495    69861.065    22411.216     9701.358       16.850        5.099      483.691      118.862        0.060      346.889       25.459      859.446
06/11/2013  14:17:00     -313.446      -57.520        8.256      222.818      132.208       77.750    49647.688    17478.985     6045.106        8.738        3.659      318.680       88.083        0.076      346.862       25.413      859.348
06/11/2013  14:18:00     -424.665     -170.143      -17.087      368.509      254.993      141.595   135799.129    65021.230    20049.060       21.518       11.043      457.481      165.792        0.131      347.005       25.659      859.299
06/11/2013  14:19:00     -525.230     -272.078      -20.528      314.399      260.250      125.566    98846.955    67729.806    15766.745       26.629        9.117      591.518      141.832        0.057      346.902       25.480      859.337
06/11/2013  14:20:00     -371.179     -288.079       11.067      297.518      231.638      132.869    88516.764    53656.275    17654.168       19.033        7.991      469.855      153.732        0.107      346.946       25.556      859.350
06/11/2013  14:21:00     -312.129     -157.161        0.497      255.548      170.689       97.484    65305.020    29134.654     9503.145       11.301        5.197      349.462      121.316        0.121      347.066       25.764      859.350
06/11/2013  14:22:00     -211.537      -72.373        5.747      203.415      200.251      108.334    41377.603    40100.301    11736.354        7.160        4.661      223.575      106.995        0.229      347.282       26.135      859.333
06/11/2013  14:23:00     -548.782     -278.366       -1.585      427.396      309.382      118.904   182667.698    95717.269    14138.105       33.553       14.626      615.345      168.833        0.075      346.918       25.509      859.327
06/11/2013  14:24:00     -307.275      -86.751       -1.957      324.181      227.224      144.168   105093.276    51630.584    20784.348       13.969        8.875      319.286      166.225        0.271      346.875       25.435      859.297
06/11/2013  14:25:00     -528.864     -318.398       -5.653      339.183      215.720      132.324   115044.985    46535.263    17509.730       28.006        8.954      617.313      157.168        0.065      346.722       25.170      859.256
06/11/2013  14:26:00     -535.462     -219.190      -24.996      293.468      202.350      127.320    86123.549    40945.597    16210.490       23.931        7.164      578.588      137.407        0.056      346.780       25.270      859.266
06/11/2013  14:27:00     -481.201     -189.518      -10.142      348.908      254.467      129.964   121736.560    64753.460    16890.593       23.544       10.169      517.177      170.284        0.108      346.883       25.449      859.313
06/11/2013  14:28:00     -277.394     -140.182       -3.029      241.597      185.867       96.204    58369.123    34546.439     9255.159        9.937        5.109      310.803       96.950        0.097      346.888       25.456      859.350
06/11/2013  14:29:00     -292.283     -239.651       24.300      261.814      177.569      121.082    68546.521    31530.732    14660.949       12.907        5.737      377.971      126.769        0.112      346.981       25.615      859.306
06/11/2013  14:30:00     -446.678     -259.237       -9.815      224.546      171.715      110.462    50420.871    29486.075    12201.747       17.945        4.605      516.454      108.939        0.044      346.952       25.566      859.322
06/11/2013  14:31:00     -512.718     -145.177      -29.153      222.134      269.836      102.389    49343.672    72811.468    10483.448       20.870        6.632      532.875      111.856        0.044      346.693       25.120      859.390
06/11/2013  14:32:00     -401.587     -109.765      -11.223      218.409      180.478      100.201    47702.293    32572.207    10040.162       13.186        4.516      416.318       88.487        0.045      346.776       25.263      859.408
06/11/2013  14:33:00     -438.032       -6.618      -44.607      177.007      147.222       73.722    31331.370    21674.298     5434.888       12.616        2.922      438.082       85.016        0.038      346.752       25.223      859.359
06/11/2013  14:34:00     -307.325      -45.883      -42.825      147.695      178.420       60.289    21813.841    31833.658     3634.742        7.782        2.864      310.731       69.254        0.050      346.637       25.025      859.357
06/11/2013  14:35:00     -270.227      -69.073       -4.440      204.687      146.196       64.666    41896.916    21373.353     4181.674        7.262        3.373      278.915       73.502        0.069      346.997       25.644      859.305
06/11/2013  14:36:00     -378.394     -238.887       -4.018      264.493      226.780      109.470    69956.336    51429.358    11983.766       16.679        6.668      447.492      142.986        0.102      347.096       25.813      859.341
06/11/2013  14:37:00     -425.031      -54.932       -1.855      247.436      198.473      104.714    61224.605    39391.651    10965.039       14.760        5.579      428.566      123.534        0.083      346.967       25.591      859.357
06/11/2013  14:38:00     -407.052     -121.236      -19.682      182.437      147.235       80.465    33283.318    21678.256     6474.648       12.109        3.072      424.723       79.480        0.035      346.789       25.285      859.374
06/11/2013  14:39:00     -296.105     -163.780       16.985      201.657      158.987       81.603    40665.501    25276.960     6659.082        9.368        3.630      338.382       95.691        0.080      346.839       25.373      859.327
06/11/2013  14:40:00     -497.460     -120.036      -21.982      277.247      195.515       86.533    76866.161    38226.069     7488.002       19.245        6.129      511.737      117.225        0.052      346.978       25.612      859.299
06/11/2013  14:41:00     -709.399     -210.336      -18.469      281.058      226.487      109.902    78993.656    51296.268    12078.524       34.507        7.118      739.924      131.816        0.032      346.843       25.378      859.214
06/11/2013  14:42:00     -557.993      -94.396      -14.336      265.537      218.060      105.293    70510.071    47549.962    11086.531       22.478        6.457      565.921      114.852        0.041      346.939       25.543      859.255
06/11/2013  14:43:00     -462.191     -338.227      -25.918      242.061      184.090       93.431    58593.590    33889.193     8729.341       21.493        5.061      572.729       97.509        0.029      347.102       25.823      859.305
06/11/2013  14:44:00     -438.894     -347.170       -1.261      230.550      208.692      105.705    53153.523    43552.376    11173.490       21.050        5.394      559.602      118.507        0.045      346.784       25.276      859.329
06/11/2013  14:45:00     -375.470     -205.305       13.148      226.724      179.242      112.660    51403.739    32127.695    12692.253       13.974        4.811      427.934      134.266        0.098      346.850       25.390      859.315
06/11/2013  14:46:00     -357.010     -164.303        0.695      225.813      186.164      115.966    50991.732    34656.864    13448.027       12.675        4.955      393.004      117.215        0.089      346.913       25.499      859.275
06/11/2013  14:47:00     -343.106     -128.067        8.936      240.106      202.863      114.000    57650.899    41153.546    12996.085       12.298        5.590      366.228      125.669        0.118      347.243       26.068      859.256
06/11/2013  14:48:00     -478.750     -321.426       12.484      337.931      234.443      132.376   114197.251    54963.602    17523.344       25.964        9.334      576.642      166.784        0.084      347.122       25.859      859.245
06/11/2013  14:49:00     -555.635     -342.104       -3.478      284.029      274.235      128.607    80672.261    75204.597    16539.729       29.906        8.621      652.507      147.006        0.051      346.993       25.636      859.260
06/11/2013  14:50:00     -548.594     -412.950       -9.254      300.874      246.864      137.368    90524.895    60941.632    18869.930       32.092        8.517      686.646      149.146        0.047      346.692       25.119      859.299
06/11/2013  14:51:00     -406.151     -168.852       -2.869      325.949      192.162      115.081   106242.640    36926.236    13243.537       17.491        7.821      439.851      157.227        0.128      346.892       25.463      859.367
06/11/2013  14:52:00     -343.940     -302.772        5.719      290.062      243.584      130.925    84136.239    59333.314    17141.307       18.527        8.031      458.220      156.974        0.117      346.785       25.280      859.322
06/11/2013  14:53:00     -303.863     -172.563       18.230      278.214      212.700      110.400    77403.128    45241.192    12188.263       12.861        6.742      349.443      143.583        0.169      347.029       25.698      859.327
06/11/2013  14:54:00     -449.539     -164.552      -11.547      260.413      223.747       98.217    67814.908    50062.642     9646.576       17.838        6.376      478.709      123.701        0.067      347.109       25.837      859.289
06/11/2013  14:55:00     -429.747     -196.112      -16.639      334.174      214.372       99.821   111672.365    45955.410     9964.190       19.547        8.380      472.380      134.323        0.081      347.196       25.987      859.279
06/11/2013  14:56:00     -482.777     -231.849       -9.759      337.847      214.763      131.966   114140.660    46122.978    17415.127       23.227        8.884      535.563      166.679        0.097      346.979       25.613      859.316
06/11/2013  14:57:00     -577.166     -306.507      -20.689      287.363      214.476      121.217    82577.393    45999.871    14693.671       28.535        7.164      653.504      124.805        0.036      346.716       25.159      859.304
06/11/2013  14:58:00     -540.023     -313.585      -22.487      248.290      191.624      119.307    61647.962    36719.759    14234.112       25.151        5.630      624.468      122.701        0.039      346.788       25.283      859.280
06/11/2013  14:59:00     -495.300     -331.576      -10.222      280.784      189.989      129.943    78839.892    36095.694    16885.285       24.357        6.591      596.041      150.653        0.064      346.829       25.356      859.240
06/11/2013  15:00:00     -533.538     -271.842      -18.813      274.012      187.666       99.693    75082.746    35218.480     9938.636       23.955        6.012      598.800       97.668        0.027      346.931       25.530      859.285
06/11/2013  15:01:00     -434.642     -113.528      -18.982      203.489      199.996       87.108    41407.887    39998.544     7587.868       14.556        4.450      449.224       86.290        0.037      347.082       25.789      859.312
06/11/2013  15:02:00     -267.171     -130.797       10.556      215.564      149.045       92.563    46468.034    22214.319     8567.910        8.291        3.863      297.470      109.140        0.135      347.075       25.778      859.308
06/11/2013  15:03:00     -228.084     -112.391        0.901      146.751      149.930       79.729    21535.981    22478.892     6356.649        5.750        2.519      254.272       84.407        0.110      347.012       25.669      859.284
06/11/2013  15:04:00     -305.815     -120.754       -0.650      203.449      160.926       82.112    41391.530    25897.119     6742.349        9.105        3.702      328.792       90.865        0.076      347.238       26.059      859.276
06/11/2013  15:05:00     -312.226     -228.645      -18.529      228.545      170.185      106.909    52232.780    28962.910    11429.536       12.135        4.631      386.993      125.171        0.105      347.140       25.890      859.256
06/11/2013  15:06:00     -351.693     -354.011      -15.473      257.270      203.935      110.727    66188.000    41589.368    12260.465       18.462        6.002      499.011      124.808        0.063      346.955       25.571      859.221
06/11/2013  15:07:00     -372.760     -419.672       12.182      279.727      232.561      137.154    78247.076    54084.648    18811.287       23.315        7.557      561.315      148.600        0.070      346.638       25.026      859.179
06/11/2013  15:08:00     -545.638     -217.611      -12.755      289.984      216.891      115.940    84090.742    47041.649    13442.047       24.488        7.229      587.431      125.168        0.045      346.940       25.546      859.226
06/11/2013  15:09:00     -339.682     -130.748       -8.197      244.530      161.394       92.236    59794.779    26048.035     8507.416       11.343        4.718      363.977       67.029        0.034      346.984       25.623      859.194
06/11/2013  15:10:00     -440.952     -101.492        2.772      285.582      189.578      104.448    81556.899    35939.936    10909.487       16.655        6.420      452.481      128.890        0.081      347.115       25.848      859.185
06/11/2013  15:11:00     -274.419     -149.656        4.261      208.359      194.992      107.960    43413.357    38022.055    11655.371        9.539        4.655      312.574      121.718        0.152      347.295       26.159      859.169
06/11/2013  15:12:00     -374.152      -65.895        6.606      266.343      160.948       99.066    70938.533    25904.411     9814.124       12.549        5.333      379.910      105.247        0.077      347.329       26.216      859.151
06/11/2013  15:13:00     -360.388     -239.090        0.087      302.825      230.915      104.450    91702.897    53321.897    10909.823       17.146        7.797      432.485      134.438        0.097      347.347       26.249      859.156
06/11/2013  15:14:00     -452.354     -182.267        3.718      328.067      221.081      136.305   107627.798    48876.753    18579.003       20.644        8.754      487.694      167.571        0.118      347.100       25.822      859.155
06/11/2013  15:15:00     -516.558     -265.546      -23.584      313.854      243.970      122.552    98504.461    59521.317    15019.020       25.544        8.652      580.816      108.767        0.035      346.977       25.609      859.166
06/11/2013  15:16:00     -282.179     -111.329        4.235      182.461      184.026       92.298    33292.098    33865.668     8518.995        8.384        3.784      303.347       92.520        0.093      347.289       26.147      859.242
06/11/2013  15:17:00     -325.866      -99.445       -5.912      196.525      176.919       89.395    38622.208    31300.386     7991.542        9.700        3.896      340.702       83.142        0.060      347.162       25.928      859.293
06/11/2013  15:18:00     -346.427     -205.830      -11.687      191.244      249.121      102.649    36574.301    62061.369    10536.738       13.582        5.459      402.961       98.772        0.060      346.982       25.618      859.246
06/11/2013  15:19:00     -602.761     -136.501      -31.661      238.466      184.034      100.666    56866.115    33868.533    10133.710       24.189        5.043      618.024      104.210        0.028      347.042       25.721      859.190
06/11/2013  15:20:00     -555.248     -121.338      -10.481      289.469      166.510      106.626    83792.226    27725.600    11369.131       22.299        6.144      568.351      126.081        0.049      347.007       25.660      859.180
06/11/2013  15:21:00     -385.969     -201.286        1.344      275.689      261.710      131.148    76004.525    68492.332    17199.887       17.556        8.085      435.302      150.442        0.119      347.160       25.924      859.192
06/11/2013  15:22:00     -502.987     -214.615        3.731      219.824      214.933      105.343    48322.645    46196.265    11097.087       20.232        5.281      546.860       99.326        0.033      347.001       25.650      859.203
06/11/2013  15:23:00     -552.279     -209.599      -39.174      273.346      208.912       99.288    74718.218    43644.256     9858.165       23.932        6.411      590.714      106.092        0.032      347.025       25.690      859.179
06/11/2013  15:24:00     -414.672      -54.752        3.019      262.865      170.016       97.163    69098.258    28905.348     9440.692       14.118        5.372      418.271      107.586        0.066      347.135       25.881      859.209
06/11/2013  15:25:00     -360.155     -222.060      -13.174      226.130      205.290      109.550    51134.943    42143.789    12001.285       14.222        5.264      423.110      107.052        0.064      347.042       25.721      859.179
06/11/2013  15:26:00     -467.904     -304.111        7.063      261.594      192.645      115.278    68431.535    37112.020    13288.937       21.513        5.942      558.048      138.874        0.062      347.096       25.816      859.193
06/11/2013  15:27:00     -309.587     -227.049        8.726      225.357      181.380       89.378    50785.820    32898.560     7988.411       11.955        4.584      383.921      104.921        0.075      347.141       25.892      859.187
06/11/2013  15:28:00     -351.852     -183.035      -14.537      215.562      188.694       95.510    46466.823    35605.558     9122.083       12.434        4.560      396.613      100.104        0.064      347.259       26.095      859.213
06/11/2013  15:29:00     -259.456     -156.156       -0.791      193.096      162.306       90.528    37285.980    26343.319     8195.339        8.175        3.591      302.824       98.640        0.106      347.008       25.664      859.215
06/11/2013  15:30:00     -244.563      -55.142       22.233      239.159      139.944       99.094    57196.982    19584.285     9819.604        7.496        4.330      250.703      112.052        0.200      347.391       26.323      859.235
06/11/2013  15:31:00     -215.897      -87.957       25.761      222.726      151.917       92.215    49606.832    23078.754     8503.582        6.808        4.059      233.126      109.049        0.219      347.314       26.190      859.262
06/11/2013  15:32:00     -325.373     -249.379      -16.509      179.104      187.232       95.492    32078.420    35055.872     9118.653       12.228        3.813      409.948       90.655        0.049      347.204       26.000      859.217
06/11/2013  15:33:00     -371.823     -267.466        8.607      265.944      210.310      120.842    70726.421    44230.185    14602.827       16.969        6.478      458.029      142.386        0.097      347.177       25.952      859.215
06/11/2013  15:34:00     -440.479     -267.300       -7.084      215.233      182.146      108.776    46325.038    33177.026    11832.140       17.841        4.567      515.239      106.234        0.043      347.029       25.698      859.203
06/11/2013  15:35:00     -387.997     -123.544      -10.740      225.889      209.312      104.492    51025.713    43811.514    10918.616       13.582        5.288      407.192      122.358        0.090      347.239       26.059      859.224
06/11/2013  15:36:00     -377.706     -304.697        5.109      296.867      198.816      141.999    88129.741    39527.751    20163.846       19.165        7.391      485.286      170.449        0.123      347.056       25.745      859.168
06/11/2013  15:37:00     -325.362     -191.758       -1.619      191.530      179.966       97.741    36683.907    32387.624     9553.381       11.061        3.931      377.666       89.329        0.056      347.210       26.011      859.206
06/11/2013  15:38:00     -263.376     -194.996        7.450      241.425      226.614      100.655    58285.859    51353.889    10131.523       11.358        5.989      327.704      114.693        0.122      347.212       26.014      859.196
06/11/2013  15:39:00     -423.936     -207.781       -2.233      306.332      184.878      106.437    93839.546    34179.940    11328.782       18.110        6.967      472.117      132.769        0.079      347.166       25.936      859.167
06/11/2013  15:40:00     -441.759     -142.857       -5.012      262.997      198.689      123.951    69167.673    39477.148    15363.810       16.977        6.200      464.284      118.193        0.065      347.089       25.802      859.154
06/11/2013  15:41:00     -324.774     -246.220       -2.163      222.459      182.119      121.995    49488.022    33167.265    14882.666       13.180        4.877      407.557      127.926        0.099      347.170       25.941      859.189
06/11/2013  15:42:00     -396.284     -319.021        0.180      283.871      207.314      125.006    80582.582    42979.005    15626.460       19.897        6.959      508.739      157.142        0.095      346.788       25.284      859.161
06/11/2013  15:43:00     -386.333     -168.955      -41.666      147.652      173.423       88.847    21801.126    30075.431     7893.705       11.964        2.989      421.662       80.791        0.037      347.151       25.909      859.163
06/11/2013  15:44:00     -282.026     -105.914        8.537      235.079      199.579       98.604    55262.154    39831.883     9722.795        9.780        5.241      301.258      111.762        0.138      347.369       26.285      859.186
06/11/2013  15:45:00     -448.953     -261.893       -9.683      258.727      199.789      111.832    66939.653    39915.674    12506.482       19.478        5.968      519.757      130.488        0.063      347.028       25.696      859.213
06/11/2013  15:46:00     -534.825     -368.495       -8.765      285.829      211.718      131.464    81697.964    44824.538    17282.899       28.283        7.190      649.482      157.611        0.059      346.987       25.627      859.230
06/11/2013  15:47:00     -476.654     -416.695      -14.062      254.129      184.747      139.780    64581.620    34131.396    19538.565       25.962        5.913      633.115      149.369        0.056      346.767       25.248      859.243
06/11/2013  15:48:00     -396.969     -263.495      -13.466      231.030      187.613       94.797    53374.924    35198.816     8986.389       16.236        4.878      476.460       92.003        0.037      347.000       25.648      859.218
06/11/2013  15:49:00     -438.242     -155.920      -16.313      273.981      229.725      103.701    75065.595    52773.500    10753.801       17.759        6.930      465.153      128.377        0.076      347.159       25.924      859.219
06/11/2013  15:50:00     -446.581     -147.575      -11.414      242.414      184.324      108.599    58764.562    33975.221    11793.700       16.292        5.227      470.333      127.307        0.073      347.117       25.851      859.210
06/11/2013  15:51:00     -620.893     -114.173      -32.635      208.481      196.799       91.045    43464.232    38729.790     8289.158       24.503        4.524      631.303       83.994        0.018      347.137       25.885      859.165
06/11/2013  15:52:00     -669.494     -160.503      -45.206      303.743      194.524      111.500    92260.108    37839.733    12432.163       30.925        7.127      688.464      136.816        0.039      347.094       25.810      859.137
06/11/2013  15:53:00     -545.472     -116.691      -32.312      295.197      198.302      106.337    87141.444    39323.826    11307.485       22.496        6.889      557.814      119.494        0.046      347.146       25.900      859.141
06/11/2013  15:54:00     -386.582      -52.592       11.717      328.756      180.508      124.308   108080.760    32583.300    15452.518       15.420        7.806      390.143      157.758        0.164      347.027       25.696      859.108
06/11/2013  15:55:00     -364.973       -5.204        0.715      321.232      146.285      111.412   103189.977    21399.424    12412.571       13.509        6.850      365.010      146.911        0.162      347.195       25.986      859.154
06/11/2013  15:56:00     -544.718     -232.256      -17.344      279.788      219.402      117.332    78281.072    48137.141    13766.911       24.554        7.009      592.166      112.431        0.036      347.003       25.654      859.127
06/11/2013  15:57:00     -460.839     -190.691      -32.618      256.772      180.431      103.114    65932.040    32555.242    10632.559       17.944        5.456      498.734      121.618        0.059      347.164       25.932      859.165
06/11/2013  15:58:00     -484.882     -144.257      -36.679      164.951      169.175       90.372    27208.946    28620.101     8167.070       16.062        3.200      505.886       71.354        0.020      347.108       25.835      859.185
06/11/2013  15:59:00     -247.508      -86.874       14.789      259.887      132.314      100.941    67541.388    17507.099    10189.104        8.211        4.762      262.311      123.692        0.222      347.025       25.692      859.175
06/11/2013  16:00:00     -280.771      -91.110        3.902      235.441      167.114       83.662    55432.392    27927.240     6999.385        8.874        4.518      295.183      105.749        0.128      347.250       26.080      859.151
06/11/2013  16:01:00     -525.480     -108.545      -32.923      215.950      211.561      104.125    46634.336    44758.064    10842.095       19.559        5.112      536.574      110.778        0.043      347.297       26.160      859.079
06/11/2013  16:02:00     -534.132     -288.277      -25.013      247.035      205.833      115.929    61026.064    42367.019    13439.627       24.291        5.842      606.960      109.088        0.032      347.151       25.908      859.101
06/11/2013  16:03:00     -380.395     -222.605       -1.581      223.725      159.640       93.164    50052.958    25484.990     8679.564       13.922        4.211      440.742       94.946        0.046      346.938       25.542      859.103
06/11/2013  16:04:00     -345.855     -242.403       -2.675      209.706      156.426       98.087    43976.676    24469.212     9621.116       12.821        3.903      422.344      105.816        0.063      347.101       25.824      859.138
06/11/2013  16:05:00     -141.483      -38.715       26.274      135.080      109.149       61.578    18246.700    11913.404     3791.849        2.807        1.698      146.684       52.716        0.129      347.412       26.359      859.143
06/11/2013  16:06:00     -395.155      -81.551        0.020      314.247      142.692      105.828    98751.269    20360.983    11199.621       14.653        6.516      403.482      139.616        0.120      347.277       26.126      859.130
06/11/2013  16:07:00     -316.469      -59.435      -24.314      228.221      186.988      105.932    52084.880    34964.405    11221.668       10.125        4.914      322.002       93.192        0.084      347.437       26.402      859.080
06/11/2013  16:08:00     -242.169      -60.736        9.114      196.855      112.411       74.291    38751.768    12636.272     5519.099        5.965        2.845      249.669       84.323        0.114      347.504       26.519      859.138
06/11/2013  16:09:00     -367.834     -254.860      -17.600      250.531      221.095      109.126    62765.976    48883.047    11908.418       16.204        6.178      447.499      103.343        0.053      347.301       26.169      859.092
06/11/2013  16:10:00     -653.693      -35.047      -44.373      238.985      230.545      105.334    57114.045    53150.980    11095.346       27.591        6.068      654.632      101.897        0.024      347.242       26.067      859.097
06/11/2013  16:11:00     -351.176     -109.896       -8.877      203.683      160.187       80.177    41486.923    25659.766     6428.283       10.451        3.679      367.970       95.748        0.068      347.293       26.156      859.130
06/11/2013  16:12:00     -361.016      -48.831       -1.740      199.868      175.743       83.478    39947.280    30885.557     6968.504       10.525        3.890      364.304       94.010        0.067      347.166       25.934      859.128
06/11/2013  16:13:00     -336.528      -50.988       16.745      233.009      177.760      103.065    54293.362    31598.442    10622.438       10.630        4.826      340.368      118.985        0.122      347.440       26.407      859.119
06/11/2013  16:14:00     -386.192     -128.536       -1.721      212.322      239.777      101.390    45080.618    57492.825    10279.899       13.924        5.643      407.021      110.222        0.073      347.348       26.247      859.136
06/11/2013  16:15:00     -565.579     -408.796      -17.261      323.490      294.693      145.252   104645.619    86844.228    21098.285       34.990       10.629      697.849      168.445        0.058      346.992       25.634      859.043
06/11/2013  16:16:00     -518.746     -288.186      -36.911      249.204      217.296      110.317    62102.453    47217.606    12169.926       23.748        6.074      593.421      116.923        0.039      347.053       25.740      859.050
06/11/2013  16:17:00     -341.280     -136.097      -11.064      173.237      186.936       90.993    30011.167    34945.156     8279.713       10.416        3.662      367.416       92.479        0.063      347.198       25.989      859.102
06/11/2013  16:18:00     -340.057     -170.857       11.938      202.168      159.543       95.498    40871.725    25454.093     9119.936       11.019        3.772      380.567      102.952        0.073      347.176       25.952      859.056
06/11/2013  16:19:00     -329.097      -64.369        9.277      228.457      162.289       94.152    52192.619    26337.741     8864.509        9.995        4.370      335.333      108.701        0.105      347.412       26.358      859.051
06/11/2013  16:20:00     -386.162     -174.751      -24.896      191.842      147.398       82.730    36803.351    21726.077     6844.197       12.281        3.269      423.863       79.987        0.036      347.211       26.013      859.019
06/11/2013  16:21:00     -508.375     -122.465      -33.669      300.246      287.610      114.759    90147.850    82719.303    13169.703       23.027        9.302      522.918      138.333        0.070      347.243       26.068      858.949
06/11/2013  16:22:00     -814.391     -263.717      -59.239      255.877      220.951      121.431    65473.197    48819.293    14745.596       43.264        6.452      856.025      105.521        0.015      346.932       25.532      858.984
06/11/2013  16:23:00     -583.805     -163.150      -18.771      244.904      191.098      108.830    59977.963    36518.628    11844.011       23.805        5.417      606.173      111.848        0.034      347.013       25.672      859.032
06/11/2013  16:24:00     -493.186      -84.876      -16.438      264.939      181.685      104.105    70192.659    33009.555    10837.826       18.235        5.702      500.436      123.717        0.061      347.002       25.653      859.055
06/11/2013  16:25:00     -426.508      -22.500       -3.285      256.227      165.082      112.455    65652.109    27252.077    12646.085       14.397        5.278      427.101      122.750        0.083      347.088       25.799      859.038
06/11/2013  16:26:00     -314.662     -168.613       -5.783      181.371      144.336       83.894    32895.440    20833.021     7038.232        9.411        3.038      356.991      103.570        0.084      347.129       25.870      859.062
06/11/2013  16:27:00     -376.551     -110.161      -10.263      250.030      140.976       97.467    62515.172    19874.202     9499.800       12.294        4.594      392.334      106.925        0.074      347.093       25.809      859.041
06/11/2013  16:28:00     -422.746     -156.020       -5.707      240.002      151.936       95.582    57601.036    23084.526     9135.923       14.644        4.491      450.618      109.402        0.059      347.239       26.060      859.042
06/11/2013  16:29:00     -181.171     -111.187       15.582      192.908      156.874       97.117    37213.452    24609.413     9431.671        5.833        3.563      212.569      109.330        0.265      347.320       26.200      859.028
06/11/2013  16:30:00     -432.768     -289.093      -17.328      243.171      214.007      114.217    59132.301    45799.099    13045.520       19.455        5.899      520.445      117.993        0.051      347.062       25.756      858.985
06/11/2013  16:31:00     -254.686     -179.479        2.339      191.630      174.881       86.254    36721.913    30583.358     7439.803        8.590        3.737      311.573       90.045        0.084      347.234       26.053      859.014
06/11/2013  16:32:00     -385.116     -292.477        0.998      187.167      162.948      107.734    35031.303    26551.944    11606.593       15.351        3.659      483.588      104.519        0.047      347.086       25.797      858.947
06/11/2013  16:33:00     -537.961      -92.025      -38.600      337.036      204.260      105.369   113593.212    41722.347    11102.710       23.286        8.321      545.776      126.099        0.053      347.152       25.910      858.920
06/11/2013  16:34:00     -451.584     -183.777        5.191      298.809      168.198      112.791    89286.728    28290.629    12721.785       18.399        6.515      487.547      140.771        0.083      347.313       26.189      858.884
06/11/2013  16:35:00     -442.466     -209.645       -5.726      226.266      255.624      115.520    51196.327    65343.671    13344.919       18.480        6.494      489.620      114.678        0.055      347.234       26.052      858.900
06/11/2013  16:36:00     -583.715     -389.923      -10.785      322.139      209.010      132.190   103773.685    43685.157    17474.067       32.887        8.247      701.971      146.978        0.044      347.001       25.650      858.883
06/11/2013  16:37:00     -338.277     -200.081        9.884      231.283      232.646      120.668    53491.684    54124.337    14560.832       13.835        6.109      393.019      140.720        0.128      347.128       25.870      858.923
06/11/2013  16:38:00     -323.232      -81.393       -7.730      245.796      134.741       68.871    60415.859    18155.255     4743.267        9.722        4.166      333.323       86.482        0.067      347.212       26.016      858.944
06/11/2013  16:39:00     -347.362     -227.046       -8.270      289.771      194.077      112.460    83967.491    37665.943    12647.210       15.325        6.714      414.982      150.755        0.132      347.247       26.073      858.895
06/11/2013  16:40:00     -219.989      -54.404       -5.679      133.726      106.420       73.876    17882.555    11325.171     5457.593        4.302        1.733      226.616       67.372        0.088      347.322       26.206      858.913
06/11/2013  16:41:00     -329.309     -246.581       -2.166      223.339      147.783       82.011    49880.356    21839.785     6725.796       12.383        3.922      411.396       79.722        0.038      347.183       25.964      858.896
06/11/2013  16:42:00     -359.430     -135.260       -0.887      165.682      156.134       86.658    27450.634    24377.860     7509.683       10.340        2.967      384.038       94.840        0.061      347.235       26.055      858.880
06/11/2013  16:43:00     -391.061     -150.604      -14.985      215.152      175.917       98.738    46290.222    30946.841     9749.252       13.139        4.349      419.059      103.197        0.061      347.302       26.169      858.900
06/11/2013  16:44:00     -486.138     -206.024      -46.560      184.694      192.630       89.672    34111.790    37106.179     8041.137       18.009        3.963      527.992       89.893        0.029      347.188       25.973      858.916
06/11/2013  16:45:00     -367.566     -108.841       -6.078      257.672      188.828       99.419    66394.751    35656.171     9884.140       12.944        5.597      383.342      124.468        0.105      347.427       26.385      858.894
06/11/2013  16:46:00     -310.018     -141.076        7.457      213.652      180.795      117.707    45647.065    32686.753    13855.031       10.411        4.609      340.608      113.571        0.111      347.282       26.134      858.845
06/11/2013  16:47:00     -340.398     -112.873      -20.213      186.978      151.495       78.353    34960.854    22950.624     6139.230        9.652        3.203      358.623       75.661        0.045      347.333       26.224      858.805
06/11/2013  16:48:00     -323.722     -203.069       -0.326      243.759      248.796      113.774    59418.371    61899.575    12944.538       14.012        6.713      382.143      137.877        0.130      347.409       26.355      858.817
06/11/2013  16:49:00     -428.129     -183.350        1.840      244.061      218.667      109.023    59565.910    47815.469    11885.941       16.807        5.963      465.738      119.963        0.066      347.282       26.134      858.801
06/11/2013  16:50:00     -404.612     -177.099      -14.811      237.717      170.851       90.351    56509.426    29190.213     8163.230       14.456        4.693      441.673      101.162        0.052      347.363       26.274      858.813
06/11/2013  16:51:00     -326.846      -81.622       -3.273      196.984      153.697       87.042    38802.662    23622.688     7576.353        9.174        3.500      336.883       77.032        0.052      347.574       26.639      858.886
06/11/2013  16:52:00     -408.366     -227.597      -13.465      197.571      166.931       98.765    39034.403    27865.921     9754.440       14.768        3.833      467.508       92.899        0.039      347.382       26.307      858.909
06/11/2013  16:53:00     -538.422     -302.835      -25.649      311.554      221.724       94.450    97066.060    49161.564     8920.872       26.868        7.757      617.743      121.613        0.039      347.230       26.045      858.944
06/11/2013  16:54:00     -111.600      -87.043        5.204      164.330      149.110       83.763    27004.456    22233.693     7016.167        3.814        2.813      141.531       71.619        0.256      347.439       26.408      858.934
06/11/2013  16:55:00     -203.097     -206.560       10.523      159.639      138.398      114.179    25484.480    19153.963    13036.746        7.084        2.884      289.682      100.463        0.120      347.292       26.152      858.927
06/11/2013  16:56:00     -302.833      -59.373      -14.480      173.021      100.624       67.882    29936.215    10125.170     4607.902        7.005        2.233      308.599       82.003        0.071      347.319       26.198      858.909
06/11/2013  16:57:00     -172.711      -21.630        9.182      169.803      109.589       63.884    28833.127    12009.697     4081.229        3.764        2.246      174.060       69.256        0.158      347.396       26.332      858.909
06/11/2013  16:58:00     -302.198       -7.864      -21.430      205.887      171.211       81.312    42389.661    29313.174     6611.580        8.506        3.916      302.300       82.432        0.074      347.257       26.091      858.857
06/11/2013  16:59:00     -597.591      -83.703      -48.142      226.464      182.146       90.381    51285.924    33177.168     8168.658       22.952        4.632      603.425       71.131        0.014      347.182       25.962      858.843
06/11/2013  17:00:00     -579.574     -330.903      -19.047      294.617      244.349      103.864    86799.407    59706.450    10787.755       30.150        7.865      667.385      122.991        0.034      347.063       25.757      858.827
06/11/2013  17:01:00     -512.285     -229.853      -18.171      277.122      215.810      105.352    76796.409    46574.033    11099.138       22.501        6.723      561.488      117.867        0.044      347.003       25.653      858.791
06/11/2013  17:02:00     -310.452     -261.989       11.617      196.351      173.379      106.517    38553.545    30060.367    11345.847       12.254        3.998      406.225      110.099        0.073      347.098       25.819      858.779
06/11/2013  17:03:00     -467.598     -257.985      -28.976      233.024      221.575      104.999    54300.275    49095.543    11024.780       20.021        5.721      534.045       92.923        0.030      347.170       25.942      858.764
06/11/2013  17:04:00     -300.483     -141.352       -5.184      171.889      172.157       80.110    29545.888    29637.914     6417.603        8.794        3.280      332.070       80.902        0.059      347.203       25.998      858.814
06/11/2013  17:05:00     -461.887      -36.689      -17.546      190.622      138.708       89.332    36336.658    19239.929     7980.171       13.926        3.178      463.342       90.320        0.038      347.123       25.860      858.802
06/11/2013  17:06:00     -366.233     -119.640      -18.804      253.528      211.825       94.865    64276.519    44869.922     8999.451       13.345        5.907      385.279      126.667        0.108      347.202       25.997      858.814
06/11/2013  17:07:00     -367.456     -124.269       -9.379      277.469      204.810      118.513    76989.318    41947.200    14045.437       14.174        6.649      387.900      142.742        0.135      347.222       26.032      858.778
06/11/2013  17:08:00     -434.262      -98.381        2.546      214.767      212.016      117.353    46124.652    44950.802    13771.746       15.154        5.242      445.266      107.920        0.059      347.140       25.891      858.789
06/11/2013  17:09:00     -625.897      -60.660      -16.878      314.751      240.526      122.232    99068.258    57852.750    14940.578       28.375        8.593      628.829      140.426        0.050      347.055       25.743      858.751
06/11/2013  17:10:00     -377.008     -153.622      -10.913      218.814      186.697       93.914    47879.637    34855.623     8819.757       12.869        4.578      407.106       96.500        0.056      347.141       25.891      858.778
06/11/2013  17:11:00     -399.465      -89.201      -17.357      216.172      173.968       82.578    46730.494    30265.016     6819.193       12.581        4.191      409.304       77.438        0.036      347.131       25.874      858.792
06/11/2013  17:12:00     -575.519      -53.161      -37.308      358.061      195.067      124.691   128207.490    38051.046    15547.818       25.859        9.090      577.969      152.282        0.069      347.017       25.677      858.693
06/11/2013  17:13:00     -589.381     -258.892      -17.281      250.623      187.549      115.948    62812.065    35174.735    13443.927       26.304        5.572      643.736      119.717        0.035      347.094       25.812      858.718
06/11/2013  17:14:00     -500.521     -206.125      -24.442      252.838      192.203       99.336    63927.303    36942.164     9867.699       20.215        5.537      541.303       93.717        0.030      347.041       25.719      858.696
06/11/2013  17:15:00     -457.253     -205.675      -15.020      296.308      221.100      106.431    87798.430    48885.293    11327.452       19.978        7.401      501.381      123.680        0.061      347.106       25.832      858.684
06/11/2013  17:16:00     -473.853      -90.308      -13.482      166.596      181.898       74.378    27754.262    33086.785     5532.091       14.961        3.319      482.382       69.576        0.021      347.182       25.963      858.734
06/11/2013  17:17:00     -594.712      -79.643      -28.432      227.853      190.328      101.735    51916.815    36224.707    10350.017       22.964        4.925      600.021      107.015        0.032      347.057       25.746      858.686
06/11/2013  17:18:00     -576.135     -147.483        0.015      315.953      188.974      112.650    99826.478    35711.045    12689.999       25.093        7.411      594.712      146.224        0.060      347.066       25.763      858.660
06/11/2013  17:19:00     -405.648     -175.708      -13.450      199.655      201.872       75.842    39862.306    40752.440     5751.946       14.097        4.318      442.068       74.339        0.028      346.952       25.567      858.652
06/11/2013  17:20:00     -293.925      -33.399       -7.308      191.650      160.031       86.872    36729.738    25609.943     7546.687        7.871        3.494      295.816       89.749        0.092      347.135       25.881      858.630
06/11/2013  17:21:00     -480.463     -169.062      -14.744      241.962      243.811      106.748    58545.742    59443.863    11395.085       19.449        6.469      509.340      125.220        0.060      347.138       25.888      858.599
06/11/2013  17:22:00     -535.088     -255.282      -34.292      233.877      213.730      101.216    54698.525    45680.649    10244.675       23.162        5.531      592.864       93.376        0.025      347.068       25.765      858.668
06/11/2013  17:23:00     -567.990     -253.805       -9.932      260.764      317.725      109.546    67997.776   100949.248    12000.254       28.400        9.047      622.117      130.385        0.044      346.968       25.593      858.650
06/11/2013  17:24:00     -378.095     -192.610      -10.440      245.974      169.480       96.099    60503.393    28723.569     9234.996       13.929        4.923      424.328      104.840        0.061      346.993       25.636      858.694
06/11/2013  17:25:00     -322.012     -246.947       -0.420      208.463      204.620       87.976    43456.869    41869.267     7739.715       12.885        4.653      405.802      109.118        0.072      347.068       25.767      858.697
06/11/2013  17:26:00     -269.152     -103.814        8.462      217.609      141.753      106.083    47353.681    20093.900    11253.527        8.098        3.935      288.479      105.277        0.133      347.164       25.932      858.730
06/11/2013  17:27:00     -454.194     -170.600       -2.344      249.551      288.010      112.728    62275.701    82949.902    12707.537       19.664        7.897      485.177      115.937        0.057      346.861       25.408      858.738
06/11/2013  17:28:00     -527.668     -315.693       -8.757      351.454      224.825      122.551   123520.261    50546.193    15018.787       28.359        9.454      614.894      147.865        0.058      346.786       25.280      858.739
06/11/2013  17:29:00     -591.117     -367.542      -14.314      325.685      245.894      131.378   106070.789    60464.095    17260.245       33.422        9.190      696.065      167.642        0.058      346.689       25.113      858.738
06/11/2013  17:30:00     -408.566     -248.368      -10.668      277.230      229.088      115.949    76856.290    52481.393    13444.168       18.573        7.139      478.135      146.036        0.093      346.763       25.241      858.726
06/11/2013  17:31:00     -480.494     -285.361      -12.246      221.145      132.544       82.836    48905.214    17567.889     6861.833       19.288        3.667      558.843       98.484        0.031      346.805       25.313      858.755
06/11/2013  17:32:00     -417.564     -266.765      -15.036      257.076      163.382      100.416    66087.993    26693.743    10083.370       17.429        5.143      495.502       99.476        0.040      346.850       25.391      858.737
06/11/2013  17:33:00     -528.767     -249.339      -11.741      260.737      203.947      106.085    67983.769    41594.349    11254.080       23.134        6.042      584.606      127.404        0.047      346.888       25.457      858.734
06/11/2013  17:34:00     -404.436     -198.938      -18.437      239.693      186.509       96.026    57452.553    34785.686     9221.035       15.245        5.073      450.716       98.918        0.048      346.971       25.599      858.763
06/11/2013  17:35:00     -474.015      -83.636       -4.519      308.802      189.836      113.679    95358.905    36037.828    12922.841       18.798        7.216      481.337      147.614        0.094      346.873       25.429      858.757
06/11/2013  17:36:00     -489.151      -60.083      -31.873      226.758      210.703       84.685    51419.090    44395.603     7171.508       17.342        5.149      492.827       84.815        0.030      346.824       25.346      858.766
06/11/2013  17:37:00     -249.880     -118.987        3.166      178.923      140.314       84.923    32013.436    19688.117     7211.957        6.775        2.946      276.763       63.587        0.053      346.948       25.559      858.769
06/11/2013  17:38:00     -439.848     -261.303       -2.393      207.095      152.059       86.665    42888.290    23121.967     7510.841       16.762        3.676      511.611       87.302        0.029      346.696       25.125      858.816
06/11/2013  17:39:00     -199.362     -136.155       15.217      199.564      184.223      101.312    39825.858    33938.083    10264.196        7.125        4.201      241.420      111.402        0.213      346.919       25.510      858.805
06/11/2013  17:40:00     -239.042     -148.923        3.470      194.470      145.412       79.171    37818.642    21144.641     6268.093        7.227        3.262      281.636       87.831        0.097      346.842       25.378      858.795
06/11/2013  17:41:00     -314.445     -176.312       -7.357      185.094      169.508      103.973    34259.714    28732.890    10810.291       10.189        3.690      360.501      115.090        0.102      346.893       25.463      858.775
06/11/2013  17:42:00     -417.858     -337.132       -9.576      245.693      192.714      106.034    60365.136    37138.804    11243.307       19.853        5.437      536.901      123.091        0.053      346.704       25.139      858.788
06/11/2013  17:43:00     -376.758     -198.133        3.961      181.874      206.691       88.687    33078.309    42721.220     7865.386       13.242        4.183      425.680       99.281        0.054      346.694       25.123      858.780
06/11/2013  17:44:00     -425.181      -43.505      -21.658      170.018      166.544       79.634    28906.189    27736.843     6341.628       12.305        3.149      427.401       76.389        0.032      346.739       25.199      858.775
06/11/2013  17:45:00     -569.093      -71.808      -39.390      244.189      165.436      102.616    59628.338    27369.075    10529.993       21.403        4.876      573.605      114.002        0.039      346.729       25.183      858.714
06/11/2013  17:46:00     -471.680     -106.232       -6.795      267.317      234.263      115.011    71458.257    54879.094    13227.486       18.666        6.978      483.495      126.999        0.069      346.751       25.222      858.704
06/11/2013  17:47:00     -438.644     -292.037      -15.012      233.934      193.838      107.867    54724.960    37573.288    11635.385       19.091        5.197      526.967      125.677        0.057      346.650       25.047      858.696
06/11/2013  17:48:00     -421.192     -173.528      -31.233      158.294      162.910       81.267    25056.850    26539.815     6604.303       13.333        2.910      455.538       61.156        0.018      346.831       25.356      858.676
06/11/2013  17:49:00     -518.153      -88.408      -42.682      265.563      179.287      102.370    70523.507    32143.954    10479.582       19.561        5.657      525.641      107.044        0.041      346.851       25.392      858.686
06/11/2013  17:50:00     -443.148      -80.522       15.844      210.220      191.902       95.800    44192.342    36826.237     9177.659       14.664        4.510      450.404       94.132        0.044      346.803       25.309      858.651
06/11/2013  17:51:00     -367.579     -202.657      -15.137      295.225      208.404      113.481    87157.603    43432.306    12877.989       15.991        7.173      419.743      137.232        0.107      346.706       25.144      858.674
06/11/2013  17:52:00     -331.931      -82.544        7.990      245.981      175.363       93.240    60506.418    30752.256     8693.709       10.848        4.998      342.041      100.854        0.087      346.788       25.284      858.680
06/11/2013  17:53:00     -552.637     -216.566      -22.313      223.743      165.170       92.744    50060.710    27281.101     8601.499       21.936        4.297      593.555      100.362        0.029      346.644       25.036      858.678
06/11/2013  17:54:00     -521.331     -222.438      -25.072      208.348      189.389      102.878    43409.004    35868.216    10583.809       20.586        4.493      566.802      108.121        0.036      346.666       25.073      858.677
06/11/2013  17:55:00     -439.814     -297.637      -19.163      253.668      197.319      112.404    64347.589    38934.752    12634.641       19.913        5.796      531.059      116.167        0.048      346.527       24.837      858.638
06/11/2013  17:56:00     -344.587     -258.842       19.287      242.785      159.820      117.719    58944.762    25542.358    13857.858       14.221        4.917      430.975      121.632        0.080      346.626       25.006      858.625
06/11/2013  17:57:00     -364.640     -192.774      -15.400      272.646      161.728      104.170    74335.972    26155.880    10851.295       14.083        5.567      412.461      132.733        0.104      346.776       25.262      858.665
06/11/2013  17:58:00     -251.459     -152.285       10.756      189.239      183.596       86.124    35811.477    33707.439     7417.333        8.172        3.847      293.977       88.124        0.090      346.695       25.124      858.660
06/11/2013  17:59:00     -296.661      -97.772       -0.480      222.015      134.008       81.199    49290.733    17958.230     6593.244        8.569        3.692      312.357      105.600        0.114      346.675       25.091      858.650
06/11/2013  18:00:00     -511.119      -34.711      -49.284      202.056      214.572       88.985    40826.745    46041.303     7918.392       17.981        4.739      512.297       94.658        0.034      346.667       25.076      858.630
06/11/2013  18:01:00     -597.122     -144.681      -27.638      208.604      154.420       90.093    43515.634    23845.616     8116.774       22.685        3.774      614.400       90.396        0.022      346.504       24.796      858.652
06/11/2013  18:02:00     -302.953      -49.752       -9.696      206.176      119.281       74.874    42508.717    14227.979     5606.137        7.833        3.117      307.011       93.711        0.093      346.680       25.101      858.671
06/11/2013  18:03:00     -421.215     -109.378      -12.574      212.586      171.671       85.486    45192.740    29471.101     7307.930       13.574        4.099      435.185       85.084        0.038      346.546       24.869      858.698
06/11/2013  18:04:00     -300.334     -128.431        3.910      193.679      161.281       89.498    37511.581    26011.681     8009.841        8.911        3.577      326.642       98.448        0.091      346.550       24.876      858.705
06/11/2013  18:05:00     -184.913     -148.146       14.611      205.134      149.042       87.646    42079.888    22213.463     7681.866        6.415        3.599      236.939      114.888        0.235      346.545       24.867      858.712
06/11/2013  18:06:00     -280.914     -173.854       -7.554      144.916      132.935       67.774    21000.616    17671.669     4593.279        7.622        2.163      330.361       69.941        0.045      346.543       24.863      858.718
06/11/2013  18:07:00     -205.566      -82.440        0.757      180.180      111.359       60.557    32464.871    12400.759     3667.141        4.878        2.427      221.481       61.185        0.076      346.595       24.953      858.743
06/11/2013  18:08:00     -400.509     -178.063      -11.858      200.741      144.861       91.962    40296.827    20984.641     8457.090       13.098        3.487      438.308       99.879        0.052      346.468       24.735      858.754
06/11/2013  18:09:00     -146.827       -7.752       26.086      180.798      118.210       98.263    32687.984    13973.493     9655.530        3.930        2.816      147.031      109.806        0.558      346.650       25.047      858.748
06/11/2013  18:10:00     -169.029      -94.164      -11.528      163.666      143.110      101.410    26786.616    20480.475    10284.009        4.755        2.878      193.488      100.180        0.268      346.684       25.105      858.751
06/11/2013  18:11:00     -265.496      -61.163        6.754      211.303      147.780       96.057    44648.814    21838.932     9227.035        7.498        3.786      272.450       99.574        0.134      346.631       25.014      858.769
06/11/2013  18:12:00     -254.909      -18.761        0.463      211.318      133.523       85.129    44655.355    17828.446     7246.874        6.752        3.487      255.599      109.500        0.184      346.657       25.060      858.778
06/11/2013  18:13:00     -554.980     -137.373      -34.215      286.241      211.992      100.910    81933.726    44940.774    10182.741       23.252        6.853      571.729      119.085        0.043      346.448       24.700      858.759
06/11/2013  18:14:00     -359.405      -65.944      -24.996      181.822      142.086       80.207    33059.110    20188.440     6433.126        9.690        2.984      365.405       89.050        0.059      346.426       24.661      858.749
06/11/2013  18:15:00     -300.453     -190.025       -5.794      212.218      160.812       92.582    45036.658    25860.633     8571.431       10.293        3.973      355.501      106.465        0.090      346.437       24.680      858.724
06/11/2013  18:16:00     -262.140     -217.636        9.220      213.440      159.419       94.339    45556.507    25414.301     8899.798        9.800        3.994      340.710      111.734        0.108      346.483       24.761      858.704
06/11/2013  18:17:00     -206.033     -160.688        8.189      202.180      133.937       84.034    40876.947    17939.081     7061.657        6.709        3.294      261.286      102.031        0.152      346.560       24.892      858.714
06/11/2013  18:18:00     -187.400      -46.740        0.567      137.984      101.379       61.552    19039.595    10277.733     3788.633        3.520        1.655      193.140       61.132        0.100      346.663       25.070      858.743
06/11/2013  18:19:00     -222.756      -19.570        2.392      168.804      127.320       68.179    28494.788    16210.363     4648.392        4.967        2.468      223.614       74.117        0.110      346.651       25.050      858.740
06/11/2013  18:20:00     -495.541      -84.194      -36.800      198.893      156.421       88.154    39558.554    24467.506     7771.119       16.289        3.590      502.643       92.905        0.034      346.457       24.715      858.727
06/11/2013  18:21:00     -203.608      -98.442        1.339      175.540      105.565       70.324    30814.235    11144.037     4945.532        4.902        2.345      226.157       83.911        0.138      346.624       25.002      858.743
06/11/2013  18:22:00     -128.626      -92.820        3.617      162.421       95.686       51.635    26380.687     9155.746     2666.146        3.168        1.910      158.620       44.687        0.079      346.575       24.919      858.737
06/11/2013  18:23:00     -322.516     -168.309        0.966      166.931      175.947       98.342    27866.092    30957.451     9671.214       10.041        3.425      363.791       90.700        0.062      346.528       24.836      858.731
06/11/2013  18:24:00     -182.846      -36.895       20.853      184.648      111.054       81.170    34094.954    12332.897     6588.577        4.411        2.651      186.532       78.644        0.178      346.614       24.987      858.762
06/11/2013  18:25:00     -283.615      -51.752       -9.121      192.969      162.273       88.100    37237.007    26332.497     7761.532        7.725        3.567      288.298       82.670        0.082      346.460       24.720      858.783
06/11/2013  18:26:00     -441.572      -59.988       -8.954      187.609      161.084       92.063    35197.143    25948.030     8475.558       13.413        3.481      445.628       92.479        0.043      346.291       24.429      858.791
06/11/2013  18:27:00     -499.902     -133.744      -19.019      162.157      131.962       73.155    26294.962    17413.917     5351.650       15.860        2.453      517.484       79.664        0.024      346.214       24.296      858.803
06/11/2013  18:28:00     -470.663      -59.941      -29.722      169.573      143.690       72.764    28755.050    20646.795     5294.543       14.034        2.735      474.464       75.437        0.025      346.231       24.326      858.800
06/11/2013  18:29:00     -461.630     -150.381       -7.365      196.019      155.726       95.997    38423.367    24250.615     9215.486       15.382        3.594      485.506       95.429        0.039      346.173       24.226      858.804
06/11/2013  18:30:00     -300.795     -116.169        6.742      184.315      127.681       70.601    33971.839    16302.554     4984.471        7.963        2.763      322.448       76.824        0.057      346.303       24.450      858.791
06/11/2013  18:31:00     -421.989     -164.506      -23.960      213.581      140.810       95.331    45616.784    19827.401     9088.006       14.011        3.727      452.920      106.316        0.055      346.233       24.329      858.774
06/11/2013  18:32:00     -330.196     -163.476      -15.488      209.738      188.657       76.666    43990.235    35591.647     5877.746       11.071        4.273      368.448       95.851        0.068      346.271       24.395      858.773
06/11/2013  18:33:00     -114.756      -49.613        3.480      129.314       94.845       55.376    16722.092     8995.647     3066.541        2.221        1.439      125.022       37.520        0.090      346.444       24.694      858.791
06/11/2013  18:34:00     -582.878      -84.753      -22.027      206.907      132.514       96.722    42810.656    17560.059     9355.078       20.856        3.486      589.007      106.828        0.033      346.140       24.169      858.785
06/11/2013  18:35:00     -550.098      -83.157      -39.309      230.847      181.550       97.339    53290.259    32960.240     9474.911       20.338        4.786      556.348      114.457        0.042      346.140       24.169      858.777
06/11/2013  18:36:00     -417.308     -128.076      -11.037      209.733      153.198       83.018    43987.923    23469.654     6891.988       13.250        3.717      436.520       91.474        0.044      346.137       24.164      858.759
06/11/2013  18:37:00     -363.149     -108.954      -20.240      157.284      138.205       71.352    24738.290    19100.752     5091.165        9.653        2.447      379.142       83.581        0.049      346.221       24.309      858.773
06/11/2013  18:38:00     -218.774     -123.553        0.208      215.097      175.143       99.300    46266.643    30674.950     9860.520        7.495        4.340      251.252      119.269        0.225      346.266       24.387      858.760
06/11/2013  18:39:00     -407.543     -127.973       -2.968      180.141      163.072       86.521    32450.790    26592.359     7485.840       12.449        3.326      427.163       97.235        0.052      346.201       24.274      858.779
06/11/2013  18:40:00     -255.080      -88.352       -0.337      170.478      114.919       70.160    29062.776    13206.409     4922.484        6.002        2.360      269.948       74.518        0.076      346.226       24.318      858.775
06/11/2013  18:41:00     -375.040       12.117      -29.853      212.880      146.499       92.136    45317.840    21462.057     8489.038       10.847        3.763      375.235      101.986        0.074      346.109       24.116      858.788
06/11/2013  18:42:00     -486.718     -182.246        5.401      229.803      166.700       96.930    52809.638    27788.933     9395.412       18.005        4.500      519.719      111.784        0.046      346.132       24.155      858.758
06/11/2013  18:43:00     -329.228     -125.109       -3.834      258.898      191.147      103.593    67028.066    36537.207    10731.487       11.915        5.715      352.198      124.896        0.126      346.137       24.163      858.775
06/11/2013  18:44:00     -247.824      -64.726      -13.324      163.614      138.756       75.116    26769.556    19253.206     5642.426        5.871        2.583      256.137       76.074        0.088      346.162       24.206      858.784
06/11/2013  18:45:00     -489.260      -95.356       -5.401      214.096      195.880       96.352    45837.237    38368.850     9283.763       17.097        4.674      498.465       89.679        0.032      345.978       23.892      858.795
06/11/2013  18:46:00     -435.852      -61.178      -16.246      190.770      187.637       83.565    36393.218    35207.609     6983.027       13.626        3.929      440.125       82.632        0.035      345.961       23.863      858.783
06/11/2013  18:47:00     -436.313     -137.968      -20.701      184.896      154.213       79.141    34186.497    23781.738     6263.223       13.702        3.212      457.607       69.829        0.023      345.962       23.866      858.763
06/11/2013  18:48:00     -313.048      -52.871      -10.864      162.436      154.733       65.412    26385.379    23942.445     4278.668        7.775        2.730      317.481       71.073        0.050      346.042       24.002      858.781
06/11/2013  18:49:00     -263.531        8.147       13.278      188.091      120.684       80.769    35378.286    14564.580     6523.711        6.307        2.823      263.657       84.562        0.103      346.027       23.976      858.791
06/11/2013  18:50:00     -451.078      -45.904       -1.835      288.509      153.345      101.345    83237.651    23514.614    10270.782       16.128        5.851      453.408      123.046        0.074      345.915       23.785      858.827
06/11/2013  18:51:00     -542.102      -72.190      -34.536      207.422      176.328      102.901    43023.689    31091.502    10588.695       19.247        4.235      546.887       96.103        0.031      345.877       23.718      858.848
06/11/2013  18:52:00     -372.676        8.436      -22.187      167.539      105.360       68.767    28069.392    11100.723     4728.867        9.167        2.195      372.772       79.097        0.045      345.930       23.810      858.868
06/11/2013  18:53:00     -584.090     -102.296      -46.565      163.922      172.849       91.778    26870.476    29876.861     8423.219       20.947        3.259      592.981       85.107        0.021      345.858       23.684      858.873
06/11/2013  18:54:00     -540.203      -26.081      -35.250      207.043      164.651       95.282    42866.786    27109.864     9078.600       18.638        3.953      540.832      106.141        0.039      345.902       23.761      858.878
06/11/2013  18:55:00     -545.287      -73.838      -19.517      244.413      146.453      109.926    59737.549    21448.487    12083.723       19.820        4.663      550.263      119.812        0.047      345.889       23.739      858.915
06/11/2013  18:56:00     -346.213      -87.110      -26.229      180.028      173.467       70.924    32409.913    30090.932     5030.236        9.782        3.377      357.004       72.628        0.041      345.940       23.826      858.918
06/11/2013  18:57:00     -438.762     -117.544      -22.768      256.937      183.676       97.454    66016.777    33736.822     9497.322       15.803        5.463      454.234      106.807        0.055      345.882       23.725      858.944
06/11/2013  18:58:00     -273.733      -20.737       28.365      188.834      144.538       88.698    35658.448    20891.336     7867.395        7.028        3.221      274.517      101.895        0.138      345.946       23.837      858.963
06/11/2013  18:59:00     -515.015      -28.763      -31.735      291.826      139.897       98.981    85162.195    19571.139     9797.305       19.078        5.727      515.818      140.742        0.074      345.861       23.692      858.945
06/11/2013  19:00:00     -410.595        5.233      -17.215      170.190      179.253       85.876    28964.644    32131.463     7374.604       11.868        3.424      410.629       81.620        0.040      345.899       23.755      858.978
06/11/2013  19:01:00     -386.888     -142.566      -14.867      183.871      138.349       85.884    33808.393    19140.363     7376.016       11.526        3.016      412.319       65.637        0.025      345.895       23.751      858.984
06/11/2013  19:02:00     -395.039      -37.436       -8.371      253.070      171.879      107.967    64044.583    29542.492    11656.872       13.136        5.262      396.809      125.870        0.101      345.916       23.786      858.998
06/11/2013  19:03:00     -281.780      -99.622       16.245      239.092      150.109       97.038    57165.134    22532.592     9416.345        8.933        4.456      298.872      129.848        0.189      345.948       23.841      859.024
06/11/2013  19:04:00     -289.483     -166.689        7.749      171.450      146.221       82.694    29395.257    21380.530     6838.370        8.462        2.881      334.044       82.324        0.061      345.903       23.763      859.033
06/11/2013  19:05:00     -243.254     -122.401       33.969      248.500      193.117      118.529    61752.155    37294.085    14049.232        9.418        5.655      272.314      135.586        0.248      345.853       23.677      859.017
06/11/2013  19:06:00     -404.577      -41.533      -27.761      203.433      156.780       81.457    41384.836    24579.888     6635.184       11.937        3.630      406.703      102.148        0.063      345.844       23.662      859.063
06/11/2013  19:07:00     -291.347      -86.504       -6.267      179.311      130.949       69.577    32152.373    17147.607     4841.023        7.326        2.707      303.918       83.321        0.075      345.863       23.696      859.082
06/11/2013  19:08:00     -268.178     -118.736       -2.732      153.927      106.127       66.390    23693.576    11262.999     4407.614        6.269        1.968      293.288       74.914        0.065      345.848       23.668      859.092
06/11/2013  19:09:00     -243.860     -111.357        2.369      159.234      156.635       65.078    25355.505    24534.596     4235.085        6.299        2.706      268.082       69.084        0.066      345.835       23.649      859.083
06/11/2013  19:10:00     -254.597     -207.336       -8.485      156.632      147.168       79.869    24533.465    21658.494     6379.128        8.021        2.629      328.341       77.296        0.055      345.800       23.587      859.088
06/11/2013  19:11:00     -169.576     -141.155        1.695      141.264      138.500       75.106    19955.460    19182.316     5640.980        4.672        2.239      220.637       78.478        0.127      345.829       23.638      859.091
06/11/2013  19:12:00     -250.508      -81.404        4.191      186.106      130.047       80.021    34635.284    16912.194     6403.417        6.366        2.898      263.402       98.667        0.140      345.807       23.597      859.070
06/11/2013  19:13:00     -355.438      -36.416      -24.652      211.692      152.982       78.966    44813.533    23403.640     6235.706       10.135        3.723      357.299       79.250        0.049      345.789       23.568      859.101
06/11/2013  19:14:00     -258.814     -114.481        8.543      173.361      139.130       82.404    30054.159    19357.137     6790.461        6.817        2.810      283.003       83.615        0.087      345.781       23.556      859.097
06/11/2013  19:15:00     -190.574      -78.162       11.604      124.009      114.428       79.134    15378.137    13093.811     6262.185        3.864        1.737      205.980       64.715        0.099      345.817       23.616      859.086
06/11/2013  19:16:00     -257.908     -128.629        8.667      182.412      128.546       76.294    33273.996    16524.039     5820.712        6.937        2.781      288.205       85.395        0.088      345.845       23.664      859.120
06/11/2013  19:17:00     -422.017      -45.225      -19.929      154.078      146.868       75.884    23740.091    21570.181     5758.319       11.579        2.553      424.433       73.171        0.030      345.749       23.497      859.115
06/11/2013  19:18:00     -345.635     -193.593      -37.827      222.369      145.344       85.949    49448.180    21124.867     7387.195       11.815        3.898      396.159       92.068        0.054      345.763       23.522      859.124
06/11/2013  19:19:00     -313.526     -212.658        8.352      239.776      183.467       81.784    57492.732    33660.223     6688.603       12.070        4.892      378.843      110.039        0.084      345.745       23.492      859.093
06/11/2013  19:20:00     -213.404      -91.718       -2.768      152.524       88.336       50.527    23263.703     7803.262     2552.974        4.378        1.681      232.279       55.212        0.056      345.826       23.633      859.079
06/11/2013  19:21:00     -339.099     -130.666       -0.887      176.469      166.901       80.373    31141.220    27855.815     6459.889        9.875        3.273      363.403       91.827        0.064      345.793       23.574      859.096
06/11/2013  19:22:00     -346.110     -131.243       -1.289      234.792      166.621       87.129    55127.482    27762.392     7591.540       11.373        4.524      370.158      108.920        0.087      345.765       23.526      859.093
06/11/2013  19:23:00     -565.952     -136.112      -47.941      186.002      168.041      106.187    34596.743    28237.739    11275.643       20.760        3.706      582.089      111.772        0.037      345.656       23.339      859.063
06/11/2013  19:24:00     -542.539     -115.530      -32.485      176.104      176.564       80.167    31012.534    31174.986     6426.826       18.867        3.431      554.703       60.933        0.012      345.671       23.366      859.047
06/11/2013  19:25:00     -385.740      -96.115      -16.208      262.063      167.467       93.510    68677.257    28045.282     8744.036       13.186        5.273      397.535      122.015        0.094      345.697       23.409      859.039
06/11/2013  19:26:00     -406.422     -102.078        4.360      215.528      159.339       76.460    46452.449    25388.795     5846.166       12.664        3.884      419.045       86.384        0.042      345.708       23.425      859.031
06/11/2013  19:27:00     -437.953     -193.054       -6.620      235.054      215.285      103.038    55250.150    46347.775    10616.926       17.064        5.611      478.615      124.420        0.068      345.709       23.431      859.077
06/11/2013  19:28:00     -332.998     -230.451        3.509      241.175      177.893      110.522    58165.182    31645.855    12215.198       13.300        5.101      404.963      129.492        0.102      345.695       23.407      859.041
06/11/2013  19:29:00     -280.786     -212.936      -13.579      203.446      179.159       91.322    41390.475    32098.016     8339.761       10.308        4.091      352.396       95.431        0.073      345.729       23.465      859.049
06/11/2013  19:30:00     -319.044     -218.389        3.505      276.130      210.498      105.316    76247.850    44309.526    11091.439       14.055        6.582      386.630      120.523        0.097      345.708       23.429      859.061
06/11/2013  19:31:00     -379.513     -134.205      -22.168      185.128      197.499       68.591    34272.554    39005.758     4704.666       12.024        3.899      402.543       67.095        0.028      345.701       23.415      859.083
06/11/2013  19:32:00     -272.086      -45.716      -14.868      179.787      118.047       75.702    32323.340    13935.045     5730.757        6.415        2.599      275.900       77.008        0.078      345.722       23.452      859.096
06/11/2013  19:33:00     -102.821      -62.431       29.344      155.271      131.215       83.661    24109.159    17217.434     6999.166        3.182        2.416      120.290       88.242        0.538      345.760       23.521      859.079
06/11/2013  19:34:00     -423.563     -198.493       -5.735      202.829      174.226       93.681    41139.572    30354.745     8776.199       14.954        4.014      467.766       99.531        0.045      345.670       23.362      859.053
06/11/2013  19:35:00     -304.696     -266.793       12.140      221.530      237.842      116.768    49075.416    56568.956    13634.690       14.170        5.964      404.992      133.879        0.109      345.667       23.358      859.060
06/11/2013  19:36:00     -372.151      -97.720       -3.758      232.743      133.429       86.266    54169.359    17803.346     7441.782       11.372        3.971      384.766       89.399        0.054      345.670       23.364      859.102
06/11/2013  19:37:00     -302.447     -127.556        7.798      238.963      170.139       78.758    57103.240    28947.261     6202.860       10.001        4.613      328.244       89.764        0.075      345.615       23.269      859.087
06/11/2013  19:38:00     -278.474     -144.563       12.884      188.622      151.160       86.925    35578.409    22849.288     7555.934        8.228        3.299      313.761      105.383        0.113      345.619       23.275      859.050
06/11/2013  19:39:00     -414.491     -154.078      -31.659      166.617      146.413       89.081    27761.075    21436.640     7935.447       12.683        2.857      442.202       89.641        0.041      345.576       23.201      859.081
06/11/2013  19:40:00     -283.934     -104.138       -2.696      150.551      136.638       85.012    22665.507    18670.046     7226.976        7.001        2.428      302.429       84.355        0.078      345.594       23.233      859.053
06/11/2013  19:41:00     -282.750     -124.017        2.947      199.857      162.332       89.359    39942.850    26351.642     7985.008        8.479        3.714      308.752       79.560        0.066      345.602       23.247      859.029
06/11/2013  19:42:00     -345.762     -138.181       -9.626      162.466      106.995       72.288    26395.341    11447.949     5225.584        9.089        2.153      372.351       74.634        0.040      345.590       23.226      859.024
06/11/2013  19:43:00     -284.058      -97.777       -0.923      142.883      144.168       65.363    20415.552    20784.331     4272.364        6.785        2.274      300.415       57.718        0.037      345.578       23.206      859.013
06/11/2013  19:44:00     -297.115     -102.578      -18.606      136.837      132.511       68.939    18724.261    17559.288     4752.649        7.008        2.052      314.324       72.056        0.053      345.612       23.263      859.041
06/11/2013  19:45:00     -294.107     -134.983        1.723      195.316      171.329       77.989    38148.526    29353.657     6082.233        8.914        3.679      323.603       85.990        0.071      345.572       23.195      859.052
06/11/2013  19:46:00     -242.337      -65.845       -0.941      172.791      132.189       71.457    29856.647    17473.819     5106.150        5.774        2.622      251.123       66.896        0.071      345.586       23.220      859.077
06/11/2013  19:47:00     -230.947      -88.601        3.740      157.433      126.926       79.626    24785.167    16110.257     6340.275        5.421        2.362      247.359       88.095        0.127      345.554       23.164      859.070
06/11/2013  19:48:00     -362.256     -188.115      -15.157      274.383      213.525      109.176    75285.975    45592.869    11919.371       14.980        6.640      408.187      108.519        0.071      345.495       23.061      859.104
06/11/2013  19:49:00     -351.231     -119.383       -5.930      185.762      237.756      106.707    34507.665    56528.087    11386.350       12.002        5.121      370.966      115.457        0.097      345.495       23.061      859.129
06/11/2013  19:50:00     -322.929      -83.965      -13.368      180.221      130.226       76.039    32479.604    16958.816     5781.999        8.336        2.761      333.666       90.145        0.073      345.485       23.044      859.146
06/11/2013  19:51:00      -49.149      -65.852       20.994       98.805       76.651       53.921     9762.333     5875.349     2907.459        1.287        0.927       82.172       58.970        0.515      345.514       23.096      859.123
06/11/2013  19:52:00     -282.002      -68.167       -8.295      135.963       98.965       64.958    18485.970     9794.025     4219.559        5.836        1.625      290.124       68.882        0.056      345.477       23.032      859.124
06/11/2013  19:53:00     -301.361      -96.086        5.597      177.529      168.618       78.124    31516.481    28432.100     6103.290        8.305        3.303      316.308       79.497        0.063      345.488       23.050      859.167
06/11/2013  19:54:00     -382.937     -212.515      -29.029      232.183      150.826       86.970    53909.066    22748.429     7563.744       13.842        4.211      437.954       80.920        0.034      345.441       22.971      859.172
06/11/2013  19:55:00     -344.257     -112.466       -9.217      162.748      143.900       68.863    26486.842    20707.274     4742.132        9.158        2.597      362.162       75.458        0.043      345.430       22.952      859.199
06/11/2013  19:56:00     -195.807      -67.031        4.921      108.518      120.257       58.257    11776.091    14461.654     3393.915        3.624        1.482      206.962       50.511        0.060      345.417       22.931      859.206
06/11/2013  19:57:00     -298.682      -85.108      -42.769      185.146      105.648       86.210    34279.020    11161.552     7432.159        7.557        2.644      310.571       97.170        0.098      345.426       22.943      859.208
06/11/2013  19:58:00     -354.847      -68.310      -20.913      181.202      169.220       82.000    32833.995    28635.452     6724.066        9.959        3.410      361.362       86.656        0.058      345.397       22.895      859.173
06/11/2013  19:59:00     -151.118       -1.041       -6.309      149.054       63.922       52.425    22216.995     4086.074     2748.378        2.596        1.453      151.122       70.894        0.220      345.418       22.932      859.205
06/11/2013  20:00:00     -398.178     -109.499      -35.941      166.424      106.008       73.009    27696.901    11237.778     5330.250       10.804        2.213      412.960       68.626        0.028      345.411       22.919      859.198
06/11/2013  20:01:00     -561.113      -68.612      -28.177      211.936      198.776       94.268    44916.961    39511.781     8886.534       20.681        4.666      565.292      110.667        0.038      345.367       22.842      859.176
06/11/2013  20:02:00     -444.136     -178.475      -11.920      176.884      214.856       98.280    31288.062    46163.243     9658.941       15.816        4.356      478.655       97.219        0.041      345.358       22.827      859.139
06/11/2013  20:03:00     -207.500     -146.526        9.149      174.221      139.072       79.843    30353.102    19341.040     6374.980        6.033        2.803      254.020       78.617        0.096      345.364       22.840      859.149
06/11/2013  20:04:00     -200.916       -2.905      -13.565      247.628       80.487       81.729    61319.686     6478.130     6679.569        5.750        3.724      200.937      126.898        0.399      345.359       22.831      859.164
06/11/2013  20:05:00     -352.142      -17.315      -10.020      194.633      134.583       71.452    37881.995    18112.553     5105.400        9.274        3.055      352.567       78.241        0.049      345.334       22.785      859.164
06/11/2013  20:06:00     -479.322     -148.663      -22.203      201.401      183.079       75.302    40562.505    33517.921     5670.363       16.603        3.988      501.847       85.123        0.029      345.329       22.777      859.165
06/11/2013  20:07:00     -468.945     -132.735      -18.811      249.395      178.337       94.877    62197.881    31804.121     9001.637       17.042        5.150      487.368      117.890        0.059      345.321       22.764      859.190
06/11/2013  20:08:00     -368.995     -126.499       -9.695      248.102      149.356       80.347    61554.544    22307.246     6455.640       12.127        4.516      390.076      106.914        0.075      345.332       22.783      859.224
06/11/2013  20:09:00     -232.208      -45.374      -10.970      164.715      119.387       64.591    27130.961    14253.341     4172.060        5.082        2.278      236.599       54.272        0.053      345.321       22.764      859.247
06/11/2013  20:10:00     -224.639     -167.728       13.388      204.245      158.999      112.342    41716.109    25280.582    12620.814        7.918        3.981      280.348      128.855        0.211      345.328       22.776      859.227
06/11/2013  20:11:00     -369.027     -166.780      -12.901      250.147      123.136       86.621    62573.718    15162.468     7503.271       12.468        4.262      404.965      116.627        0.083      345.274       22.685      859.248
06/11/2013  20:12:00     -251.013     -139.944      -17.320      140.518      106.040       54.602    19745.376    11244.448     2981.378        5.842        1.699      287.387       48.504        0.028      345.278       22.692      859.271
06/11/2013  20:13:00     -135.096     -130.588       20.281      128.017      113.342       68.855    16388.364    12846.473     4741.071        3.484        1.699      187.894       72.191        0.148      345.266       22.672      859.279
06/11/2013  20:14:00     -191.976      -76.858        0.309      128.266       85.341       41.621    16452.292     7283.063     1732.310        3.411        1.273      206.789       48.914        0.056      345.257       22.655      859.298
06/11/2013  20:15:00     -181.276      -22.476        0.893      140.141       78.122       56.353    19639.593     6103.013     3175.676        3.114        1.446      182.664       60.066        0.108      345.233       22.614      859.318
06/11/2013  20:16:00     -112.814      -35.534       12.813      111.630       67.991       51.142    12461.264     4622.766     2615.504        1.692        0.985      118.278       61.573        0.271      345.224       22.598      859.319
06/11/2013  20:17:00     -187.480     -130.611        3.102      150.121       97.566       67.217    22536.179     9519.134     4518.108        4.439        1.829      228.491       77.003        0.114      345.230       22.608      859.335
06/11/2013  20:18:00     -180.847     -134.402       13.883      208.335      188.761       97.561    43403.497    35630.900     9518.162        6.974        4.428      225.320      113.741        0.255      345.202       22.560      859.299
06/11/2013  20:19:00     -331.397     -103.499        1.198      197.325      220.825       94.086    38937.039    48763.787     8852.234       10.853        4.828      347.183       92.000        0.070      345.181       22.524      859.295
06/11/2013  20:20:00     -193.207     -218.145       17.820      148.148      140.958       85.435    21947.892    19869.026     7299.186        6.716        2.456      291.404       91.317        0.098      345.180       22.521      859.317
06/11/2013  20:21:00     -276.968     -125.739      -13.437      128.426       93.194       54.860    16493.352     8685.168     3009.669        6.044        1.409      304.174       62.870        0.043      345.173       22.511      859.331
06/11/2013  20:22:00     -447.436     -128.750      -16.408      198.353      166.907       80.986    39344.095    27857.806     6558.754       14.539        3.688      465.592       87.363        0.035      345.141       22.455      859.333
06/11/2013  20:23:00     -329.213     -110.139       -6.586      276.442      201.482      107.787    76420.202    40595.047    11618.019       12.457        6.432      347.148      120.546        0.121      345.162       22.491      859.297
06/11/2013  20:24:00     -443.666      -57.046      -18.449      184.791      130.013       80.343    34147.862    16903.305     6455.052       12.896        2.875      447.319       89.610        0.040      345.157       22.483      859.301
06/11/2013  20:25:00     -347.451       -9.438      -13.323      158.798       94.555       71.971    25216.888     8940.636     5179.755        8.016        1.967      347.579       66.043        0.036      345.170       22.506      859.327
06/11/2013  20:26:00     -161.831      -93.268        3.618       94.607       67.914       46.105     8950.503     4612.332     2125.685        2.529        0.784      186.784       42.392        0.052      345.191       22.545      859.337
06/11/2013  20:27:00     -315.446     -118.336      -19.073      180.989       95.198       69.262    32756.847     9062.614     4797.224        8.024        2.331      336.912       93.515        0.077      345.182       22.525      859.320
06/11/2013  20:28:00     -277.231     -169.295        5.476      168.727      109.561       71.602    28468.923    12003.717     5126.863        7.556        2.280      324.835       78.264        0.058      345.190       22.540      859.306
06/11/2013  20:29:00     -292.786     -152.531        9.236      160.097      159.246       83.934    25631.175    25359.277     7044.872        8.354        2.902      330.135       81.848        0.061      345.144       22.459      859.322
06/11/2013  20:30:00     -176.880      -43.845       18.896      150.644      141.789       79.200    22693.657    20104.203     6272.714        4.131        2.454      182.233       80.583        0.196      345.111       22.406      859.315
06/11/2013  20:31:00     -133.339      -35.737       16.910      171.480      154.936       71.143    29405.299    24005.085     5061.346        3.890        2.924      138.045       84.546        0.375      345.028       22.264      859.300
06/11/2013  20:32:00     -303.540     -266.484       -0.808      178.821      147.832       89.768    31976.993    21854.391     8058.267       11.251        3.094      403.918      103.649        0.066      345.101       22.389      859.276
06/11/2013  20:33:00     -334.787     -153.997      -22.939      168.163      121.462       75.947    28278.895    14753.136     5767.902        9.255        2.440      368.507       73.422        0.040      345.118       22.416      859.266
06/11/2013  20:34:00     -266.270      -72.784       -4.074      125.638      150.848       78.554    15785.021    22755.041     6170.704        6.045        2.236      276.038       69.802        0.064      345.119       22.417      859.297
06/11/2013  20:35:00     -454.615     -161.434      -13.802      261.115      173.070       88.145    68181.219    29953.363     7769.483       16.939        5.295      482.427      114.191        0.056      345.095       22.378      859.283
06/11/2013  20:36:00     -150.498      -35.587        0.384      130.080       72.779       56.438    16920.920     5296.794     3185.303        2.465        1.270      154.649       52.393        0.115      345.076       22.349      859.286
06/11/2013  20:37:00     -289.044      -29.655      -11.186      148.943       97.867       61.274    22184.045     9577.859     3754.509        6.003        1.776      290.561       71.010        0.060      345.060       22.317      859.299
06/11/2013  20:38:00     -118.464      -86.676        1.697       96.568      113.083       60.865     9325.290    12787.779     3704.513        2.368        1.291      146.787       56.025        0.146      345.089       22.370      859.294
06/11/2013  20:39:00     -156.650      -16.379       -5.400      126.949       93.508       52.817    16116.021     8743.750     2789.685        2.624        1.382      157.503       53.039        0.113      345.016       22.242      859.308
06/11/2013  20:40:00     -273.422      -85.154       -0.875      150.628      109.721       64.149    22688.716    12038.593     4115.137        6.042        1.942      286.376       68.214        0.057      345.061       22.320      859.316
06/11/2013  20:41:00     -185.552     -141.051        8.978      129.678       96.462       62.350    16816.427     9304.913     3887.563        4.220        1.500      233.077       60.566        0.068      345.051       22.303      859.331
06/11/2013  20:42:00     -172.968     -204.210        6.058      104.747      174.900       63.600    10971.855    30590.035     4045.018        5.862        2.280      267.618       55.381        0.043      345.031       22.270      859.255
06/11/2013  20:43:00     -358.416      -95.858       -7.158      242.179      163.589       82.702    58650.608    26761.472     6839.550       11.496        4.613      371.013      103.693        0.078      345.013       22.238      859.260
06/11/2013  20:44:00     -397.086     -114.681      -40.677      200.797      160.780       80.124    40319.437    25850.237     6419.809       12.252        3.629      413.315       87.588        0.045      345.003       22.220      859.273
06/11/2013  20:45:00     -154.315      -97.306       10.184      147.839      118.989       64.386    21856.338    14158.484     4145.549        3.676        2.008      182.433       74.836        0.168      344.989       22.200      859.311
06/11/2013  20:46:00     -244.610      -85.726       -2.785      204.621       99.921       61.023    41869.731     9984.264     3723.794        6.137        2.779      259.197       88.964        0.118      344.993       22.204      859.319
06/11/2013  20:47:00     -278.854     -144.673       -3.078      121.890      116.404       59.876    14857.273    13549.910     3585.193        6.534        1.600      314.149       61.965        0.039      344.995       22.206      859.330
06/11/2013  20:48:00     -213.624      -52.859       -0.790      138.769       98.719       58.105    19256.889     9745.387     3376.220        4.040        1.619      220.067       63.643        0.084      344.973       22.171      859.341
06/11/2013  20:49:00     -214.509      -28.458       -1.031      131.310       81.598       52.138    17242.371     6658.261     2718.402        3.672        1.331      216.389       37.902        0.031      345.016       22.244      859.346
06/11/2013  20:50:00      -83.275     -110.173       -2.731       92.909       90.414       40.939     8632.049     8174.684     1675.968        1.878        0.924      138.104       29.837        0.047      345.040       22.287      859.345
06/11/2013  20:51:00      -89.680      -71.852        3.774      100.532       64.921       47.820    10106.750     4214.756     2286.791        1.491        0.830      114.913       49.163        0.183      345.003       22.222      859.378
06/11/2013  20:52:00     -240.882     -232.965      -10.652      134.180      112.496       65.138    18004.262    12655.359     4242.934        7.365        1.745      335.107       57.163        0.029      344.977       22.173      859.409
06/11/2013  20:53:00     -132.920     -135.353       14.368      132.982       86.240       50.674    17684.257     7437.327     2567.854        3.194        1.384      189.706       65.469        0.119      344.938       22.109      859.418
06/11/2013  20:54:00     -179.719     -168.939       -3.618       86.797      123.584       58.861     7533.638    15273.112     3464.602        4.356        1.314      246.656       45.035        0.033      344.940       22.113      859.429
06/11/2013  20:55:00     -142.325     -147.986        0.590       98.124       86.292       43.905     9628.313     7446.270     1927.606        3.058        0.950      205.320       50.773        0.061      344.928       22.092      859.433
06/11/2013  20:56:00     -138.716      -97.783        8.985      101.806       86.068       44.871    10364.418     7407.660     2013.400        2.433        0.989      169.717       46.366        0.075      344.925       22.087      859.438
06/11/2013  20:57:00     -177.211     -171.540       -7.243      104.010      115.592       50.637    10818.167    13361.507     2564.094        4.381        1.337      246.637       38.288        0.024      344.912       22.066      859.418
06/11/2013  20:58:00     -155.988     -116.216        0.744      124.717       88.373       57.306    15554.424     7809.837     3283.967        3.224        1.332      194.521       55.307        0.081      344.880       22.012      859.446
06/11/2013  20:59:00     -108.644     -210.676       -0.582       99.258       79.052       49.648     9852.187     6249.225     2464.974        3.737        0.928      237.040       52.090        0.048      344.879       22.008      859.462
06/11/2013  21:00:00     -208.997     -133.815        3.545      112.377       72.035       52.188    12628.480     5189.042     2723.579        4.107        1.027      248.166       56.339        0.052      344.856       21.970      859.489
06/11/2013  21:01:00     -210.412     -119.473        0.001      100.486       83.988       53.552    10097.510     7053.950     2867.843        3.928        1.001      241.964       54.526        0.051      344.856       21.969      859.517
06/11/2013  21:02:00     -135.090      -65.672       -2.788       92.285       63.360       35.275     8516.471     4014.481     1244.302        1.817        0.689      150.207       24.251        0.026      344.864       21.985      859.529
06/11/2013  21:03:00      -72.428      -64.111       12.298      105.320       64.151       30.445    11092.235     4115.333      926.917        1.282        0.807       96.727       37.530        0.151      344.844       21.951      859.552
06/11/2013  21:04:00     -109.320      -69.734        1.312      100.854      115.400       50.789    10171.615    13317.266     2579.573        2.144        1.303      129.668       44.338        0.117      344.882       22.015      859.574
06/11/2013  21:05:00     -142.537     -234.719       -0.164       96.497       86.469       51.040     9311.622     7476.828     2605.078        4.740        0.970      274.609       36.964        0.018      344.885       22.017      859.586
06/11/2013  21:06:00      -25.659      -81.462       24.576       70.619       69.985       41.099     4987.089     4897.863     1689.125        0.973        0.579       85.408       36.998        0.188      344.857       21.973      859.586
06/11/2013  21:07:00     -111.151      -90.446       -3.343       63.608       57.980       32.890     4045.951     3361.716     1081.769        1.452        0.424      143.300       18.427        0.017      344.846       21.956      859.614
06/11/2013  21:08:00      -40.049      -70.684      -15.231       45.534       43.287       34.182     2073.375     1873.736     1168.420        0.597        0.256       81.241       18.323        0.051      344.838       21.939      859.651
06/11/2013  21:09:00      -52.310      -72.165        8.747       51.351       42.407       39.603     2636.932     1798.313     1568.414        0.701        0.300       89.130       22.919        0.066      344.844       21.954      859.638
06/11/2013  21:10:00       -5.243      -32.147       -1.801       26.507       49.767       30.136      702.631     2476.713      908.208        0.258        0.204       32.571       30.344        0.868      344.823       21.915      859.610
06/11/2013  21:11:00      -44.212      -16.009       -9.847       29.855       41.366       18.569      891.347     1711.147      344.825        0.263        0.147       47.021       12.523        0.071      344.837       21.939      859.618
06/11/2013  21:12:00     -135.882      -50.872      -18.862       48.879       46.726       25.360     2389.187     2183.276      643.130        1.331        0.261      145.092       19.268        0.018      344.826       21.920      859.616
06/11/2013  21:13:00     -179.086     -105.359       -7.424       85.490       85.468       47.447     7308.578     7304.726     2251.183        3.004        0.843      207.779       53.157        0.065      344.818       21.904      859.603
06/11/2013  21:14:00     -148.479     -118.451        1.138       98.367       59.073       35.103     9675.988     3489.622     1232.220        2.524        0.720      189.939       20.939        0.012      344.817       21.903      859.632
06/11/2013  21:15:00     -163.688     -159.567       -5.122      118.051       99.958       47.678    13936.017     9991.677     2273.192        3.924        1.310      228.594       43.979        0.037      344.785       21.846      859.670
06/11/2013  21:16:00     -200.904      -47.673        6.485      122.676      116.717       53.028    15049.510    13622.825     2811.972        3.707        1.574      206.482       53.679        0.068      344.749       21.785      859.674
06/11/2013  21:17:00     -162.285     -178.254      -11.633      107.102      109.950       53.379    11470.832    12088.948     2849.268        4.232        1.320      241.062       43.242        0.032      344.743       21.775      859.652
06/11/2013  21:18:00     -228.685     -197.713       11.051      172.827       99.525       71.517    29869.223     9905.130     5114.630        6.819        2.244      302.303       82.119        0.074      344.725       21.744      859.646
06/11/2013  21:19:00     -406.103     -335.670      -17.809      178.330      144.818       88.095    31801.691    20972.335     7760.735       16.921        3.027      526.872       99.849        0.036      344.749       21.785      859.642
06/11/2013  21:20:00     -226.504     -147.039       10.294      116.986       74.848       50.814    13685.809     5602.271     2582.080        4.745        1.094      270.045       53.971        0.040      344.719       21.732      859.654
06/11/2013  21:21:00     -223.243      -88.193       -6.741      112.009      103.529       46.381    12545.920    10718.353     2151.221        4.153        1.271      240.033       43.400        0.033      344.712       21.722      859.695
06/11/2013  21:22:00     -237.089     -109.988       -7.401      123.644       90.457       50.839    15287.740     8182.512     2584.640        4.720        1.303      261.359       46.998        0.032      344.728       21.749      859.719
06/11/2013  21:23:00     -143.216     -138.838       -2.966       72.400       94.926       41.304     5241.703     9010.991     1706.019        2.787        0.798      199.466       34.888        0.031      344.711       21.718      859.728
06/11/2013  21:24:00     -147.422      -74.491        2.839       69.123       68.420       37.888     4777.935     4681.330     1435.464        1.909        0.545      165.174       37.646        0.052      344.681       21.671      859.695
06/11/2013  21:25:00      -81.303      -84.555        1.040       71.839       50.472       25.957     5160.841     2547.464      673.762        1.107        0.419      117.302       34.700        0.088      344.665       21.645      859.664
06/11/2013  21:26:00     -125.081      -60.015      -12.823      119.324       64.814       48.057    14238.316     4200.853     2309.522        2.008        1.037      138.734       49.863        0.129      344.675       21.662      859.637
06/11/2013  21:27:00     -189.710       15.967       -0.011       83.534       77.661       46.995     6977.924     6031.171     2208.557        2.573        0.761      190.381       44.795        0.055      344.652       21.619      859.640
06/11/2013  21:28:00     -150.379     -117.585       -8.016       94.806       57.297       36.498     8988.166     3282.979     1332.087        2.505        0.680      190.893       24.580        0.017      344.655       21.626      859.629
06/11/2013  21:29:00     -160.385       -0.588      -20.451       61.422       84.003       36.156     3772.645     7056.574     1307.252        1.914        0.607      160.386       24.342        0.023      344.633       21.588      859.659
06/11/2013  21:30:00     -189.902      -30.971        1.380       78.589       69.568       43.367     6176.159     4839.742     1880.679        2.496        0.645      192.411       42.420        0.049      344.604       21.538      859.691
06/11/2013  21:31:00     -269.554      -31.249      -30.137       75.028       70.040       47.367     5629.225     4905.546     2243.591        4.366        0.639      271.359       39.568        0.021      344.609       21.544      859.656
06/11/2013  21:32:00     -111.985     -112.021        4.147      109.860       79.425       47.134    12069.221     6308.369     2221.628        2.285        1.030      158.396       53.014        0.112      344.585       21.507      859.665
06/11/2013  21:33:00     -124.158     -253.229        0.602       69.845       90.060       46.708     4878.283     8110.751     2181.653        4.735        0.759      282.028       44.000        0.024      344.596       21.523      859.736
06/11/2013  21:34:00       33.132      -63.945        6.562       53.734       60.594       38.177     2887.335     3671.617     1457.512        0.662        0.401       72.019       40.041        0.309      344.576       21.493      859.752
06/11/2013  21:35:00      -29.308      -65.693       -6.776       64.830       61.354       29.084     4202.871     3764.262      845.882        0.701        0.441       71.934       20.262        0.079      344.620       21.568      859.772
06/11/2013  21:36:00      -45.757     -299.615       -6.112       84.672      113.257       45.950     7169.337    12827.205     2111.367        5.700        1.105      303.089       30.483        0.010      344.648       21.613      859.775
06/11/2013  21:37:00      -26.783     -119.360        0.890      107.645       75.867       48.672    11587.464     5755.748     2368.959        1.733        0.986      122.328       39.711        0.105      344.655       21.625      859.826
06/11/2013  21:38:00      -87.702        7.574       -0.609       70.827       48.359       33.292     5016.503     2338.549     1108.383        0.810        0.423       88.028       34.773        0.156      344.609       21.548      859.796
06/11/2013  21:39:00     -106.000        6.600       -7.096       40.061       33.487       21.654     1604.859     1121.371      468.911        0.726        0.160      106.205       22.154        0.044      344.561       21.465      859.797
06/11/2013  21:40:00      -69.812      -11.129       14.140       89.617       67.107       37.988     8031.292     4503.337     1443.093        0.958        0.699       70.694       42.802        0.367      344.526       21.408      859.760
06/11/2013  21:41:00     -121.349      -36.807       -0.526      141.969       77.889       52.099    20155.231     6066.719     2714.320        2.250        1.447      126.809       62.673        0.244      344.588       21.511      859.815
06/11/2013  21:42:00     -250.971     -109.173       -7.117      110.451      124.017       60.610    12199.463    15380.268     3673.535        5.310        1.563      273.688       52.642        0.037      344.665       21.641      859.805
06/11/2013  21:43:00     -227.960      -69.567      -15.723      119.473       84.342       55.991    14273.907     7113.537     3135.041        4.078        1.226      238.339       50.427        0.045      344.629       21.579      859.783
06/11/2013  21:44:00     -180.009      -30.779       17.041      157.622       88.888       58.409    24844.542     7901.121     3411.656        3.489        1.808      182.622       82.174        0.202      344.602       21.536      859.773
06/11/2013  21:45:00     -174.785     -112.723       12.501      111.915       80.954       54.981    12525.020     6553.480     3022.883        3.275        1.105      207.981       56.873        0.075      344.646       21.610      859.856
06/11/2013  21:46:00     -120.001     -191.181        5.037       75.902       90.418       43.491     5761.097     8175.491     1891.500        3.340        0.791      225.722       36.657        0.026      344.672       21.653      859.971
06/11/2013  21:47:00     -108.854     -182.581      -14.248       81.578       98.998       45.768     6655.037     9800.641     2094.713        3.197        0.928      212.568       42.797        0.041      344.656       21.626      860.014
06/11/2013  21:48:00      -70.953      -46.009        4.557       64.089       57.809       32.518     4107.420     3341.934     1057.389        0.784        0.425       84.564       33.618        0.158      344.603       21.539      859.979
06/11/2013  21:49:00     -226.044      -48.872      -20.145      169.077       90.669       50.079    28586.927     8220.913     2507.907        4.660        1.966      231.267       63.593        0.076      344.595       21.524      859.965
06/11/2013  21:50:00     -211.243      -30.563        0.171      136.497       98.750       54.855    18631.421     9751.560     3009.113        3.847        1.570      213.443       56.879        0.071      344.543       21.435      859.897
06/11/2013  21:51:00      -35.607      -55.612       -3.792       29.873       30.818       18.388      892.369      949.721      338.119        0.328        0.109       66.035        8.820        0.018      344.590       21.519      859.947
06/11/2013  21:52:00      -38.123      -64.829       -3.838       33.468       26.690       19.482     1120.096      712.359      379.558        0.394        0.111       75.208       13.972        0.035      344.604       21.540      859.993
06/11/2013  21:53:00      -32.287      -27.553        2.771       73.978       49.363       33.609     5472.751     2436.680     1129.588        0.542        0.452       42.445       34.394        0.657      344.546       21.443      860.010
06/11/2013  21:54:00      -24.456     -117.170      -19.612       81.640       66.743       46.918     6665.023     4454.635     2201.329        1.401        0.666      119.695       47.899        0.160      344.526       21.405      860.040
06/11/2013  21:55:00      -72.966      -53.316        8.736       51.487       62.282       31.763     2650.882     3879.060     1008.883        0.789        0.377       90.370       30.144        0.111      344.488       21.341      860.044
06/11/2013  21:56:00      -31.154     -107.362       -1.501       56.259       49.199       29.390     3165.068     2420.568      863.745        0.947        0.322      111.790       18.930        0.029      344.504       21.369      860.050
06/11/2013  21:57:00      -90.949      -85.422       -1.054       62.742       64.765       30.772     3936.614     4194.447      946.928        1.232        0.454      124.774       34.934        0.078      344.485       21.334      860.087
06/11/2013  21:58:00     -120.437      -10.388        2.620       87.968       48.401       36.242     7738.354     2342.610     1313.476        1.300        0.570      120.884       45.740        0.143      344.449       21.274      860.052
06/11/2013  21:59:00     -101.471     -117.364        5.800       97.751       60.409       45.252     9555.187     3649.210     2047.783        1.968        0.763      155.147       49.374        0.101      344.455       21.285      860.085
06/11/2013  22:00:00      -99.643      -76.130       14.041       89.637      130.109       43.246     8034.866    16928.301     1870.216        2.137        1.342      125.397       41.070        0.107      344.471       21.310      860.071
06/11/2013  22:01:00     -214.681       21.827      -21.889       58.595       57.925       41.120     3433.320     3355.338     1690.865        2.776        0.424      215.788       26.098        0.015      344.448       21.274      860.039
06/11/2013  22:02:00      -50.904     -181.434       -1.273       77.584      104.984       42.587     6019.276    11021.733     1813.672        2.718        0.943      188.440       41.264        0.048      344.440       21.258      860.093
06/11/2013  22:03:00      -77.941     -164.790      -17.355       47.374       62.735       34.812     2244.328     3935.630     1211.871        2.046        0.370      182.293       24.897        0.019      344.441       21.260      860.140
06/11/2013  22:04:00      -10.275      -54.266       -1.234       45.668       49.043       26.433     2085.598     2405.206      698.704        0.412        0.259       55.230       23.847        0.186      344.385       21.166      860.148
06/11/2013  22:05:00     -122.086      -96.468      -15.503      123.200       84.194       43.402    15178.220     7088.668     1883.701        2.430        1.208      155.599       40.136        0.067      344.431       21.245      860.174
06/11/2013  22:06:00      -39.524      -88.918        9.736       73.714       66.350       39.773     5433.712     4402.334     1581.881        1.049        0.571       97.307       35.455        0.133      344.462       21.298      860.154
06/11/2013  22:07:00      -98.105      -37.191        6.689       62.607       48.959       25.538     3919.602     2397.009      652.166        0.901        0.348      104.918       24.556        0.055      344.446       21.270      860.130
06/11/2013  22:08:00      -62.640      -22.847       -6.042       24.531       14.199       12.601      601.777      201.601      158.789        0.272        0.048       66.677        9.245        0.019      344.527       21.412      860.115
06/11/2013  22:09:00      -12.720       38.221       10.516       63.627       31.577       23.029     4048.414      997.098      530.353        0.365        0.279       40.282       30.053        0.557      344.442       21.265      860.113
06/11/2013  22:10:00       -9.360       -0.234       -3.097       41.565       24.373       40.703     1727.655      594.031     1656.764        0.204        0.199        9.363       33.307       12.654      344.435       21.252      860.118
06/11/2013  22:11:00       84.601       31.500       10.701       22.049       30.690       31.444      486.155      941.890      988.709        0.534        0.121       90.275       26.436        0.086      344.449       21.277      860.080
06/11/2013  22:12:00       44.395        3.899        5.609       38.194       48.013       18.754     1458.787     2305.219      351.704        0.307        0.206       44.566       21.774        0.239      344.460       21.295      860.093
06/11/2013  22:13:00      -33.381      -16.180       -4.491       27.768       20.842       11.258      771.036      434.390      126.740        0.136        0.067       37.096       12.030        0.105      344.498       21.358      860.128
06/11/2013  22:14:00        3.574        0.767       21.335       36.816       40.113       25.353     1355.412     1609.013      642.751        0.204        0.180        3.656       29.240       63.973      344.445       21.268      860.134
06/11/2013  22:15:00      -23.093      -98.490      -23.577       48.354       46.105       19.260     2338.084     2125.662      370.966        0.781        0.242      101.161       16.097        0.025      344.419       21.225      860.174
06/11/2013  22:16:00      -12.807      -25.619       10.725       36.091       30.552       20.484     1302.531      933.451      419.612        0.179        0.133       28.641       17.686        0.381      344.358       21.121      860.206
06/11/2013  22:17:00       17.130       32.744       43.733       25.137       25.096       21.950      631.890      629.796      481.806        0.251        0.087       36.954       18.545        0.252      344.319       21.054      860.196
06/11/2013  22:18:00       28.549       12.886       43.006       28.839       40.738       22.663      831.699     1659.567      513.627        0.292        0.150       31.322       17.557        0.314      344.385       21.165      860.127
06/11/2013  22:19:00       51.389       15.642       12.857       35.470       22.331       20.414     1258.128      498.667      416.736        0.261        0.109       53.716       18.886        0.124      344.426       21.235      860.073
06/11/2013  22:20:00       74.657       68.647       34.176       43.849       41.386       45.899     1922.722     1712.808     2106.733        0.860        0.287      101.420       27.905        0.076      344.323       21.061      860.035
06/11/2013  22:21:00      104.538       80.662       66.145       78.350       44.853       47.594     6138.719     2011.760     2265.207        1.611        0.521      132.040       36.994        0.078      344.371       21.141      860.011
06/11/2013  22:22:00       36.394       -5.086       52.442       56.757      105.549       54.061     3221.407    11140.517     2922.592        1.069        0.864       36.748       64.133        3.046      344.402       21.193      860.039
06/11/2013  22:23:00       22.543       53.817       94.107       42.388       96.429       60.952     1796.751     9298.523     3715.178        1.353        0.741       58.347       69.576        1.422      344.343       21.096      860.070
06/11/2013  22:24:00      -23.742       -5.970       44.317       54.404       58.557       53.664     2959.764     3428.941     2879.842        0.591        0.463       24.481       54.270        4.914      344.268       20.967      860.112
06/11/2013  22:25:00        1.265      -57.235        0.175       30.107       36.948       26.483      906.433     1365.188      701.344        0.312        0.149       57.249       20.146        0.124      344.305       21.030      860.121
06/11/2013  22:26:00      -27.538       22.484       -2.142       34.180       27.330       24.346     1168.300      746.914      592.732        0.189        0.125       35.551       14.661        0.170      344.235       20.909      860.098
06/11/2013  22:27:00        5.725       35.337       17.106       22.920       15.111       17.039      525.307      228.337      290.332        0.131        0.052       35.798       16.170        0.204      344.190       20.835      860.060
06/11/2013  22:28:00        7.697      100.315      -10.341       40.803       41.640       20.998     1664.873     1733.874      440.902        0.703        0.192      100.610       21.230        0.045      344.273       20.974      860.026
06/11/2013  22:29:00       26.163       79.173       -0.877       33.110       47.650       23.321     1096.290     2270.525      543.861        0.543        0.196       83.384       25.619        0.094      344.261       20.955      859.994
06/11/2013  22:30:00       55.915       47.607       58.006       56.639       41.222       39.436     3207.998     1699.224     1555.181        0.761        0.323       73.436       34.085        0.215      344.216       20.879      859.988
06/11/2013  22:31:00       38.905       -5.767       24.240       38.670       46.574       36.312     1495.403     2169.121     1318.527        0.356        0.249       39.330       35.247        0.803      344.329       21.071      860.017
06/11/2013  22:32:00       15.061      -50.537       -5.064       22.480       20.791       14.335      505.351      432.286      205.496        0.197        0.057       52.733       12.594        0.057      344.334       21.076      860.043
06/11/2013  22:33:00       -4.080       -2.608       10.988        6.926       19.279       11.133       47.965      371.690      123.942        0.034        0.027        4.843       11.724        5.861      344.261       20.952      860.017
06/11/2013  22:34:00       11.056       15.693       16.002       17.597       17.517       14.222      309.656      306.850      202.277        0.072        0.041       19.196        9.328        0.236      344.227       20.894      859.979
06/11/2013  22:35:00       -3.490       -7.195       31.280       14.337       37.995       18.775      205.562     1443.611      352.498        0.152        0.100        7.997       20.057        6.291      344.261       20.955      859.984
06/11/2013  22:36:00       32.658       37.204       26.196       27.557       38.334       34.860      759.395     1469.487     1215.186        0.329        0.172       49.504       29.833        0.363      344.233       20.907      859.965
06/11/2013  22:37:00       19.081      -43.169       -3.098       20.511       40.644       25.477      420.687     1651.969      649.102        0.248        0.136       47.198       26.104        0.306      344.256       20.945      859.962
06/11/2013  22:38:00      -16.912      -64.101        6.611       42.949       49.230       31.734     1844.589     2423.618     1007.033        0.486        0.264       66.294       22.178        0.112      344.259       20.951      859.951
06/11/2013  22:39:00      -63.318      -14.165       -2.579       39.140       31.160       19.488     1531.946      970.955      379.784        0.355        0.144       64.883       19.977        0.095      344.062       20.615      859.950
06/11/2013  22:40:00      -71.260      -15.636       -2.484       23.751       25.756       13.015      564.107      663.375      169.384        0.336        0.070       72.955       10.132        0.019      344.041       20.577      859.951
06/11/2013  22:41:00      -59.330      -22.334        8.483       26.280       13.616       13.272      690.632      185.392      176.150        0.257        0.053       63.394       13.918        0.048      344.125       20.723      859.942
06/11/2013  22:42:00      -65.913      -20.119       -1.489       24.102       14.236       10.729      580.905      202.651      115.112        0.282        0.045       68.915       10.962        0.025      344.175       20.809      859.942
06/11/2013  22:43:00      -97.418       -9.825       -2.312       26.559       22.261       11.087      705.390      495.555      122.913        0.546        0.066       97.912       12.525        0.016      344.166       20.791      859.952
06/11/2013  22:44:00      -85.820      -27.922        5.545       55.154       26.523       20.128     3041.975      703.475      405.117        0.616        0.208       90.248       23.380        0.067      344.189       20.831      859.978
06/11/2013  22:45:00     -103.494      -43.380        2.963       30.617       27.078       17.708      937.385      733.217      313.578        0.729        0.099      112.217        8.249        0.005      344.281       20.987      859.996
06/11/2013  22:46:00      -65.245      -11.836       -3.180       21.009       22.904       11.271      441.390      524.585      127.039        0.275        0.055       66.310        9.720        0.021      344.242       20.922      859.979
06/11/2013  22:47:00      -49.753       61.348        5.122       21.339       30.450       20.131      455.333      927.222      405.257        0.403        0.089       78.987       14.778        0.035      344.124       20.721      859.934
06/11/2013  22:48:00      -70.142       34.725       -5.801       22.963       16.635       13.684      527.310      276.722      187.262        0.358        0.050       78.267       10.467        0.018      344.164       20.788      859.919
06/11/2013  22:49:00      -48.201       48.262       -5.953       23.569       21.749       13.497      555.479      473.035      182.168        0.295        0.061       68.210       10.278        0.023      344.159       20.780      859.901
06/11/2013  22:50:00       11.483       35.244        6.444       17.539       21.100       16.677      307.617      445.230      278.137        0.122        0.052       37.067       14.175        0.146      344.129       20.730      859.872
06/11/2013  22:51:00       17.549       -9.054       -7.086       14.822       16.255       10.044      219.705      264.241      100.891        0.051        0.029       19.747        8.914        0.204      344.147       20.758      859.867
06/11/2013  22:52:00        6.581        5.401       33.349       16.710       28.351       15.834      279.234      803.776      250.716        0.126        0.067        8.513       16.001        3.533      344.044       20.584      859.893
06/11/2013  22:53:00       -8.446       29.764       42.904        7.123       14.814       13.157       50.737      219.443      173.113        0.162        0.022       30.939        9.697        0.098      343.959       20.437      859.913
06/11/2013  22:54:00       20.380       40.356       28.608       23.297       18.744       16.467      542.734      351.353      271.160        0.201        0.058       45.210       14.880        0.108      344.064       20.617      859.898
06/11/2013  22:55:00       -2.580       74.383       93.199       31.114       47.480       26.501      968.097     2254.374      702.289        0.907        0.196       74.428       28.993        0.152      344.039       20.576      859.862
06/11/2013  22:56:00       24.624       63.805       65.902       21.483       49.451       35.325      461.515     2445.420     1247.853        0.659        0.208       68.392       38.090        0.310      344.038       20.571      859.861
06/11/2013  22:57:00       12.024       10.589       35.978       26.131       28.234       22.073      682.825      797.158      487.216        0.176        0.098       16.022       17.729        1.224      344.075       20.636      859.885
06/11/2013  22:58:00       55.222      -61.471        0.092       40.576       30.536       28.935     1646.382      932.420      837.258        0.512        0.171       82.632       24.307        0.087      344.207       20.860      859.900
06/11/2013  22:59:00       37.471      -52.113        8.501       24.563       32.327       20.441      603.317     1045.035      417.855        0.313        0.103       64.186       20.082        0.098      344.188       20.830      859.908
06/11/2013  23:00:00      112.195      -28.514       55.353       78.017       61.510       56.420     6086.633     3783.469     3183.189        1.476        0.653      115.762       59.188        0.261      344.316       21.047      859.880
06/11/2013  23:01:00       25.729       24.299       57.672       44.410       50.782       38.854     1972.288     2578.790     1509.605        0.532        0.303       35.390       38.292        1.171      344.229       20.899      859.853
06/11/2013  23:02:00       97.764       -8.514       41.646       60.437       64.712       51.529     3652.583     4187.583     2655.200        1.093        0.525       98.134       57.299        0.341      344.227       20.896      859.832
06/11/2013  23:03:00       59.367      -98.775        0.099       36.340       37.713       32.023     1320.588     1422.278     1025.499        0.852        0.188      115.243       24.665        0.046      344.323       21.060      859.849
06/11/2013  23:04:00       40.035      -53.048       17.718       36.384       52.715       29.671     1323.807     2778.844      880.391        0.486        0.249       66.460       18.465        0.077      344.263       20.958      859.866
06/11/2013  23:05:00       46.803      -86.074       -4.640       29.080       46.522       23.316      845.640     2164.256      543.617        0.659        0.178       97.976       16.663        0.029      344.209       20.865      859.847
06/11/2013  23:06:00       24.625      -38.275        5.626       26.200       54.021       26.775      686.434     2918.216      716.916        0.321        0.216       45.512       26.212        0.332      344.124       20.720      859.839
06/11/2013  23:07:00       -4.293      -31.463      -11.876       26.091       25.674       13.662      680.742      659.172      186.654        0.134        0.076       31.755       12.533        0.156      344.093       20.666      859.824
06/11/2013  23:08:00      -19.824        3.380        4.999       22.474       13.093        8.440      505.075      171.418       71.227        0.059        0.037       20.110        9.511        0.224      344.036       20.570      859.811
06/11/2013  23:09:00       12.312       15.659       18.485       14.422       14.444        8.371      207.981      208.625       70.082        0.061        0.024       19.920        5.883        0.087      343.942       20.409      859.820
06/11/2013  23:10:00       31.147       17.018        5.164       11.333        9.291       13.271      128.426       86.320      176.118        0.084        0.020       35.493        9.857        0.077      344.059       20.610      859.829
06/11/2013  23:11:00       19.989       52.749       52.891       22.274       24.680       18.111      496.118      609.097      328.023        0.371        0.072       56.409       12.739        0.051      344.088       20.658      859.846
06/11/2013  23:12:00        7.210      -63.282        4.208       19.407       32.086       19.522      376.630     1029.540      381.121        0.293        0.089       63.692       22.408        0.124      344.152       20.769      859.881
06/11/2013  23:13:00       10.002      -16.151       13.861       20.028       25.824       18.390      401.113      666.886      338.208        0.098        0.070       18.998       15.389        0.656      344.071       20.629      859.877
06/11/2013  23:14:00       85.304      -84.610        4.918       72.152       76.944       36.419     5205.892     5920.443     1326.342        1.345        0.623      120.148       47.414        0.156      344.095       20.670      859.859
06/11/2013  23:15:00      117.802     -140.299      -27.631       93.723       96.118       52.176     8784.094     9238.723     2722.331        2.753        1.037      183.197       53.697        0.086      344.116       20.704      859.832
06/11/2013  23:16:00       44.406      -47.749       25.362       50.673       76.492       46.307     2567.766     5851.100     2144.313        0.773        0.528       65.207       44.711        0.470      344.062       20.615      859.838
06/11/2013  23:17:00        3.968      -30.049       39.430       34.081       52.811       40.894     1161.541     2789.022     1672.337        0.405        0.281       30.310       39.551        1.703      344.034       20.568      859.873
06/11/2013  23:18:00       -0.410      -45.083        3.183       37.774       37.453       30.668     1426.842     1402.712      940.553        0.291        0.189       45.085       27.094        0.361      344.076       20.639      859.911
06/11/2013  23:19:00        5.641      -20.969       30.761       38.908       65.932       35.748     1513.858     4347.077     1277.929        0.428        0.357       21.714       41.684        3.685      344.075       20.635      859.907
06/11/2013  23:20:00       15.726      -68.805       18.190       49.933       46.730       30.254     2493.333     2183.717      915.276        0.545        0.280       70.579       15.602        0.049      344.134       20.736      859.904
06/11/2013  23:21:00       -2.020      -40.012       16.157       49.273       54.280       25.861     2427.831     2946.359      668.788        0.395        0.302       40.063       28.088        0.492      344.161       20.784      859.905
06/11/2013  23:22:00       -1.412      -93.130       -0.573       69.692       63.337       31.439     4856.934     4011.587      988.392        0.926        0.493       93.141       26.309        0.080      344.150       20.765      859.911
06/11/2013  23:23:00      -54.339      -34.830       -1.718       52.413       41.132       21.872     2747.080     1691.825      478.399        0.454        0.246       64.543       16.207        0.063      344.109       20.696      859.923
06/11/2013  23:24:00      -82.637      -32.101        5.407       52.718       32.261       19.382     2779.223     1040.788      375.668        0.604        0.210       88.653       23.518        0.070      343.990       20.493      859.924
06/11/2013  23:25:00     -119.716      -68.547        4.435       58.086       53.617       31.230     3373.980     2874.805      975.293        1.314        0.361      137.951       27.131        0.039      344.029       20.556      859.922
06/11/2013  23:26:00     -125.264      -90.610       -0.033       66.931       51.439       37.698     4479.815     2645.945     1421.155        1.622        0.427      154.600       34.891        0.051      344.044       20.582      859.910
06/11/2013  23:27:00      -56.979      -68.115        4.049       48.205       43.092       28.877     2323.686     1856.890      833.861        0.646        0.251       88.804       21.206        0.057      344.008       20.525      859.896
06/11/2013  23:28:00      -42.429      -54.236        3.758       43.784       31.024       23.393     1917.028      962.458      547.215        0.409        0.171       68.860       14.989        0.047      344.068       20.623      859.876
06/11/2013  23:29:00      -74.071      -42.664        5.091       58.817       38.021       18.413     3459.461     1445.627      339.030        0.629        0.262       85.479       22.135        0.067      344.030       20.559      859.854
06/11/2013  23:30:00     -102.644      -74.370        3.034       58.282       43.075       27.090     3396.737     1855.429      733.881        1.103        0.299      126.754       29.451        0.054      344.072       20.630      859.887
06/11/2013  23:31:00      -91.471      -67.662        2.774       57.314       34.665       32.390     3284.858     1201.645     1049.124        0.924        0.277      113.776       35.553        0.098      344.035       20.568      859.934
06/11/2013  23:32:00      -99.662      -80.679       -6.143       67.585       39.589       29.623     4567.733     1567.266      877.493        1.174        0.351      128.225       35.567        0.077      343.982       20.477      859.938
06/11/2013  23:33:00     -129.604      -68.792       -6.080       38.773       34.974       21.985     1503.314     1223.172      483.361        1.239        0.160      146.730       20.640        0.020      344.012       20.531      859.912
06/11/2013  23:34:00      -69.854      -55.779       13.817       75.985       56.743       28.661     5773.662     3219.778      821.454        0.900        0.491       89.392       38.329        0.184      343.911       20.356      859.875
06/11/2013  23:35:00       17.263      -30.904       11.943       15.231       26.432       15.980      231.976      698.635      255.357        0.129        0.059       35.399        7.413        0.044      343.975       20.466      859.859
06/11/2013  23:36:00      -50.684      -42.047        6.715       41.421       30.891       14.887     1715.710      954.229      221.633        0.364        0.145       65.854       13.441        0.042      343.975       20.465      859.862
06/11/2013  23:37:00     -125.467      -67.085        0.687       56.749       46.920       31.444     3220.398     2201.501      988.696        1.333        0.321      142.275       27.800        0.038      343.944       20.412      859.886
06/11/2013  23:38:00      -39.022      -22.644       16.782       55.935       42.846       25.995     3128.734     1835.753      675.718        0.398        0.282       45.116       28.593        0.402      343.865       20.278      859.912
06/11/2013  23:39:00     -113.180      -55.041       -2.429       45.205       41.933       26.673     2043.486     1758.382      711.428        1.018        0.226      125.854       17.550        0.019      343.925       20.379      859.922
06/11/2013  23:40:00      -67.701      -79.363        7.314       33.905       53.566       23.867     1149.535     2869.263      569.640        0.776        0.229      104.316       22.708        0.047      343.947       20.419      859.909
06/11/2013  23:41:00      -74.665      -72.269       -1.268       43.287       34.530       22.822     1873.763     1192.320      520.847        0.719        0.179      103.912       24.331        0.055      343.954       20.429      859.901
06/11/2013  23:42:00      -91.760      -97.880       -8.069       39.625       36.027       24.906     1570.158     1297.930      620.289        1.078        0.174      134.166       23.460        0.031      343.961       20.443      859.888
06/11/2013  23:43:00     -130.004      -40.884        4.031       74.580       52.155       26.343     5562.205     2720.159      693.957        1.378        0.449      136.281       27.866        0.042      343.835       20.226      859.859
06/11/2013  23:44:00     -147.190      -25.406      -15.284       43.989       37.255       19.207     1935.028     1387.906      368.926        1.312        0.185      149.367       20.480        0.019      343.728       20.043      859.793
06/11/2013  23:45:00     -115.052        7.825      -17.045       24.727       18.893       16.539      611.431      356.963      273.529        0.742        0.062      115.318        9.014        0.006      343.754       20.090      859.743
06/11/2013  23:46:00       -7.506       -4.942       -1.132       39.830       23.762       25.246     1586.438      564.623      637.374        0.143        0.139        8.987       15.761        3.076      343.720       20.031      859.767
06/11/2013  23:47:00      -77.207      -48.395        4.268       57.967       39.664       28.827     3360.218     1573.260      831.001        0.704        0.288       91.121       27.486        0.091      343.690       19.979      859.848
06/11/2013  23:48:00      -75.044      -40.773        0.660       48.714       35.554       24.886     2373.010     1264.052      619.310        0.577        0.213       85.405       13.672        0.026      343.661       19.930      859.920
06/11/2013  23:49:00     -134.461     -108.576       -6.546       65.081       64.900       45.394     4235.492     4211.965     2060.591        2.021        0.525      172.826       40.423        0.055      343.504       19.660      859.972
06/11/2013  23:50:00     -154.299      -80.462       -2.910       57.305       41.365       30.180     3283.825     1711.062      910.851        1.810        0.295      174.018       26.948        0.024      343.553       19.746      859.999
06/11/2013  23:51:00     -109.954      -48.134       -5.318       46.963       30.089       19.908     2205.551      905.370      396.342        0.897        0.175      120.028       20.952        0.030      343.530       19.708      860.002
06/11/2013  23:52:00      -77.854       11.485        1.599       52.542       40.584       24.164     2760.631     1647.038      583.881        0.559        0.250       78.696       18.990        0.058      343.524       19.695      859.945
06/11/2013  23:53:00      -13.127       39.280       11.918       32.850       23.819       20.027     1079.107      567.340      401.062        0.195        0.102       41.416       15.428        0.139      343.449       19.568      859.840
06/11/2013  23:54:00      -48.468       50.640       -1.220       22.200       24.817       16.871      492.848      615.886      284.622        0.315        0.070       70.097       12.683        0.033      343.516       19.682      859.802
06/11/2013  23:55:00      -81.802       16.954       -7.669       18.921       35.258       15.108      358.019     1243.131      228.250        0.443        0.091       83.541       11.184        0.018      343.557       19.754      859.865
06/11/2013  23:56:00     -112.680      -68.048        0.497       56.389       37.763       25.211     3179.692     1426.042      635.594        1.128        0.262      131.633       14.232        0.012      343.505       19.663      859.923
06/11/2013  23:57:00     -112.840      -87.775        1.277       62.114       36.675       25.984     3858.106     1345.068      675.165        1.316        0.294      142.960       30.654        0.046      343.497       19.649      859.931
06/11/2013  23:58:00      -74.436      -62.419        2.515       41.449       41.926       20.882     1718.027     1757.773      436.059        0.668        0.196       97.143       18.263        0.035      343.574       19.781      859.901
06/11/2013  23:59:00      -71.451      -58.319       -0.339       48.080       33.657       21.444     2311.693     1132.790      459.852        0.620        0.195       92.230       17.272        0.035      343.620       19.859      859.870
